     2              OBSERVATION DATA    GPS                 RINEX VERSION / TYPE
teqc 2000Jul20 Karen Wendt 20030304 00:25:54UTC             PGM / RUN BY / DATE
                                                            COMMENT
L2: 1 -> 1; 150 -> 5; 250 -> 9                              COMMENT
L2: 1 -> 1; 150 -> 5; 250 -> 9                              COMMENT
L2: 1 -> 1; 150 -> 5; 250 -> 9                              COMMENT
L2: 1 -> 1; 150 -> 5; 250 -> 9                              COMMENT
L2: 1 -> 1; 150 -> 5; 250 -> 9                              COMMENT
L2: 1 -> 1; 150 -> 5; 250 -> 9                              COMMENT
L2: 1 -> 1; 150 -> 5; 250 -> 9                              COMMENT
L2: 1 -> 1; 150 -> 5; 250 -> 9                              COMMENT
L2: 1 -> 1; 150 -> 5; 250 -> 9                              COMMENT
L2: 1 -> 1; 150 -> 5; 250 -> 9                              COMMENT
L2: 1 -> 1; 150 -> 5; 250 -> 9                              COMMENT
L2: 1 -> 1; 150 -> 5; 250 -> 9                              COMMENT
L2: 1 -> 1; 150 -> 5; 250 -> 9                              COMMENT
L2: 1 -> 1; 150 -> 5; 250 -> 9                              COMMENT
Original Marker Name: lae1 LAPE1__T6nR4e_S28S27_1919_GLO    COMMENT
Campaign Name: USGS 2003                                    COMMENT
4-Character Station Name: LAE1                              COMMENT
6-Character Antenna Code: DMRCHT                            COMMENT
Vertical Measurement Point: BCR                             COMMENT
Vertical Offset to Rinex Ref. Point: 0.0348                 COMMENT
Radial Measurement Point: ECF                               COMMENT
Radial Offset to Rinex Ref. Point: 0.1897                   COMMENT
Antenna Height from Field Measurement: 1.1890 m             COMMENT
Additional Antenna Identification Info.:                    COMMENT
Turborogue and Ashtech Choke Ring                           COMMENT
Original XYZ: -2350823.2675 -4703345.7979 3599618.1696      COMMENT
New XYZ position is based on association with SCEC monument COMMENT
E1F2J8I6+0011. Position of that monument is believed to be  COMMENT
valid to within 1 m horizontally; vertical accuracy         COMMENT
should be no worse than 3-times this value.                 COMMENT
                                                            COMMENT
Revised Rinex header created by UCSD GPS archive for        COMMENT
GSAC on 11-Jul-2003 (2003:192) 16:52:07 GMT                 COMMENT
For assistance contact dagnew@ucsd.edu                      COMMENT
or anderson@python.ucsd.edu                                 COMMENT
                                                            COMMENT
T6NR4E 1919                                                 MARKER NAME
CHS US GEOLOGICAL SURVEY                                    OBSERVER / AGENCY
LP03360 ASHTECH Z-XII3 CC00                                 REC # / TYPE / VERS
CR14244 DORNE-MARGOL. TYPE T                                ANT # / TYPE
 -2350839.6563 -4703318.5399  3599600.5209                  APPROX POSITION XYZ
        1.1390        0.0000        0.0000                  ANTENNA: DELTA H/E/N
     1     1     0                                          WAVELENGTH FACT L1/2
     5    C1    L1    L2    P1    P2                        # / TYPES OF OBSERV
    30                                                      INTERVAL
  2003     2    28     0     1    0.000000                  TIME OF FIRST OBS
  2003     2    28    18    30    0.000000                  TIME OF LAST OBS
                                                            END OF HEADER
 03  2 28  0  1  0.0000000  0 10G16G30G 6G10G26G17G29G23G15G18
  23849357.606    -7784707.90149  -6048417.16745  23849357.143    23849364.769
  24118060.515    -6721377.37749  -5205605.79545  24118060.613    24118074.106
  20469940.544   -29558088.21149 -23020333.99248  20469940.255    20469947.266
  24537209.002    -5501431.83449  -3266103.95145  24537208.244    24537218.791
  21706458.587   -21337395.39349 -16053896.31047  21706458.572    21706466.930
  21079354.401   -23808520.61949 -18533592.05747  21079353.707    21079361.277
  22703040.518   -16858501.30549 -13112152.90746  22703040.312    22703048.529
  20660252.858   -24838504.98949 -19335312.70948  20660252.265    20660259.579
  22420874.739   -17573742.86549 -13679685.36646  22420873.952    22420882.563
  21887259.742   -21267305.90849 -15859473.25647  21887259.216    21887266.690
 03  2 28  0  1 30.0000000  0 10G16G30G 6G10G26G17G29G23G15G18
  23841872.752    -7824041.02149  -6079066.32745  23841872.275    23841879.926
  24137365.835    -6619928.54649  -5126555.01845  24137365.819    24137379.407
  20476151.146   -29525451.24249 -22994902.59748  20476150.856    20476157.888
  24557334.969    -5395669.05749  -3183691.46145  24557334.231    24557344.921
  21700963.661   -21366271.15849 -16076396.85847  21700963.635    21700971.991
  21074767.011   -23832627.48049 -18552376.59747  21074766.293    21074773.856
  22704791.360   -16849300.61349 -13104983.50946  22704791.090    22704799.336
  20656037.765   -24860655.18649 -19352572.56148  20656037.183    20656044.492
  22408907.188   -17636632.41949 -13728690.13846  22408906.417    22408914.998
  21872792.232   -21343332.84449 -15918714.92647  21872791.731    21872799.169
 03  2 28  0  2  0.0000000  0 10G16G30G 6G10G26G17G29G23G15G18
  23834485.491    -7862861.47149  -6109316.01345  23834485.019    23834492.660
  24156662.915    -6518522.92949  -5047537.92445  24156663.010    24156676.476
  20482453.236   -29492333.53649 -22969096.60148  20482452.943    20482459.979
  24577464.575    -5289887.72449  -3101264.49545  24577463.916    24577474.556
  21695583.413   -21394544.51049 -16098427.98847  21695583.350    21695591.681
  21070208.358   -23856583.20249 -18571043.36747  21070207.649    21070215.176
  22706645.526   -16839557.00649 -13097391.06846  22706645.226    22706653.421
  20651911.084   -24882340.86149 -19369470.45148  20651910.500    20651917.784
  22396961.487   -17699407.27549 -13777605.53046  22396960.707    22396969.263
  21858391.373   -21419009.44449 -15977683.60947  21858390.881    21858398.275
 03  2 28  0  2 30.0000000  0 10G16G30G 6G10G26G17G29G23G15G18
  23827196.103    -7901167.66149  -6139164.97545  23827195.606    23827203.213
  24175951.290    -6417162.73349  -4968556.20145  24175951.367    24175964.918
  20488846.907   -29458734.72749 -22942915.72648  20488846.617    20488853.640
  24597597.438    -5184089.29149  -3018824.20345  24597596.788    24597607.390
  21690318.176   -21422213.20249 -16119987.95947  21690318.125    21690326.441
  21065678.454   -23880387.95149 -18589592.50147  21065677.735    21065685.254
  22708603.082   -16829269.77749 -13089375.01946  22708602.801    22708610.965
  20647872.862   -24903561.85149 -19386006.25248  20647872.266    20647879.526
  22385037.780   -17762066.56349 -13826430.89046  22385037.001    22385045.519
  21844057.478   -21494334.16249 -16036378.09847  21844056.974    21844064.335
 03  2 28  0  3  0.0000000  0 10G16G30G 6G10G26G17G29G23G15G18
  23820004.725    -7938958.82649  -6168612.61745  23820004.214    23820011.780
  24195230.549    -6315850.90749  -4889612.18645  24195230.570    24195244.174
  20495332.029   -29424655.09349 -22916360.17348  20495331.727    20495338.774
  24617733.197    -5078276.27849  -2936372.53145  24617732.339    24617743.038
  21685168.303   -21449275.63549 -16141075.51547  21685168.261    21685176.589
  21061177.297   -23904041.75849 -18608024.01947  21061176.591    21061184.072
  22710664.175   -16818438.98549 -13080935.43146  22710663.874    22710671.966
  20643922.862   -24924318.86049 -19402180.50848  20643922.270    20643929.527
  22373136.080   -17824610.38549 -13875166.26846  22373135.291    22373143.784
  21829790.703   -21569306.10949 -16094797.70047  21829790.181    21829797.557
 03  2 28  0  3 30.0000000  0 10G16G30G 6G10G26G17G29G23G15G18
  23812911.567    -7976233.63549  -6197657.90145  23812911.075    23812918.636
  24214500.138    -6214589.70349  -4810707.67145  24214500.240    24214513.780
  20501908.730   -29390094.32549 -22889429.71748  20501908.444    20501915.480
  24637871.260    -4972450.09149  -2853910.54745  24637870.457    24637881.145
  21680134.204   -21475729.71949 -16161689.03247  21680134.175    21680142.438
  21056704.921   -23927544.20149 -18626337.58547  21056704.217    21056711.687
  22712828.652   -16807064.41749 -13072072.12146  22712828.316    22712836.414
  20640061.167   -24944612.02249 -19417993.32248  20640060.573    20640067.831
  22361256.369   -17887038.36649 -13923811.37246  22361255.575    22361264.041
  21815591.378   -21643923.56349 -16152941.08147  21815590.901    21815598.217
 03  2 28  0  4  0.0000000  0 10G16G30G 6G10G26G17G29G23G15G18
  23805916.724    -8012991.67549  -6226300.53345  23805916.257    23805923.780
  24233759.466    -6113382.14149  -4731844.92645  24233759.628    24233773.111
  20508576.923   -29355052.80849 -22862124.65348  20508576.638    20508583.684
  24658011.333    -4866613.26249  -2771440.26145  24658010.494    24658021.335
  21675216.152   -21501574.09849 -16181827.44147  21675216.140    21675224.408
  21052261.330   -23950895.38149 -18644533.28847  21052260.603    21052268.095
  22715096.573   -16795146.38449 -13062785.34746  22715096.266    22715104.277
  20636287.604   -24964442.11349 -19433445.30748  20636287.016    20636294.270
  22349398.624   -17949350.75949 -13972366.42046  22349397.864    22349406.298
  21801459.713   -21718185.86849 -16210807.71947  21801459.194    21801466.443
 03  2 28  0  4 30.0000000  0 10G16G30G 6G10G26G17G29G23G15G18
  23799020.476    -8049231.33149  -6254539.20345  23799020.032    23799027.768
  24253008.213    -6012230.11849  -4653025.46345  24253008.271    24253021.970
  20515336.719   -29319529.91249 -22834444.49148  20515336.448    20515343.477
  24678153.151    -4760766.99349  -2688962.66045  24678152.280    24678163.274
  21670414.571   -21526806.32349 -16201488.84547  21670414.574    21670422.826
  21047846.730   -23974094.08749 -18662610.18247  21047846.009    21047853.494
  22717468.104   -16782684.08649 -13053074.45146  22717467.755    22717475.753
  20632602.181   -24983809.02849 -19448536.37548  20632601.597    20632608.822
  22337563.082   -18011546.66849 -14020830.68946  22337562.288    22337570.756
  21787395.965   -21792091.11049 -16268396.12747  21787395.410    21787402.649
 03  2 28  0  5  0.0000000  0 10G16G30G 6G10G26G17G29G23G15G18
  23792222.907    -8084952.89749  -6282374.18045  23792222.407    23792230.136
  24272245.564    -5911137.53849  -4574252.31045  24272245.564    24272259.323
  20522187.823   -29283527.05649 -22806390.33248  20522187.555    20522194.568
  24698296.124    -4654914.39249  -2606480.13045  24698295.306    24698306.256
  21665729.545   -21551426.01349 -16220672.93247  21665729.548    21665737.769
  21043460.828   -23997142.06049 -18680569.62147  21043460.116    21043467.586
  22719942.880   -16769678.73049 -13042940.39546  22719942.571    22719950.564
  20629004.563   -25002714.51949 -19463267.89448  20629003.968    20629011.192
  22325749.471   -18073627.25949 -14069205.10346  22325748.656    22325757.145
  21773400.163   -21865639.23049 -16325706.25547  21773399.599    21773406.861
 03  2 28  0  5 30.0000000  0 10G16G30G 6G10G26G17G29G23G15G18
  23785524.366    -8120153.62449  -6309803.30645  23785523.945    23785531.672
  24291471.572    -5810105.40249  -4495526.28945  24291471.593    24291485.452
  20529130.588   -29247042.64449 -22777960.93048  20529130.319    20529137.337
  24718440.227    -4549056.18049  -2523993.24245  24718439.450    24718450.426
  21661161.753   -21575429.90449 -16239377.17447  21661161.740    21661169.946
  21039103.939   -24020037.52849 -18698410.22747  21039103.232    21039110.691
  22722521.367   -16756128.63949 -13032381.88546  22722521.076    22722529.079
  20625494.954   -25021157.37349 -19477638.91748  20625494.367    20625501.589
  22313958.191   -18135590.69349 -14117488.23546  22313957.369    22313965.868
  21759472.785   -21938827.50749 -16382735.99447  21759472.221    21759479.503
 03  2 28  0  6  0.0000000  0  9G16G30G 6G26G17G29G23G15G18
  23778925.214    -8154832.25249  -6336825.59145  23778924.683    23778932.548
  24310685.671    -5709135.79149  -4416848.97045  24310685.692    24310699.686
  20536165.054   -29210076.29349 -22749155.99248  20536164.799    20536171.801
  21656711.511   -21598815.62749 -16257599.72947  21656711.521    21656719.710
  21034776.279   -24042779.55249 -18716131.25747  21034775.578    21034783.014
  22725203.521   -16742033.51649 -13021398.67246  22725203.219    22725211.233
  20622073.435   -25039137.42549 -19491649.30948  20622072.856    20622080.059
  22302189.265   -18197436.33949 -14165679.58246  22302188.476    22302196.956
  21745614.257   -22011654.17249 -16439483.95947  21745613.695    21745620.970
 03  2 28  0  6 30.0000000  0  9G16G30G 6G26G17G29G23G15G18
  23772425.374    -8188988.78649  -6363441.04445  23772424.872    23772432.723
  24329887.250    -5608231.98949  -4338222.95145  24329887.229    24329901.515
  20543291.071   -29172629.03949 -22719976.32848  20543290.806    20543297.817
  21652379.031   -21621582.55449 -16275340.10347  21652379.040    21652387.238
  21030477.609   -24065369.06349 -18733733.45047  21030476.884    21030484.323
  22727989.242   -16727393.99849 -13009991.24346  22727988.991    22727997.012
  20618739.759   -25056656.11749 -19505300.20348  20618739.154    20618746.330
  22290442.593   -18259165.02549 -14213779.79946  22290441.838    22290450.300
  21731824.700   -22084118.48349 -16495949.57447  21731824.131    21731831.364
 03  2 28  0  7  0.0000000  0  9G16G30G 6G26G17G29G23G15G18
  23766024.610    -8222625.09749  -6389651.14645  23766024.143    23766031.946
  24349075.364    -5507399.37649  -4259652.39545  24349075.355    24349089.666
  20550507.990   -29134703.88849 -22690424.28448  20550507.730    20550514.729
  21648164.149   -21643731.73149 -16292599.09747  21648164.138    21648172.318
  21026207.540   -24087808.34649 -18751218.58447  21026206.840    21026214.268
  22730877.989   -16712212.99349 -12998161.87446  22730877.841    22730885.887
  20615493.214   -25073716.59449 -19518594.04848  20615492.602    20615499.780
  22278717.767   -18320779.00149 -14261790.61446  22278717.015    22278725.505
  21718103.661   -22156222.82549 -16552134.69747  21718103.100    21718110.273
 03  2 28  0  7 30.0000000  0  9G16G30G 6G26G17G29G23G15G18
  23759723.207    -8255739.09649  -6415454.24645  23759722.746    23759730.542
  24368249.674    -5406639.28649  -4181138.36045  24368249.701    24368263.991
  20557816.090   -29096299.58449 -22660498.86948  20557815.830    20557822.845
  21644067.313   -21665260.50549 -16309374.66447  21644067.284    21644075.412
  21021966.300   -24110096.04649 -18768585.60347  21021965.586    21021973.022
  22733870.038   -16696489.17649 -12985909.52746  22733869.969    22733878.019
  20612334.023   -25090318.11349 -19531530.25048  20612333.409    20612340.599
  22267015.102   -18382276.86249 -14309710.95646  22267014.287    22267022.825
  21704451.508   -22227965.12449 -16608037.70947  21704450.951    21704458.089
 03  2 28  0  8  0.0000000  0  9G16G30G 6G26G17G29G23G15G18
  23753521.433    -8288329.79449  -6440849.58245  23753520.979    23753528.707
  24387409.655    -5305954.21849  -4102682.78745  24387409.707    24387423.987
  20565215.375   -29057416.25449 -22630200.19048  20565215.118    20565222.133
  21640088.813   -21686167.13649 -16325665.45147  21640088.809    21640096.919
  21017754.014   -24132231.78849 -18785834.21747  21017753.292    21017760.710
  22736965.442   -16680222.71549 -12973234.33246  22736965.347    22736973.435
  20609262.064   -25106461.24449 -19544109.27148  20609261.455    20609268.650
  22255334.524   -18443658.31849 -14357540.58146  22255333.743    22255342.293
  21690868.537   -22299343.59549 -16663657.21847  21690867.975    21690875.124
 03  2 28  0  8 30.0000000  0  9G16G30G 6G26G17G29G23G15G18
  23747419.354    -8320396.63849  -6465836.72245  23747418.894    23747426.560
  24406554.819    -5205346.79849  -4024287.71745  24406554.853    24406569.250
  20572705.690   -29018054.40949 -22599528.63648  20572705.432    20572712.412
  21636228.944   -21706450.29449 -16341470.40747  21636228.951    21636237.083
  21013570.579   -24154215.61849 -18802964.45847  21013569.868    21013577.284
  22740164.154   -16663414.04549 -12960136.63546  22740163.952    22740172.048
  20606277.180   -25122146.77949 -19556331.72748  20606276.572    20606283.756
  22243676.033   -18504923.69049 -14405279.76146  22243675.254    22243683.780
  21677354.977   -22370357.30749 -16718992.50347  21677354.410    21677361.588
 03  2 28  0  9  0.0000000  0  9G16G30G 6G26G17G29G23G15G18
  23741417.195    -8351937.85849  -6490414.28845  23741416.730    23741424.428
  24425684.956    -5104818.65849  -3945954.43145  24425685.019    24425699.517
  20580287.249   -28978213.28549 -22568483.63248  20580286.984    20580293.960
  21632488.300   -21726107.54549 -16356787.64947  21632488.270    21632496.366
  21009416.300   -24176046.62149 -18819975.61747  21009415.594    21009422.988
  22743466.080   -16646062.14149 -12946615.63446  22743465.876    22743473.953
  20603379.435   -25137374.29449 -19568197.28548  20603378.848    20603386.018
  22232039.910   -18566071.53849 -14452927.36446  22232039.179    22232047.659
  21663911.226   -22441004.43649 -16774042.14147  21663910.667    21663917.827
 03  2 28  0  9 30.0000000  0  9G16G30G 6G26G17G29G23G15G18
  23735515.069    -8382953.79749  -6514582.54245  23735514.555    23735522.369
  24444799.276    -5004373.33749  -3867685.67445  24444799.507    24444813.922
  20587959.731   -28937894.19349 -22537066.17348  20587959.472    20587966.432
  21628866.739   -21745138.50149 -16371616.86347  21628866.707    21628874.801
  21005290.898   -24197725.58749 -18836868.30347  21005290.190    21005297.583
  22746871.192   -16628168.23949 -12932672.29646  22746870.979    22746879.035
  20600568.562   -25152145.42649 -19579707.22048  20600567.984    20600575.115
  22220426.073   -18627102.53449 -14500483.90146  22220425.340    22220433.773
  21650537.273   -22511284.66349 -16828805.88047  21650536.705    21650543.843
 03  2 28  0 10  0.0000000  0  9G16G30G 6G26G17G29G23G15G18
  23729712.960    -8413443.76849  -6538340.95545  23729712.492    23729720.297
  24463897.467    -4904013.22049  -3789483.31245  24463897.675    24463912.149
  20595723.152   -28897097.24049 -22505276.35848  20595722.888    20595729.831
  21625364.650   -21763541.53549 -16385956.79247  21625364.632    21625372.710
  21001194.557   -24219251.97649 -18853642.10347  21001193.846    21001201.232
  22750379.351   -16609732.53449 -12918306.76846  22750379.170    22750387.210
  20597844.447   -25166460.71249 -19590861.95748  20597843.859    20597850.974
  22208834.490   -18688016.42349 -14547949.19646  22208833.775    22208842.161
  21637233.367   -22581196.84949 -16883282.83547  21637232.816    21637239.928
 03  2 28  0 10 30.0000000  0  9G16G30G 6G26G17G29G23G15G18
  23724011.285    -8443406.01649  -6561688.15945  23724010.829    23724018.720
  24482979.107    -4803740.08249  -3711348.73445  24482979.316    24482993.827
  20603577.574   -28855822.01549 -22473113.86648  20603577.320    20603584.263
  21621982.483   -21781314.55349 -16399805.80247  21621982.473    21621990.524
  20997127.489   -24240624.69249 -18870296.15748  20997126.762    20997134.152
  22753990.742   -16590754.47549 -12903518.63546  22753990.560    22753998.577
  20595207.084   -25180320.00149 -19601661.36748  20595206.495    20595213.588
  22197265.329   -18748812.25749 -14595322.51046  22197264.654    22197273.015
  21623999.815   -22650739.18949 -16937471.60847  21623999.277    21624006.358
 03  2 28  0 11  0.0000000  0  9G16G30G 6G26G17G29G23G15G18
  23718409.948    -8472841.32349  -6584624.74945  23718409.477    23718417.438
  24502043.397    -4703557.62349  -3633284.83045  24502043.578    24502058.301
  20611522.777   -28814069.84049 -22440579.72348  20611522.510    20611529.461
  21618720.272   -21798457.31449 -16413163.69647  21618720.232    21618728.294
  20993089.368   -24261845.03349 -18886831.47148  20993088.657    20993096.031
  22757705.082   -16571235.48249 -12888308.97246  22757704.889    22757712.879
  20592656.132   -25193725.12649 -19612106.87948  20592655.531    20592662.632
  22185718.547   -18809491.13949 -14642604.68846  22185717.817    22185726.118
  21610836.674   -22719911.79749 -16991372.26747  21610836.120    21610843.188
 03  2 28  0 11 30.0000000  0  9G16G30G 6G26G17G29G23G15G18
  23712909.150    -8501748.05849  -6607149.46245  23712908.645    23712916.648
  24521090.140    -4603467.56249  -3555292.91645  24521090.332    24521105.007
  20619558.762   -28771840.53849 -22407673.80148  20619558.507    20619565.455
  21615578.359   -21814967.84249 -16426028.95347  21615578.346    21615586.315
  20989080.499   -24282911.79249 -18903247.12248  20989079.782    20989087.149
  22761522.461   -16551175.05949 -12872677.44646  22761522.216    22761530.199
  20590191.607   -25206676.08549 -19622198.50748  20590191.017    20590198.096
  22174194.139   -18870052.05149 -14689794.93546  22174193.386    22174201.670
  21597744.160   -22788712.96949 -17044983.50347  21597743.633    21597750.688
 03  2 28  0 12  0.0000000  0  9G16G30G 6G26G17G29G23G15G18
  23707508.908    -8530125.93849  -6629262.09245  23707508.454    23707516.485
  24540118.749    -4503472.66349  -3477375.17545  24540118.959    24540133.646
  20627685.420   -28729134.74349 -22374396.58247  20627685.151    20627692.113
  21612556.979   -21830844.97249 -16438400.65647  21612556.958    21612564.915
  20985100.835   -24303825.14649 -18919543.22948  20985100.107    20985107.464
  22765442.700   -16530573.71649 -12856624.41646  22765442.453    22765450.420
  20587813.409   -25219173.66249 -19631936.84548  20587812.804    20587819.868
  22162692.137   -18930495.16949 -14736893.40846  22162691.398    22162699.626
  21584722.454   -22857142.13549 -17098304.86247  21584721.938    21584728.978
 03  2 28  0 12 30.0000000  0  9G16G30G 6G26G17G29G23G15G18
  23702209.396    -8557974.85249  -6650962.52645  23702209.022    23702217.051
  24559128.616    -4403575.78349  -3399533.80345  24559128.869    24559143.756
  20635902.661   -28685952.87649 -22340748.40147  20635902.392    20635909.373
  21609656.312   -21846087.81449 -16450278.10747  21609656.257    21609664.177
  20981150.350   -24324585.12349 -18935719.82148  20981149.622    20981156.971
  22769465.706   -16509432.15749 -12840150.44046  22769465.537    22769473.456
  20585521.253   -25231218.83949 -19641322.66848  20585520.641    20585527.706
  22151212.621   -18990820.33149 -14783899.96346  22151211.875    22151220.047
  21571771.781   -22925198.35449 -17151335.61747  21571771.254    21571778.234
 03  2 28  0 13  0.0000000  0  9G16G30G 6G26G17G29G23G15G18
  23697010.878    -8585293.51749  -6672249.77845  23697010.511    23697018.532
  24578119.522    -4303778.85749  -3321770.33945  24578119.780    24578134.633
  20644210.546   -28642294.95749 -22306729.27047  20644210.271    20644217.250
  21606876.628   -21860694.71549 -16461660.02447  21606876.601    21606884.469
  20977229.061   -24345191.50749 -18951776.72948  20977228.327    20977235.669
  22773591.641   -16487750.38049 -12823255.50346  22773591.451    22773599.337
  20583315.135   -25242811.95149 -19650356.23848  20583314.518    20583321.590
  22139755.661   -19051026.83349 -14830814.06346  22139754.877    22139763.078
  21558892.292   -22992880.21649 -17204074.66547  21558891.760    21558898.709
 03  2 28  0 13 30.0000000  0  9G16G30G 6G26G17G29G23G15G18
  23691913.027    -8612082.09149  -6693123.96945  23691912.760    23691920.846
  24597090.915    -4204084.97149  -3244087.13545  24597091.236    24597106.180
  20652608.762   -28598162.06549 -22272340.03347  20652608.497    20652615.483
  21604218.075   -21874665.22449 -16472546.05147  21604218.041    21604225.914
  20973337.059   -24365644.02749 -18967713.74448  20973336.341    20973343.677
  22777820.174   -16465529.31749 -12805940.34346  22777819.973    22777827.839
  20581194.757   -25253954.42949 -19659038.66448  20581194.146    20581201.209
  22128321.162   -19111115.34149 -14877636.22546  22128320.383    22128328.542
  21546084.078   -23060187.50449 -17256521.83247  21546083.547    21546090.502
 03  2 28  0 14  0.0000000  0  9G16G30G 6G26G17G29G23G15G18
  23686916.441    -8638339.82549  -6713584.52445  23686916.080    23686924.210
  24616042.164    -4104496.41249  -3166486.01145  24616042.469    24616057.525
  20661097.376   -28553554.19049 -22237580.67947  20661097.090    20661104.090
  21601680.923   -21887997.62049 -16482934.85747  21601680.898    21601688.731
  20969474.389   -24385942.37249 -18983530.62848  20969473.685    20969481.002
  22782151.254   -16442768.90749 -12788204.91946  22782151.075    22782158.950
  20579160.092   -25264646.57649 -19667370.17648  20579159.484    20579166.529
  22116909.286   -19171085.02049 -14924365.79646  22116908.493    22116916.593
  21533347.439   -23127118.75449 -17308675.98047  21533346.924    21533353.856
 03  2 28  0 14 30.0000000  0  9G16G30G 6G26G17G29G23G15G18
  23682020.894    -8664066.26549  -6733631.08545  23682020.449    23682028.622
  24634972.851    -4005015.63049  -3088968.88745  24634972.943    24634988.445
  20669676.240   -28508472.00049 -22202451.72947  20669675.941    20669682.959
  21599265.434   -21900690.85949 -16492825.63047  21599265.410    21599273.185
  20965641.055   -24406086.55049 -18999227.38148  20965640.339    20965647.674
  22786584.904   -16419469.80349 -12770049.70946  22786584.706    22786592.600
  20577210.943   -25274889.38349 -19675351.55348  20577210.344    20577217.367
  22105519.972   -19230935.82649 -14971002.73046  22105519.187    22105527.285
  21520682.523   -23193673.26849 -17360536.56747  21520682.002    21520688.891
 03  2 28  0 15  0.0000000  0  9G16G30G 6G26G17G29G23G15G18
  23677226.323    -8689261.36949  -6753263.59745  23677225.867    23677234.114
  24653882.658    -3905645.61949  -3011538.06845  24653882.661    24653898.345
  20678345.234   -28462916.25749 -22166953.77847  20678344.950    20678351.969
  21596971.665   -21912744.48649 -16502218.00047  21596971.638    21596979.386
  20961837.097   -24426076.52349 -19014803.97348  20961836.403    20961843.718
  22791120.864   -16395632.77549 -12751475.35346  22791120.646    22791128.556
  20575347.072   -25284683.95649 -19682983.65748  20575346.464    20575353.479
  22094153.276   -19290667.99049 -15017547.22146  22094152.477    22094160.579
  21508089.361   -23259850.67349 -17412103.30347  21508088.820    21508095.684
 03  2 28  0 15 30.0000000  0  9G16G30G 6G26G17G29G23G15G18
  23672533.139    -8713924.04749  -6772481.25745  23672532.667    23672540.924
  24672771.001    -3806388.20949  -2934194.99045  24672770.985    24672786.656
  20687104.340   -28416886.88749 -22131086.76847  20687104.056    20687111.082
  21594799.932   -21924156.66049 -16511110.55347  21594799.881    21594807.627
  20958062.633   -24445911.28949 -19030259.62548  20958061.926    20958069.259
  22795759.193   -16371258.06449 -12732482.01146  22795758.995    22795766.902
  20573568.442   -25294030.60249 -19690266.72948  20573567.835    20573574.836
  22082809.285   -19350280.68049 -15063998.61846  22082808.520    22082816.623
  21495568.204   -23325649.48949 -17463375.03647  21495567.668    21495574.514
 03  2 28  0 16  0.0000000  0  8G16G 6G26G17G29G23G15G18
  23667942.284    -8738049.22449  -6791280.08445  23667941.785    23667949.998
  20695954.379   -28370379.75149 -22094847.46547  20695954.099    20695961.159
  21592751.372   -21934921.50349 -16519498.69447  21592751.319    21592759.082
  20954318.626   -24465586.05049 -19045590.59648  20954317.898    20954325.287
  22800500.714   -16346340.99749 -12713066.06346  22800500.463    22800508.444
  20571875.794   -25302925.38249 -19697197.70148  20571875.187    20571882.190
  22071489.018   -19409768.58049 -15110352.78746  22071488.267    22071496.389
  21483120.185   -23391063.89249 -17514347.22547  21483119.646    21483126.482
 03  2 28  0 16 30.0000000  0  8G16G 6G26G17G29G23G15G18
  23663454.031    -8761634.99949  -6809658.59445  23663453.522    23663461.713
  20704895.412   -28323394.24149 -22058235.39747  20704895.129    20704902.215
  21590826.432   -21945036.96649 -16527380.83347  21590826.362    21590834.110
  20950605.292   -24485099.59549 -19060795.94548  20950604.568    20950611.969
  22805345.500   -16320881.01349 -12693227.06346  22805345.268    22805353.294
  20570269.202   -25311368.06549 -19703776.39348  20570268.599    20570275.590
  22060192.805   -19469130.56849 -15156608.82846  22060192.037    22060200.145
  21470745.727   -23456091.94849 -17565018.36547  21470745.193    21470752.005
 03  2 28  0 17  0.0000000  0  8G16G 6G26G17G29G23G15G18
  23659066.168    -8784693.34849  -6827626.13345  23659065.660    23659073.847
  20713925.133   -28275942.91549 -22021260.36247  20713924.848    20713931.947
  21589022.978   -21954514.06149 -16534765.53547  21589022.940    21589030.641
  20946920.468   -24504463.45049 -19075884.64948  20946919.749    20946927.145
  22810291.209   -16294890.70549 -12672974.83946  22810290.994    22810299.030
  20568746.169   -25319371.46649 -19710012.76948  20568745.564    20568752.545
  22048918.271   -19528378.60349 -15202776.08146  22048917.472    22048925.582
  21458442.674   -23520744.80849 -17615397.14347  21458442.130    21458448.910
 03  2 28  0 17 30.0000000  0  8G16G 6G26G17G29G23G15G18
  23654779.353    -8807221.11349  -6845180.22745  23654778.857    23654786.902
  20723043.911   -28228023.40649 -21983920.50447  20723043.626    20723050.762
  21587341.726   -21963348.84949 -16541649.73947  21587341.684    21587349.333
  20943264.795   -24523674.06349 -19090853.94648  20943264.090    20943271.464
  22815338.281   -16268367.80449 -12652307.59846  22815338.120    22815346.113
  20567307.126   -25326933.51549 -19715905.22948  20567306.540    20567313.500
  22037666.053   -19587509.10149 -15248851.74447  22037665.252    22037673.379
  21446211.708   -23585018.73649 -17665480.64647  21446211.157    21446217.920
 03  2 28  0 18  0.0000000  0  8G16G 6G26G17G29G23G15G18
  23650593.929    -8829215.72949  -6862318.87745  23650593.495    23650601.377
  20732252.042   -28179634.26449 -21946214.70647  20732251.761    20732258.922
  21585783.224   -21971538.63349 -16548031.34047  21585783.173    21585790.875
  20939638.651   -24542729.69249 -19105702.46548  20939637.940    20939645.314
  22820487.051   -16241310.97249 -12631224.33546  22820486.865    22820494.814
  20565952.292   -25334053.13249 -19721452.93848  20565951.698    20565958.656
  22026436.621   -19646520.03249 -15294834.23747  22026435.816    22026443.965
  21434053.356   -23648910.89749 -17715266.66847  21434052.794    21434059.589
 03  2 28  0 18 30.0000000  0  8G16G 6G26G17G29G23G15G18
  23646510.043    -8850676.94049  -6879041.89845  23646509.532    23646517.446
  20741549.443   -28130776.08149 -21908143.41547  20741549.164    20741556.366
  21584347.652   -21979082.26349 -16553909.44147  21584347.627    21584355.315
  20936042.000   -24561630.03449 -19120429.98948  20936041.290    20936048.670
  22825737.302   -16213720.69049 -12609725.38446  22825737.061    22825745.050
  20564681.463   -25340731.17149 -19726656.57048  20564680.868    20564687.821
  22015230.019   -19705410.95349 -15340723.22247  22015229.214    22015237.323
  21421967.792   -23712420.34749 -17764754.47847  21421967.251    21421974.064
 03  2 28  0 19  0.0000000  0  8G16G 6G26G17G29G23G15G18
  23642527.580    -8871604.63949  -6895349.19145  23642527.099    23642535.022
  20750935.995   -28081449.66549 -21869707.26647  20750935.726    20750942.925
  21583035.107   -21985979.23649 -16559283.64847  21583035.116    21583042.803
  20932474.989   -24580374.75549 -19135036.24748  20932474.270    20932481.660
  22831088.899   -16185597.87649 -12587811.49246  22831088.586    22831096.614
  20563494.504   -25346968.69249 -19731516.93648  20563493.889    20563500.844
  22004046.250   -19764181.86049 -15386518.67947  22004045.457    22004053.543
  21409955.241   -23775546.72449 -17813943.78947  21409954.687    21409961.474
 03  2 28  0 19 30.0000000  0  8G16G 6G26G17G29G23G15G18
  23638646.904    -8891997.45849  -6911239.69545  23638646.456    23638654.427
  20760411.718   -28031654.54249 -21830905.89247  20760411.446    20760418.629
  21581846.085   -21992227.56849 -16564152.42347  21581846.049    21581853.753
  20928937.775   -24598962.77649 -19149520.40048  20928937.058    20928944.464
  22836541.826   -16156942.03149 -12565482.25946  22836541.591    22836549.623
  20562391.353   -25352765.54149 -19736033.93548  20562390.733    20562397.682
  21992885.538   -19822831.48849 -15432219.63847  21992884.743    21992892.851
  21398015.951   -23838288.09149 -17862833.09247  21398015.372    21398022.116
 03  2 28  0 20  0.0000000  0  8G16G 6G26G17G29G23G15G18
  23634867.953    -8911855.96349  -6926713.84645  23634867.521    23634875.419
  20769976.328   -27981392.13249 -21791740.39447  20769976.065    20769983.277
  21580780.429   -21997827.24949 -16568515.74847  21580780.427    21580788.111
  20925430.370   -24617394.27649 -19163882.58048  20925429.656    20925437.043
  22842096.017   -16127754.71749 -12542738.88646  22842095.816    22842103.731
  20561371.765   -25358123.35249 -19740208.82348  20561371.159    20561378.095
  21981747.832   -19881360.20849 -15477826.37847  21981747.033    21981755.117
  21386149.923   -23900644.12649 -17911422.13447  21386149.337    21386156.043
 03  2 28  0 20 30.0000000  0  8G16G 6G26G17G29G23G15G18
  23631190.796    -8931179.64849  -6941771.24645  23631190.327    23631198.235
  20779629.772   -27930662.97649 -21752211.20047  20779629.512    20779636.718
  21579838.416   -22002777.30049 -16572372.87447  21579838.399    21579846.091
  20921952.804   -24635668.91749 -19178122.54048  20921952.074    20921959.488
  22847751.283   -16098036.14849 -12519581.55546  22847751.081    22847758.963
  20560435.568   -25363042.95249 -19744042.24548  20560434.967    20560441.894
  21970633.279   -19939767.53549 -15523338.52747  21970632.458    21970640.515
  21374357.358   -23962614.02749 -17959710.29647  21374356.781    21374363.507
 03  2 28  0 21  0.0000000  0  8G16G 6G26G17G29G23G15G18
  23627615.359    -8949968.39849  -6956411.83345  23627614.843    23627622.896
  20789371.952   -27879467.61149 -21712318.72147  20789371.697    20789378.899
  21579020.212   -22007076.80349 -16575723.08347  21579020.205    21579027.881
  20918505.219   -24653785.97049 -19192239.70148  20918504.491    20918511.909
  22853507.458   -16067787.15049 -12496010.90746  22853507.236    22853515.105
  20559582.597   -25367525.24549 -19747534.90448  20559581.988    20559588.918
  21959541.854   -19998053.16349 -15568755.84947  21959541.046    21959549.087
  21362638.444   -24024196.95449 -18007696.92047  21362637.884    21362644.601
 03  2 28  0 21 30.0000000  0  8G16G 6G26G17G29G23G15G18
  23624141.721    -8968221.99649  -6970635.39445  23624141.268    23624149.287
  20799202.677   -27827806.96549 -21672063.69947  20799202.412    20799209.598
  21578325.886   -22010725.33149 -16578566.03947  21578325.866    21578333.517
  20915087.611   -24671745.58549 -19206234.16948  20915086.887    20915094.321
  22859364.417   -16037008.49949 -12472027.53346  22859364.222    22859372.062
  20558812.644   -25371571.31149 -19750687.64948  20558812.041    20558818.953
  21948473.648   -20056216.80549 -15614078.10547  21948472.819    21948480.857
  21350993.269   -24085392.22349 -18055381.46847  21350992.735    21350999.444
 03  2 28  0 22  0.0000000  0  8G16G 6G26G17G29G23G15G18
  23620770.019    -8985940.25549  -6984441.81745  23620769.552    23620777.646
  20809121.801   -27775681.79149 -21631446.69347  20809121.515    20809128.742
  21577755.548   -22013722.14649 -16580901.17447  21577755.521    21577763.207
  20911700.055   -24689547.14549 -19220105.47748  20911699.342    20911706.767
  22865322.059   -16005701.17749 -12447632.20346  22865321.847    22865329.642
  20558125.488   -25375182.14349 -19753501.25148  20558124.876    20558131.790
  21937428.712   -20114258.11249 -15659305.03447  21937427.885    21937435.912
  21339422.006   -24146199.23549 -18102763.47747  21339421.486    21339428.168
 03  2 28  0 22 30.0000000  0  8G16G 6G26G17G29G23G15G18
  23617500.194    -9003123.13649  -6997831.04745  23617499.715    23617507.867
  20819129.158   -27723092.73049 -21590468.22447  20819128.887    20819136.123
  21577309.440   -22016066.52449 -16582727.92047  21577309.380    21577316.996
  20908342.652   -24707190.32049 -19233853.37648  20908341.936    20908349.346
  22871380.228   -15973865.69849 -12422825.32646  22871379.923    22871387.750
  20557520.999   -25378358.63649 -19755976.41248  20557520.395    20557527.286
  21926407.133   -20172176.81549 -15704436.42647  21926406.295    21926414.288
  21327924.795   -24206617.30949 -18149842.42047  21327924.255    21327930.913
 03  2 28  0 23  0.0000000  0  8G16G 6G26G17G29G23G15G18
  23614332.266    -9019770.43649  -7010802.94445  23614331.838    23614339.989
  20829224.699   -27670040.28849 -21549128.67647  20829224.428    20829231.666
  21576987.547   -22017757.85349 -16584045.79147  21576987.522    21576995.108
  20905015.419   -24724674.91249 -19247477.70348  20905014.710    20905022.102
  22877538.599   -15941502.83149 -12397607.49546  22877538.350    22877546.188
  20556998.984   -25381101.77149 -19758113.89248  20556998.376    20557005.262
  21915408.941   -20229972.52249 -15749471.97247  21915408.099    21915416.081
  21316501.754   -24266645.43149 -18196617.50547  21316501.213    21316507.856
 03  2 28  0 23 30.0000000  0  8G16G 6G26G17G29G23G15G18
  23611266.259    -9035882.43449  -7023357.72345  23611265.860    23611273.919
  20839408.209   -27616525.67249 -21507428.99647  20839407.938    20839415.159
  21576790.012   -22018795.85249 -16584854.58047  21576789.979    21576797.527
  20901718.402   -24742000.82149 -19260978.38248  20901717.692    20901725.081
  22883797.121   -15908613.74349 -12371979.61546  22883796.887    22883804.776
  20556559.131   -25383413.05249 -19759914.86248  20556558.531    20556565.401
  21904434.127   -20287645.21849 -15794411.66447  21904433.296    21904441.280
  21305152.973   -24326283.31649 -18243088.50847  21305152.430    21305159.045
 03  2 28  0 24  0.0000000  0  8G16G 6G26G17G29G23G15G18
  23608302.282    -9051458.93449  -7035495.21745  23608301.862    23608309.821
  20849679.591   -27562549.51149 -21465369.66847  20849679.307    20849686.529
  21576716.930   -22019179.86649 -16585153.76047  21576716.860    21576724.396
  20898451.683   -24759167.40849 -19274354.90848  20898450.964    20898458.346
  22890155.641   -15875199.35849 -12345942.41346  22890155.395    22890163.276
  20556201.320   -25385293.31649 -19761379.97448  20556200.698    20556207.555
  21893482.792   -20345194.54149 -15839255.21647  21893481.978    21893489.948
  21293878.586   -24385530.44049 -18289255.02147  21293878.035    21293884.619
 03  2 28  0 24 30.0000000  0  8G16G 6G26G17G29G23G15G18
  23605440.038    -9066500.57049  -7047215.94845  23605439.564    23605447.515
  20860038.486   -27508113.27649 -21422951.84047  20860038.216    20860045.416
  21576768.242   -22018909.98549 -16584943.41547  21576768.174    21576775.723
  20895215.235   -24776175.03849 -19287607.57048  20895214.494    20895221.887
  22896613.963   -15841260.95849 -12319496.87846  22896613.714    22896621.605
  20555925.183   -25386744.20749 -19762510.50648  20555924.580    20555931.423
  21882554.895   -20402620.73549 -15884002.82647  21882554.093    21882562.027
  21282678.563   -24444386.53549 -18335116.83547  21282678.019    21282684.599
 03  2 28  0 25  0.0000000  0  8G16G 6G26G17G29G23G15G18
  23602679.568    -9081006.58149  -7058519.30245  23602679.135    23602686.997
  20870484.868   -27453217.21349 -21380175.69947  20870484.594    20870491.792
  21576944.203   -22017985.14849 -16584222.71147  21576944.173    21576951.658
  20892009.186   -24793022.66849 -19300735.56448  20892008.444    20892015.832
  22903171.896   -15806798.79249 -12292643.21446  22903171.634    22903179.535
  20555730.684   -25387766.19349 -19763306.82448  20555730.084    20555736.908
  21871650.590   -20459922.91749 -15928653.79947  21871649.812    21871657.707
  21271553.220   -24502850.30949 -18380672.94147  21271552.671    21271559.260
 03  2 28  0 25 30.0000000  0  8G16G 6G26G17G29G23G15G18
  23600021.043    -9094976.89949  -7069405.23245  23600020.656    23600028.534
  20881018.668   -27397861.81149 -21337041.63647  20881018.412    20881025.603
  21577244.966   -22016404.43249 -16582990.92947  21577244.954    21577252.376
  20888833.771   -24809709.53349 -19313738.27648  20888833.042    20888840.401
  22909829.379   -15771813.45449 -12265381.87246  22909829.065    22909836.982
  20555617.622   -25388360.10749 -19763769.57748  20555617.023    20555623.848
  21860770.134   -20517100.20849 -15973207.46547  21860769.294    21860777.171
  21260502.693   -24560920.84149 -18425922.62847  21260502.151    21260508.716
 03  2 28  0 26  0.0000000  0  8G16G 6G26G17G29G23G15G18
  23597464.365    -9108412.83649  -7079874.75645  23597463.935    23597471.696
  20891639.477   -27342049.34049 -21293551.41047  20891639.209    20891646.390
  21577670.370   -22014168.80949 -16581248.83847  21577670.350    21577677.727
  20885688.798   -24826236.29349 -19326616.23748  20885688.059    20885695.419
  22916585.936   -15736307.30549 -12237714.69946  22916585.608    22916593.593
  20555585.583   -25388528.38749 -19763900.66548  20555584.975    20555591.808
  21849913.116   -20574153.75849 -16017664.70947  21849912.291    21849920.180
  21249526.906   -24618598.77049 -18470866.39247  21249526.359    21249532.889
 03  2 28  0 26 30.0000000  0  8G16G 6G26G17G29G23G15G18
  23595009.695    -9121312.41849  -7089926.35945  23595009.225    23595016.937
  20902347.423   -27285778.80749 -21249704.25347  20902347.166    20902354.331
  21578220.764   -22011276.16549 -16578994.78047  21578220.759    21578228.145
  20882574.604   -24842601.36049 -19339368.20048  20882573.865    20882581.208
  22923441.728   -15700279.54649 -12209641.07746  22923441.432    22923449.380
  20555634.685   -25388270.28249 -19763699.50948  20555634.081    20555640.901
  21839080.017   -20631081.57949 -16062023.98147  21839079.220    21839087.129
  21238626.242   -24675881.86349 -18515502.49247  21238625.685    21238632.184
 03  2 28  0 27  0.0000000  0  8G16G 6G26G17G29G23G15G18
  23592656.694    -9133677.42949  -7099561.41245  23592656.274    23592663.941
  20913142.063   -27229052.80549 -21205502.18847  20913141.793    20913148.933
  21578896.019   -22007727.70949 -16576229.69647  21578895.991    21578903.366
  20879490.987   -24858805.69449 -19351994.91248  20879490.250    20879497.579
  22930396.354   -15663732.55349 -12181162.86146  22930396.117    22930403.976
  20555764.397   -25387588.47649 -19763168.19448  20555763.801    20555770.601
  21828270.751   -20687884.52149 -16106285.95147  21828269.973    21828277.807
  21227800.575   -24732770.88249 -18559831.51747  21227800.020    21227806.491
 03  2 28  0 27 30.0000000  0  8G16G 6G26G17G29G23G15G18
  23590405.565    -9145507.61349  -7108779.70445  23590405.082    23590412.699
  20924023.220   -27171871.82649 -21160945.59147  20924022.940    20924030.105
  21579696.155   -22003522.67649 -16572953.00247  21579696.118    21579703.483
  20876438.105   -24874848.70149 -19364495.91448  20876437.353    20876444.665
  22937449.701   -15626667.16449 -12152280.67946  22937449.424    22937457.255
  20555974.615   -25386483.68749 -19762307.27848  20555974.005    20555980.819
  21817485.331   -20744561.99949 -16150450.14247  21817484.520    21817492.374
  21217050.048   -24789265.06649 -18603852.87947  21217049.492    21217055.949
 03  2 28  0 28  0.0000000  0  8G16G 6G26G17G29G23G15G18
  23588256.048    -9156803.30949  -7117581.51545  23588255.461    23588263.190
  20934990.851   -27114236.72349 -21116035.13447  20934990.578    20934997.716
  21580621.278   -21998660.78549 -16569164.46847  21580621.267    21580628.606
  20873416.066   -24890729.47049 -19376870.49848  20873415.335    20873422.640
  22944601.474   -15589084.08049 -12122995.11046  22944601.223    22944609.025
  20556265.056   -25384957.10649 -19761117.69848  20556264.464    20556271.269
  21806723.872   -20801113.45749 -16194516.14847  21806723.110    21806730.930
  21206374.786   -24845363.58149 -18647565.92747  21206374.233    21206380.676
 03  2 28  0 28 30.0000000  0  8G16G 6G26G17G29G23G15G18
  23586208.142    -9167564.43649  -7125966.77445  23586207.539    23586215.336
  20946044.703   -27056148.27549 -21070771.42747  20946044.415    20946051.581
  21581671.516   -21993141.66649 -16564863.81447  21581671.490    21581678.868
  20870424.965   -24906447.76649 -19389118.48048  20870424.216    20870431.497
  22951851.502   -15550984.66849 -12093307.20446  22951851.264    22951859.116
  20556635.599   -25383009.82549 -19759600.29648  20556634.998    20556641.787
  21795986.497   -20857538.61149 -16238483.72347  21795985.693    21795993.517
  21195774.868   -24901066.14949 -18690970.44547  21195774.331    21195780.766
 03  2 28  0 29  0.0000000  0  8G16G 6G26G17G29G23G15G18
  23584262.214    -9177790.57349  -7133935.16045  23584261.605    23584269.300
  20957184.729   -26997607.06749 -21025154.91347  20957184.453    20957191.626
  21582846.852   -21986964.79649 -16560050.62447  21582846.836    21582854.234
  20867464.914   -24922002.64749 -19401239.12848  20867464.175    20867471.459
  22959199.720   -15512369.31449 -12063217.26446  22959199.507    22959207.363
  20557086.076   -25380642.53949 -19757755.61448  20557085.466    20557092.236
  21785273.254   -20913836.79249 -16282352.35847  21785272.450    21785280.251
  21185250.533   -24956371.60349 -18734065.52547  21185249.987    21185256.385
 03  2 28  0 29 30.0000000  0  8G16G 6G26G17G29G23G15G18
  23582417.803    -9187483.00849  -7141487.67945  23582417.182    23582424.854
  20968410.544   -26938615.03249 -20979187.11047  20968410.252    20968417.446
  21584147.256   -21980130.84649 -16554725.42947  21584147.236    21584154.640
  20864535.821   -24937394.80449 -19413232.97948  20864535.113    20864542.382
  22966645.795   -15473240.13249 -12032726.94746  22966645.522    22966653.342
  20557616.045   -25377857.38449 -19755585.32048  20557615.429    20557622.195
  21774584.085   -20970008.48849 -16326122.44047  21774583.290    21774591.071
  21174801.701   -25011280.28749 -18776851.43147  21174801.160    21174807.530
 03  2 28  0 30  0.0000000  0  8G16G 6G26G17G29G23G15G18
  23580674.852    -9196642.02949  -7148624.55345  23580674.329    23580681.941
  20979721.975   -26879173.02549 -20932868.67747  20979721.701    20979728.913
  21585572.818   -21972639.38849 -16548887.88547  21585572.799    21585580.182
  20861637.798   -24952623.85949 -19425099.73848  20861637.069    20861644.344
  22974189.472   -15433597.99149 -12001836.93046  22974189.160    22974196.953
  20558225.285   -25374655.57449 -19753090.36248  20558224.677    20558231.453
  21763919.106   -21026052.97849 -16369793.39147  21763918.313    21763926.078
  21164428.395   -25065791.86849 -18819327.90447  21164427.871    21164434.231
 03  2 28  0 30 30.0000000  0  8G16G 6G26G17G29G23G15G18
  23579033.385    -9205267.43949  -7155345.61945  23579032.916    23579040.479
  20991118.922   -26819281.98449 -20886200.35247  20991118.631    20991125.825
  21587123.528   -21964490.19349 -16542537.81047  21587123.515    21587130.868
  20858770.952   -24967688.92449 -19436838.71848  20858770.234    20858777.509
  22981830.478   -15393443.83849 -11970547.93246  22981830.220    22981837.993
  20558913.618   -25371038.03849 -19750271.45848  20558913.011    20558919.779
  21753278.424   -21081969.84949 -16413364.90547  21753277.639    21753285.404
  21154130.890   -25119905.37149 -18861494.18747  21154130.370    21154136.693
 03  2 28  0 31  0.0000000  0  8G16G 6G26G17G29G23G15G18
  23577493.358    -9213359.87149  -7161651.37045  23577492.911    23577500.567
  21002601.068   -26758943.05849 -20839183.02047  21002600.762    21002607.944
  21588799.398   -21955683.37449 -16535675.31147  21588799.375    21588806.722
  20855935.399   -24982589.74149 -19448449.71148  20855934.677    20855941.967
  22989568.700   -15352779.18249 -11938861.14246  22989568.393    22989576.189
  20559680.837   -25367006.23149 -19747129.74648  20559680.220    20559686.988
  21742662.028   -21137758.92449 -16456836.84147  21742661.249    21742668.996
  21143909.148   -25173620.69549 -18903350.20547  21143908.617    21143914.934
 03  2 28  0 31 30.0000000  0  8G16G 6G26G17G29G23G15G18
  23576054.861    -9220919.37249  -7167541.86545  23576054.367    23576062.013
  21014168.216   -26698157.21749 -20791817.44147  21014167.924    21014175.085
  21590600.415   -21946218.78249 -16528300.26147  21590600.379    21590607.743
  20853131.222   -24997325.61249 -19459932.17648  20853130.508    20853137.765
  22997403.842   -15311604.84549 -11906777.20246  22997403.559    22997411.353
  20560526.642   -25362561.25649 -19743666.08848  20560526.024    20560532.779
  21732070.078   -21193419.73649 -16500208.82947  21732069.302    21732077.018
  21133763.319   -25226937.12849 -18944895.39647  21133762.781    21133769.077
 03  2 28  0 32  0.0000000  0  8G16G 6G26G17G29G23G15G18
  23574717.617    -9227946.69649  -7173017.67345  23574717.183    23574724.703
  21025820.202   -26636925.66349 -20744104.55747  21025819.918    21025827.090
  21592526.595   -21936096.40449 -16520412.64247  21592526.555    21592533.940
  20850358.476   -25011896.49549 -19471286.08048  20850357.748    20850364.998
  23005335.720   -15269922.27849 -11874297.24946  23005335.438    23005343.208
  20561450.821   -25357704.48549 -19739881.54648  20561450.214    20561456.980
  21721502.604   -21248951.98349 -16543480.63847  21721501.847    21721509.535
  21123693.458   -25279854.37149 -18986129.53047  21123692.912    21123699.175
 03  2 28  0 32 30.0000000  0  8G16G 6G26G17G29G23G15G18
  23573481.546    -9234442.07049  -7178078.97145  23573481.129    23573488.631
  21037556.753   -26575249.58849 -20696045.29247  21037556.493    21037563.689
  21594577.897   -21925316.47949 -16512012.65447  21594577.875    21594585.209
  20847617.160   -25026301.98149 -19482511.10548  20847616.446    20847623.694
  23013364.138   -15227732.71549 -11841422.22546  23013363.810    23013371.515
  20562453.106   -25352437.25949 -19735777.17248  20562452.490    20562459.250
  21710959.644   -21304355.02349 -16586651.76747  21710958.906    21710966.579
  21113699.589   -25332372.18649 -19027052.42547  21113699.041    21113705.290
 03  2 28  0 33  0.0000000  0  8G16G 6G26G17G29G23G15G18
  23572346.728    -9240405.70749  -7182725.93345  23572346.304    23572353.723
  21049377.765   -26513129.80849 -20647640.27947  21049377.479    21049384.711
  21596754.415   -21913878.67549 -16503100.03047  21596754.378    21596761.703
  20844907.515   -25040541.19449 -19493606.56748  20844906.811    20844914.036
  23021488.747   -15185037.13349 -11808152.91146  23021488.425    23021496.149
  20563533.299   -25346760.69649 -19731353.83848  20563532.693    20563539.429
  21700441.470   -21359628.32649 -16629721.79847  21700440.708    21700448.377
  21103781.853   -25384489.93749 -19067663.57847  21103781.296    21103787.559
 03  2 28  0 33 30.0000000  0  8G16G 6G26G17G29G23G15G18
  23571312.933    -9245838.02249  -7186958.88345  23571312.480    23571319.912
  21061282.964   -26450567.59749 -20598890.52547  21061282.687    21061289.931
  21599056.092   -21901782.98349 -16493674.76147  21599056.065    21599063.412
  20842229.606   -25054613.57749 -19504572.03248  20842228.895    20842236.120
  23029709.400   -15141836.95149 -11774490.40746  23029709.124    23029716.803
  20564691.146   -25340676.04749 -19726612.51948  20564690.521    20564697.253
  21689948.031   -21414771.38049 -16672690.33647  21689947.292    21689954.897
  21093940.301   -25436207.10949 -19107962.59647  21093939.740    21093946.015
 03  2 28  0 34  0.0000000  0  8G16G 6G26G17G29G23G15G18
  23570380.190    -9250739.52249  -7190778.20345  23570379.726    23570387.197
  21073272.094   -26387564.31849 -20549797.07847  21073271.827    21073279.081
  21601482.851   -21889029.82749 -16483737.18147  21601482.865    21601490.213
  20839583.446   -25068519.05049 -19515407.43848  20839582.727    20839589.965
  23038025.853   -15098133.43649 -11740435.68046  23038025.607    23038033.243
  20565926.360   -25334184.76049 -19721554.34148  20565925.746    20565932.477
  21679479.340   -21469784.33549 -16715557.49347  21679478.609    21679486.222
  21084175.011   -25487523.74249 -19147949.50547  21084174.460    21084180.720
 03  2 28  0 34 30.0000000  0  8G16G 6G26G17G29G23G15G18
  23569548.358    -9255111.10749  -7194184.60445  23569547.872    23569555.377
  21085344.937   -26324121.16249 -20500360.87247  21085344.660    21085351.917
  21604034.681   -21875619.76049 -16473287.71347  21604034.668    21604042.005
  20836969.126   -25082257.34549 -19526112.57048  20836968.407    20836975.621
  23046437.791   -15053928.32149 -11705990.11946  23046437.553    23046445.147
  20567238.648   -25327288.47349 -19716180.57248  20567238.047    20567244.759
  21669035.427   -21524666.85149 -16758323.01647  21669034.720    21669042.319
  21074485.985   -25538439.43249 -19187623.98447  21074485.447    21074491.720
 03  2 28  0 35  0.0000000  0  8G16G 6G26G17G29G23G15G18
  23568817.095    -9258953.56149  -7197178.69945  23568816.608    23568824.130
  21097501.154   -26260239.81849 -20450583.21647  21097500.894    21097508.116
  21606711.425   -21861553.17149 -16462326.67347  21606711.405    21606718.760
  20834386.631   -25095828.44149 -19536687.42648  20834385.905    20834393.112
  23054944.844   -15009223.28349 -11671154.99946  23054944.594    23054952.223
  20568627.656   -25319989.05849 -19710492.68148  20568627.046    20568633.744
  21658616.430   -21579418.95049 -16800986.92147  21658615.702    21658623.265
  21064873.234   -25588954.23749 -19226986.09347  21064872.732    21064878.986
 03  2 28  0 35 30.0000000  0  8G16G 6G26G17G29G23G15G18
  23568186.648    -9262266.31549  -7199760.04445  23568186.184    23568193.676
  21109740.788   -26195920.11049 -20400463.98847  21109740.521    21109747.740
  21609513.290   -21846828.90049 -16450853.14747  21609513.295    21609520.612
  20831836.252   -25109230.64249 -19547130.67348  20831835.530    20831842.732
  23063547.050   -14964018.24749 -11635930.28346  23063546.759    23063554.472
  20570093.410   -25312286.32649 -19704490.51348  20570092.801    20570099.480
  21648222.597   -21634038.78349 -16843547.75747  21648221.858    21648229.440
  21055337.134   -25639066.57149 -19266034.58447  21055336.614    21055342.860
 03  2 28  0 36  0.0000000  0  8G16G 6G26G17G29G23G15G18
  23567656.802    -9265050.61149  -7201929.60945  23567656.292    23567663.816
  21122063.462   -26131164.21749 -20350004.87447  21122063.180    21122070.432
  21612440.108   -21831448.15949 -16438868.08747  21612440.099    21612447.359
  20829317.973   -25122464.19649 -19557442.50248  20829317.244    20829324.451
  23072243.938   -14918315.52549 -11600317.75246  23072243.678    23072251.402
  20571635.484   -25304182.69249 -19698175.95248  20571634.864    20571641.509
  21637853.834   -21688526.76349 -16886005.85247  21637853.086    21637860.661
  21045877.435   -25688777.26049 -19304770.10447  21045876.893    21045883.119
 03  2 28  0 36 30.0000000  0  8G16G 6G26G17G29G23G15G18
  23567227.367    -9267306.93049  -7203687.76245  23567226.918    23567234.378
  21134468.910   -26065973.26949 -20299206.76047  21134468.632    21134475.875
  21615491.832   -21815411.11649 -16426371.63147  21615491.836    21615499.041
  20826831.856   -25135528.60449 -19567622.53148  20826831.125    20826838.323
  23081035.319   -14872116.36749 -11564318.39446  23081035.072    23081042.782
  20573253.603   -25295679.31149 -19691549.90048  20573252.993    20573259.617
  21627510.242   -21742882.54449 -16928360.94647  21627509.457    21627517.046
  21036494.298   -25738085.68549 -19343192.17747  21036493.769    21036499.979
 03  2 28  0 37  0.0000000  0  8G16G 6G26G17G29G23G15G18
  23566898.318    -9269036.19849  -7205035.22345  23566897.916    23566905.309
  21146956.844   -26000348.80549 -20248070.83447  21146956.557    21146963.832
  21618668.320   -21798718.41349 -16413364.27547  21618668.317    21618675.487
  20824377.963   -25148423.68149 -19577670.61848  20824377.244    20824384.437
  23089920.859   -14825422.39249 -11527933.47546  23089920.640    23089928.275
  20574947.453   -25286777.90349 -19684613.69848  20574946.841    20574953.474
  21617191.814   -21797105.95249 -16970612.89447  21617191.030    21617198.623
  21027187.725   -25786991.63149 -19381300.62947  21027187.191    21027193.377
 03  2 28  0 37 30.0000000  0  8G16G 6G26G17G29G23G15G18
  23566669.474    -9270238.81249  -7205972.31345  23566669.075    23566676.319
  21159527.085   -25934291.83849 -20196597.90047  21159526.804    21159534.094
  21621969.543   -21781369.94849 -16399845.93547  21621969.542    21621976.716
  20821956.440   -25161148.74249 -19587586.22148  20821955.720    20821962.919
  23098900.401   -14778234.77249 -11491163.89546  23098900.155    23098907.793
  20576716.833   -25277479.44749 -19677368.10048  20576716.226    20576722.844
  21606898.767   -21851196.00449 -17012760.92047  21606897.966    21606905.509
  21017957.797   -25835495.13549 -19419095.49547  21017957.271    21017963.391
 03  2 28  0 38  0.0000000  0  8G16G 6G26G17G29G23G15G18
  23566540.756    -9270915.37149  -7206499.48245  23566540.324    23566547.581
  21172179.330   -25867803.75749 -20144789.03647  21172179.055    21172186.368
  21625395.514   -21763366.37249 -16385817.13047  21625395.490    21625402.649
  20819567.421   -25173703.05749 -19597368.77448  20819566.694    20819573.896
  23107973.387   -14730555.24049 -11454011.01246  23107973.223    23107980.901
  20578561.474   -25267785.65549 -19669814.45348  20578560.869    20578567.495
  21596631.192   -21905152.32549 -17054804.74847  21596630.404    21596637.904
  21008804.567   -25883595.43349 -19456576.17347  21008804.038    21008810.123
 03  2 28  0 38 30.0000000  0  8G16G 6G26G17G29G23G15G18
  23566511.894    -9271066.93849  -7206617.57545  23566511.483    23566518.742
  21184913.320   -25800886.34649 -20092645.62847  21184913.060    21184920.351
  21628945.944   -21744708.40649 -16371278.41447  21628945.942    21628953.074
  20817210.926   -25186086.59049 -19607018.24448  20817210.175    20817217.351
  23117139.752   -14682385.59649 -11416476.21646  23117139.578    23117147.294
  20580481.010   -25257698.28449 -19661954.12148  20580480.390    20580487.013
  21586388.988   -21958975.05249 -17096744.47047  21586388.195    21586395.704
  20999727.983   -25931292.93549 -19493742.98247  20999727.451    20999733.527
 03  2 28  0 39  0.0000000  0  8G16G 6G26G17G29G23G15G18
  23566582.946    -9270693.36049  -7206326.45945  23566582.514    23566589.831
  21197728.923   -25733539.99849 -20040167.97747  21197728.668    21197735.971
  21632620.980   -21725395.58449 -16356229.43147  21632620.968    21632628.119
  20814887.143   -25198298.03449 -19616533.61748  20814886.404    20814893.567
  23126399.345   -14633726.22749 -11378559.83546  23126399.127    23126406.862
  20582475.327   -25247217.81049 -19653787.47748  20582474.699    20582481.344
  21576172.486   -22012662.86249 -17138579.07347  21576171.677    21576179.209
  20990728.268   -25978586.47549 -19530595.01947  20990727.732    20990733.777
 03  2 28  0 39 30.0000000  0  8G16G 6G26G17G29G23G15G18
  23566753.801    -9269795.94249  -7205627.14645  23566753.306    23566760.651
  21210625.782   -25665766.70549 -19987357.64647  21210625.529    21210632.835
  21636420.457   -21705429.01949 -16340671.04447  21636420.428    21636427.589
  20812596.066   -25210337.43849 -19625914.93648  20812595.330    20812602.492
  23135751.668   -14584579.40449 -11340263.62246  23135751.473    23135759.201
  20584544.029   -25236346.36049 -19645316.18148  20584543.417    20584550.087
  21565981.654   -22066215.86349 -17180308.62347  21565980.832    21565988.321
  20981805.323   -26025476.68049 -19567132.76947  20981804.769    20981810.785
 03  2 28  0 40  0.0000000  0  8G16G 6G26G17G29G23G15G18
  23567024.008    -9268375.80549  -7204520.54745  23567023.529    23567030.936
  21223603.605   -25597567.79449 -19934215.65747  21223603.345    21223610.678
  21640344.225   -21684809.15649 -16324603.59647  21640344.231    21640351.397
  20810337.820   -25222204.43449 -19635161.91048  20810337.113    20810344.247
  23145196.501   -14534946.66649 -11301588.76646  23145196.244    23145203.973
  20586686.886   -25225085.47649 -19636541.42748  20586686.274    20586692.919
  21555816.549   -22119633.55449 -17221932.73147  21555815.719    21555823.218
  20972959.146   -26071963.33749 -19603356.06647  20972958.603    20972964.595
 03  2 28  0 40 30.0000000  0  8G16G 6G26G17G29G23G15G18
  23567393.551    -9266433.21149  -7203006.81245  23567393.074    23567400.578
  21236662.206   -25528944.54949 -19880743.02547  21236661.935    21236669.293
  21644392.220   -21663536.66049 -16308027.60347  21644392.229    21644399.359
  20808112.492   -25233898.51149 -19644274.13948  20808111.774    20808118.913
  23154733.476   -14484829.32449 -11262536.30246  23154733.292    23154740.961
  20588903.574   -25213436.43849 -19627464.21948  20588902.959    20588909.594
  21545677.358   -22172915.27449 -17263450.88847  21545676.548    21545684.013
  20964189.837   -26118046.06649 -19639264.61047  20964189.294    20964195.271
 03  2 28  0 41  0.0000000  0  8G16G 6G26G17G29G23G15G18
  23567862.479    -9263968.91549  -7201086.57045  23567861.999    23567869.491
  21249801.293   -25459898.15149 -19826940.66247  21249801.019    21249808.380
  21648564.407   -21641611.65549 -16290943.16647  21648564.401    21648571.509
  20805920.238   -25245418.72349 -19653250.89148  20805919.512    20805926.642
  23164362.446   -14434228.92849 -11223107.42646  23164362.226    23164369.910
  20591193.872   -25201400.62149 -19618085.63148  20591193.274    20591199.905
  21535564.148   -22226060.56649 -17304862.73847  21535563.310    21535570.735
  20955497.494   -26163724.42449 -19674858.06047  20955496.941    20955502.902
 03  2 28  0 41 30.0000000  0  8G16G 6G26G17G29G23G15G18
  23568430.524    -9260983.90149  -7198760.56745  23568430.026    23568437.536
  21263020.623   -25390430.21249 -19772809.82347  21263020.347    21263027.715
  21652860.595   -21619034.97249 -16273350.92547  21652860.596    21652867.689
  20803761.053   -25256764.97849 -19662092.09248  20803760.356    20803767.497
  23174082.967   -14383147.06749 -11183303.40146  23174082.796    23174090.493
  20593557.523   -25188979.43649 -19608406.75448  20593556.927    20593563.544
  21525476.883   -22279069.01849 -17346167.96347  21525476.063    21525483.486
  20946882.053   -26208998.55049 -19710136.52247  20946881.506    20946887.475
 03  2 28  0 42  0.0000000  0  8G16G 6G26G17G29G23G15G18
  23569097.437    -9257479.28649  -7196029.68445  23569096.944    23569104.352
  21276319.833   -25320542.46049 -19718351.85547  21276319.550    21276326.918
  21657280.637   -21595807.39949 -16255251.49747  21657280.627    21657287.762
  20801635.126   -25267936.57549 -19670797.19648  20801634.428    20801641.560
  23183894.891   -14331585.65449 -11143125.67246  23183894.714    23183902.314
  20595994.129   -25176174.72249 -19598429.02248  20595993.540    20596000.152
  21515415.750   -22331940.33449 -17387366.32247  21515414.958    21515422.363
  20938343.496   -26253868.71249 -19745100.20947  20938342.947    20938348.904
 03  2 28  0 42 30.0000000  0  8G16G 6G26G17G29G23G15G18
  23569863.174    -9253455.22049  -7192894.02345  23569862.714    23569870.111
  21289698.767   -25250235.83449 -19663567.49747  21289698.498    21289705.844
  21661824.503   -21571929.14949 -16236645.04147  21661824.481    21661831.578
  20799542.643   -25278932.57649 -19679365.47348  20799541.947    20799549.051
  23193797.810   -14279545.75049 -11102575.10046  23193797.608    23193805.153
  20598503.542   -25162987.59049 -19588153.30748  20598502.943    20598509.553
  21505380.855   -22384673.50749 -17428457.04547  21505380.095    21505387.501
  20929881.965   -26298334.00249 -19779748.41447  20929881.415    20929887.360
 03  2 28  0 43  0.0000000  0  8G16G 6G26G17G29G23G15G18
  23570727.536    -9248912.60149  -7189354.30345  23570727.095    23570734.498
  21303157.162   -25179511.59649 -19608457.73047  21303156.881    21303164.247
  21666492.103   -21547400.74749 -16217531.98147  21666492.090    21666499.187
  20797483.747   -25289752.15949 -19687796.28948  20797483.042    20797490.137
  23203791.542   -14227028.67249 -11061652.70046  23203791.310    23203798.811
  20601085.522   -25149419.00449 -19577580.35448  20601084.926    20601091.542
  21495372.389   -22437267.89849 -17469439.62247  21495371.624    21495379.060
  20921497.529   -26342394.11749 -19814080.90147  20921496.989    20921502.905
 03  2 28  0 43 30.0000000  0  9G16G 2G 6G26G17G29G23G15G18
  23571689.414    -9243858.12749  -7185415.74145  23571688.909    23571696.281
  25115320.263    -5588852.72549  -4341785.04745  25115319.336    25115328.705
  21316693.597   -25108377.21349 -19553028.36347  21316693.320    21316700.695
  21671282.141   -21522228.83449 -16197917.47347  21671282.153    21671289.217
  20795457.365   -25300400.75249 -19696093.85948  20795456.655    20795463.732
  23213874.502   -14174042.14849 -11020364.51046  23213874.319    23213881.856
  20603738.658   -25135476.69649 -19566716.18948  20603738.049    20603744.638
  21485389.336   -22489728.90749 -17510318.26947  21485388.595    21485395.995
  20913189.117   -26386054.99149 -19848102.29147  20913188.571    20913194.449
 03  2 28  0 44  0.0000000  0  9G16G 2G 6G26G17G29G23G15G18
  23572749.475    -9238287.73549  -7181075.15145  23572749.005    23572756.297
  25110468.028    -5614351.20549  -4361653.97745  25110467.215    25110476.466
  21330308.796   -25036828.92149 -19497276.47347  21330308.515    21330315.908
  21676195.502   -21496408.98149 -16177798.07247  21676195.492    21676202.543
  20793464.628   -25310872.61049 -19704253.72148  20793463.904    20793470.959
  23224047.505   -14120582.60049 -10978707.72646  23224047.286    23224054.882
  20606463.586   -25121157.04149 -19555557.98948  20606462.973    20606469.562
  21475432.823   -22542050.81149 -17551088.52147  21475432.068    21475439.409
  20904957.658   -26429311.46549 -19881808.56747  20904957.109    20904962.954
 03  2 28  0 44 30.0000000  0  9G16G 2G 6G26G17G29G23G15G18
  23573908.135    -9232199.16949  -7176330.80145  23573907.584    23573914.838
  25105696.228    -5639427.06749  -4381193.58445  25105695.469    25105704.644
  21344003.107   -24964865.03049 -19441200.73947  21344002.814    21344010.231
  21681232.560   -21469938.82449 -16157171.93947  21681232.545    21681239.609
  20791506.141   -25321164.37149 -19712273.24448  20791505.420    20791512.458
  23234310.808   -14066648.56249 -10936681.19346  23234310.631    23234318.180
  20609260.619   -25106458.48149 -19544104.53648  20609259.996    20609266.574
  21465503.474   -22594229.89449 -17591747.48947  21465502.682    21465509.987
  20896803.744   -26472160.24649 -19915197.15647  20896803.204    20896809.017
 03  2 28  0 45  0.0000000  0  9G16G 2G 6G26G17G29G23G15G18
  23575164.815    -9225594.87149  -7171184.59045  23575164.303    23575171.584
  25101004.685    -5664081.20249  -4400404.57645  25101003.917    25101013.119
  21357775.936   -24892488.36949 -19384803.37047  21357775.659    21357783.057
  21686393.018   -21442820.35049 -16136040.61647  21686392.993    21686400.083
  20789581.885   -25331276.41449 -19720152.73148  20789581.162    20789588.185
  23244663.770   -14012243.13449 -10894287.33346  23244663.584    23244671.202
  20612129.225   -25091383.72449 -19532357.94248  20612128.610    20612135.181
  21455601.048   -22646267.12749 -17632295.92047  21455600.267    21455607.555
  20888727.129   -26514602.76449 -19948269.17547  20888726.596    20888732.387
 03  2 28  0 45 30.0000000  0  9G16G 2G 6G26G17G29G23G15G18
  23576519.534    -9218475.75649  -7165637.20545  23576519.045    23576526.329
  25096393.391    -5688313.64149  -4419286.97045  25096392.489    25096401.622
  21371626.955   -24819700.77349 -19328085.78847  21371626.671    21371634.089
  21691676.602   -21415054.80749 -16114405.08447  21691676.555    21691683.652
  20787691.906   -25341208.24049 -19727891.78648  20787691.171    20787698.196
  23255106.101   -13957368.11949 -10851527.57046  23255105.905    23255113.559
  20615069.072   -25075934.57049 -19520319.61048  20615068.475    20615075.027
  21445725.764   -22698161.97949 -17672733.40747  21445724.954    21445732.238
  20880727.859   -26556639.02249 -19981024.62247  20880727.323    20880733.078
 03  2 28  0 46  0.0000000  0  9G16G 2G 6G26G17G29G23G15G18
  23577971.779    -9210843.96949  -7159690.34745  23577971.300    23577978.614
  25091862.160    -5712125.20649  -4437841.41845  25091861.126    25091870.315
  21385555.693   -24746504.75449 -19271049.95247  21385555.428    21385562.858
  21697082.948   -21386643.82749 -16092266.60447  21697082.942    21697090.055
  20785836.056   -25350960.60549 -19735491.00748  20785835.336    20785842.353
  23265637.278   -13902026.07249 -10808403.87646  23265637.065    23265644.792
  20618079.701   -25060113.52649 -19507991.48948  20618079.091    20618085.637
  21435877.465   -22749914.81649 -17713060.23147  21435876.661    21435883.959
  20872805.710   -26598269.80749 -20013464.12048  20872805.178    20872810.926
 03  2 28  0 46 30.0000000  0  9G16G 2G 6G26G17G29G23G15G18
  23579521.403    -9202700.90049  -7153345.08345  23579520.888    23579528.208
  25087411.006    -5735516.15849  -4456068.11745  25087409.987    25087419.182
  21399561.824   -24672902.18349 -19213697.32147  21399561.562    21399569.004
  21702611.923   -21357588.83549 -16069626.29747  21702611.895    21702619.025
  20784014.461   -25360533.07049 -19742950.04448  20784013.747    20784020.737
  23276256.874   -13846219.47449 -10764918.17846  23276256.653    23276264.457
  20621160.718   -25043922.54549 -19495375.10248  20621160.108    20621166.630
  21426056.171   -22801525.72549 -17753276.46347  21426055.381    21426062.643
  20864960.609   -26639495.69649 -20045588.12448  20864960.089    20864965.829
 03  2 28  0 47  0.0000000  0  9G16G 2G 6G26G17G29G23G15G18
  23581168.144    -9194046.86649  -7146601.65445  23581167.618    23581174.957
  25083039.906    -5758485.78649  -4473966.49545  25083039.044    25083048.023
  21413645.177   -24598893.83249 -19156028.49847  21413644.902    21413652.344
  21708263.415   -21327889.95249 -16046484.26147  21708263.362    21708270.470
  20782227.389   -25369924.20749 -19750267.78348  20782226.664    20782233.642
  23286964.764   -13789949.03249 -10721071.05846  23286964.520    23286972.325
  20624311.997   -25027362.34549 -19482471.01448  20624311.396    20624317.899
  21416262.186   -22852993.20449 -17793380.93147  21416261.401    21416268.636
  20857192.767   -26680315.77049 -20077395.90748  20857192.236    20857197.959
 03  2 28  0 47 30.0000000  0  9G16G 2G 6G26G17G29G23G15G18
  23582911.965    -9184882.92449  -7139460.91345  23582911.490    23582918.870
  25078749.079    -5781033.69649  -4491536.26645  25078748.314    25078757.535
  21427805.460   -24524481.27849 -19098044.71947  21427805.179    21427812.611
  21714037.308   -21297548.02749 -16022841.15647  21714037.255    21714044.296
  20780474.796   -25379133.95949 -19757444.19348  20780474.087    20780481.049
  23297760.646   -13733216.38149 -10676863.77446  23297760.416    23297768.115
  20627533.253   -25010434.46449 -19469280.42648  20627532.646    20627539.161
  21406495.630   -22904316.54749 -17833373.08947  21406494.852    21406502.057
  20849502.131   -26720729.98449 -20108887.44548  20849501.600    20849507.312
 03  2 28  0 48  0.0000000  0  9G16G 2G 6G26G17G29G23G15G18
  23584752.319    -9175211.63149  -7131924.81745  23584751.906    23584759.278
  25074538.353    -5803161.23949  -4508778.47345  25074537.559    25074546.726
  21442042.056   -24449667.53349 -19039748.32447  21442041.763    21442049.191
  21719933.052   -21266565.53349 -15998698.89647  21719932.993    21719940.004
  20778756.674   -25388162.62149 -19764479.48948  20778755.967    20778762.924
  23308643.890   -13676024.85549 -10632298.90646  23308643.632    23308651.339
  20630823.851   -24993141.96449 -19455805.71248  20630823.258    20630829.770
  21396756.326   -22955496.68849 -17873253.65747  21396755.564    21396762.730
  20841888.424   -26760739.96249 -20140063.99048  20841887.901    20841893.620
 03  2 28  0 48 30.0000000  0  9G16G 2G 6G26G17G29G23G15G18
  23586689.187    -9165033.30649  -7123993.65345  23586688.765    23586696.181
  25070407.849    -5824867.32949  -4525692.30045  25070407.018    25070416.190
  21456354.865   -24374453.41949 -18981139.94547  21456354.585    21456362.027
  21725950.633   -21234942.62049 -15974057.61947  21725950.577    21725957.590
  20777073.312   -25397008.56449 -19771372.40648  20777072.632    20777079.580
  23319614.175   -13618375.43449 -10587377.24246  23319613.937    23319621.614
  20634183.696   -24975485.64549 -19442047.50348  20634183.102    20634189.615
  21387044.551   -23006532.34349 -17913021.64147  21387043.768    21387050.900
  20834351.828   -26800344.83349 -20170924.86648  20834351.289    20834356.990
 03  2 28  0 49  0.0000000  0  9G16G 2G 6G26G17G29G23G15G18
  23588722.332    -9154349.27949  -7115668.42445  23588721.897    23588729.204
  25066357.356    -5846152.24349  -4542277.92745  25066356.473    25066365.818
  21470743.471   -24298840.72649 -18922220.98547  21470743.214    21470750.645
  21732089.841   -21202680.55149 -15948918.29147  21732089.797    21732096.823
  20775424.779   -25405671.59649 -19778122.79148  20775424.073    20775431.031
  23330671.185   -13560270.16849 -10542100.38246  23330671.002    23330678.617
  20637612.455   -24957467.31649 -19428007.20848  20637611.869    20637618.366
  21377360.319   -23057423.20449 -17952676.79647  21377359.522    21377366.658
  20826892.333   -26839544.51149 -20201470.00348  20826891.793    20826897.475
 03  2 28  0 49 30.0000000  0  9G16G 2G 6G26G17G29G23G15G18
  23590851.488    -9143160.38249  -7106949.78245  23590851.064    23590858.411
  25062387.162    -5867015.57749  -4558535.04645  25062386.302    25062395.871
  21485207.730   -24222830.76649 -18862992.46847  21485207.441    21485214.898
  21738350.544   -21169780.03349 -15923281.48247  21738350.473    21738357.521
  20773811.264   -25414150.64349 -19784729.81248  20773810.540    20773817.504
  23341814.699   -13501710.55549 -10496469.47346  23341814.478    23341822.116
  20641109.835   -24939088.37749 -19413685.92348  20641109.247    20641115.725
  21367703.859   -23108168.07749 -17992218.19347  21367703.057    21367710.171
  20819509.910   -26878339.20349 -20231699.56948  20819509.364    20819515.038
 03  2 28  0 50  0.0000000  0  9G16G 2G 6G26G17G29G23G15G18
  23593076.331    -9131468.33149  -7097839.09345  23593075.924    23593083.358
  25058497.230    -5887457.78949  -4574464.01645  25058496.404    25058505.707
  21499747.128   -24146425.74449 -18803456.11247  21499746.835    21499754.315
  21744732.482   -21136242.66949 -15897148.43047  21744732.395    21744739.421
  20772232.739   -25422445.69749 -19791193.46048  20772232.023    20772238.988
  23353044.226   -13442698.72949 -10450486.20946  23353044.054    23353051.724
  20644675.452   -24920350.78249 -19399085.16448  20644674.849    20644681.327
  21358075.127   -23158767.09649 -18031645.93847  21358074.343    21358081.442
  20812204.420   -26916729.56049 -20261614.07648  20812203.881    20812209.532
 03  2 28  0 50 30.0000000  0  9G16G 2G 6G26G17G29G23G15G18
  23595396.871    -9119273.97449  -7088336.98045  23595396.477    23595403.878
  25054687.445    -5907478.22949  -4590064.34345  25054686.632    25054695.952
  21514361.479   -24069626.76949 -18743612.77647  21514361.228    21514368.686
  21751235.431   -21102069.02949 -15870519.57347  21751235.353    21751242.385
  20770689.398   -25430555.79349 -19797512.98248  20770688.691    20770695.651
  23364359.654   -13383236.34249 -10404151.85346  23364359.420    23364367.029
  20648309.103   -24901255.69549 -19384205.83848  20648308.494    20648314.976
  21348474.403   -23209219.03949 -18070959.08147  21348473.599    21348480.692
  20804976.035   -26954714.79649 -20291212.90448  20804975.505    20804981.126
 03  2 28  0 51  0.0000000  0  9G16G 2G 6G26G17G29G23G15G18
  23597812.723    -9106578.78649  -7078444.61745  23597812.265    23597819.673
  25050957.816    -5927077.46049  -4605336.44245  25050957.034    25050966.356
  21529050.457   -23992435.90149 -18683464.07547  21529050.209    21529057.655
  21757859.153   -21067260.58849 -15843396.07047  21757859.127    21757866.145
  20769181.378   -25438480.48149 -19803688.02848  20769180.675    20769187.607
  23375760.314   -13323325.33649 -10357467.91646  23375760.128    23375767.666
  20652010.418   -24881804.95649 -19369049.37948  20652009.811    20652016.291
  21338901.680   -23259523.65449 -18110157.42147  21338900.886    21338907.969
  20797824.559   -26992295.73849 -20320496.69248  20797824.036    20797829.637
 03  2 28  0 51 30.0000000  0  9G16G 2G 6G26G17G29G23G15G18
  23600323.610    -9093383.79549  -7068162.80145  23600323.156    23600330.580
  25047308.338    -5946255.34849  -4620280.23145  25047307.570    25047316.852
  21543813.689   -23914854.67149 -18623011.19147  21543813.438    21543820.905
  21764603.537   -21031818.61049 -15815778.90447  21764603.498    21764610.507
  20767708.793   -25446218.90249 -19809717.94148  20767708.085    20767715.007
  23387245.952   -13262967.68849 -10310435.95446  23387245.717    23387253.293
  20655779.122   -24862000.05749 -19353616.96148  20655778.512    20655784.981
  21329357.156   -23309680.20649 -18149240.40047  21329356.384    21329363.409
  20790750.080   -27029472.26349 -20349465.35448  20790749.544    20790755.131
 03  2 28  0 52  0.0000000  0  9G16G 2G 6G26G17G29G23G15G18
  23602929.349    -9079690.39949  -7057492.62345  23602928.913    23602936.364
  25043739.028    -5965011.86649  -4634895.67245  25043738.361    25043747.612
  21558650.858   -23836884.84949 -18562255.51847  21558650.617    21558658.050
  21771468.271   -20995744.07849 -15787668.84247  21771468.216    21771475.202
  20766271.710   -25453770.71149 -19815602.43948  20766271.010    20766277.913
  23398816.239   -13202165.05249 -10263057.25046  23398816.067    23398823.617
  20659614.899   -24841842.78049 -19337909.96048  20659614.297    20659620.754
  21319840.961   -23359687.97549 -18188207.44047  21319840.172    21319847.154
  20783752.425   -27066244.75749 -20378119.18248  20783751.908    20783757.478
 03  2 28  0 52 30.0000000  0  9G16G 2G 6G26G17G29G23G15G18
  23605629.730    -9065499.56749  -7046434.83145  23605629.363    23605636.786
  25040250.080    -5983346.61849  -4649182.47345  25040249.206    25040258.528
  21573561.715   -23758527.87849 -18501198.16447  21573561.454    21573568.907
  21778453.211   -20959037.99049 -15759066.66247  21778453.170    21778460.113
  20764870.299   -25461134.83449 -19821340.68748  20764869.600    20764876.508
  23410470.869   -13140919.22149 -10215333.18246  23410470.729    23410478.289
  20663517.482   -24821334.39249 -19321929.36948  20663516.875    20663523.322
  21310353.235   -23409546.21849 -18227057.96747  21310352.440    21310359.423
  20776831.778   -27102612.75449 -20406457.82148  20776831.259    20776836.821
 03  2 28  0 53  0.0000000  0  9G16G 2G 6G26G17G29G23G15G18
  23608424.417    -9050813.37649  -7034991.05145  23608424.018    23608431.529
  25036841.146    -6001260.50049  -4663141.31545  25036840.325    25036849.664
  21588545.772   -23679786.12949 -18439840.98147  21588545.521    21588553.000
  21785557.893   -20921702.37149 -15729973.94047  21785557.852    21785564.742
  20763504.705   -25468311.02949 -19826932.50548  20763504.015    20763510.921
  23422209.431   -13079232.85349 -10167265.84646  23422209.182    23422216.807
  20667486.464   -24800477.27149 -19305677.03548  20667485.857    20667492.280
  21300893.909   -23459254.95649 -18265791.99947  21300893.119    21300900.121
  20769987.936   -27138577.02049 -20434481.87248  20769987.417    20769992.977
 03  2 28  0 53 30.0000000  0  9G16G 2G 6G26G17G29G23G15G18
  23611313.232    -9035632.82249  -7023162.02845  23611312.729    23611320.259
  25033512.387    -6018753.24849  -4676771.99945  25033511.520    25033520.912
  21603602.772   -23600661.15149 -18378185.17947  21603602.497    21603610.019
  21792782.243   -20883738.13949 -15700391.39246  21792782.231    21792789.074
  20762175.047   -25475298.35649 -19832377.14648  20762174.346    20762181.261
  23434031.452   -13017107.37749 -10118856.34346  23434031.258    23434038.873
  20671521.505   -24779272.83749 -19289154.06748  20671520.904    20671527.317
  21291463.254   -23508813.13749 -18304408.71347  21291462.477    21291469.462
  20763220.990   -27174137.37049 -20462191.18448  20763220.462    20763226.014
 03  2 28  0 54  0.0000000  0  9G16G 2G 6G26G17G29G23G15G18
  23614295.864    -9019958.98649  -7010948.64445  23614295.344    23614302.887
  25030263.773    -6035824.74949  -4690074.45445  25030262.998    25030272.097
  21618732.443   -23521154.33049 -18316231.83647  21618732.163    21618739.686
  21800125.958   -20845146.39949 -15670319.88147  21800125.937    21800132.808
  20760881.447   -25482096.08049 -19837674.04648  20760880.761    20760887.683
  23445936.755   -12954544.54949 -10070106.03946  23445936.526    23445944.117
  20675622.406   -24757722.31949 -19272361.42548  20675621.805    20675628.210
  21282061.411   -23558219.82249 -18342907.37647  21282060.636    21282067.626
  20756530.861   -27209293.83949 -20489585.78248  20756530.333    20756535.879
 03  2 28  0 54 30.0000000  0  9G16G 2G 6G26G17G29G23G15G18
  23617371.940    -9003794.04949  -6998352.59245  23617371.414    23617378.937
  25027095.153    -6052475.77349  -4703049.25145  25027094.283    25027103.366
  21633934.270   -23441267.99149 -18253982.76547  21633934.009    21633941.559
  21807588.803   -20805929.00049 -15639760.83847  21807588.771    21807595.616
  20759623.961   -25488703.97749 -19842823.03048  20759623.272    20759630.187
  23457924.724   -12891547.07049 -10021017.04246  23457924.437    23457932.041
  20679788.707   -24735828.10349 -19255300.96848  20679788.101    20679794.509
  21272688.426   -23607475.02149 -18381288.00347  21272687.655    21272694.643
  20749917.491   -27244047.07149 -20516666.17048  20749916.972    20749922.517
 03  2 28  0 55  0.0000000  0  9G16G 2G 6G26G17G29G23G15G18
  23620541.286    -8987138.71849  -6985374.41445  23620540.750    23620548.207
  25024006.566    -6068705.80149  -4715696.01845  25024005.822    25024014.868
  21649208.134   -23361003.31849 -18191438.89347  21649207.865    21649215.446
  21815170.536   -20766086.87749 -15608714.99347  21815170.462    21815177.301
  20758402.955   -25495120.46949 -19847822.86648  20758402.247    20758409.160
  23469995.162   -12828116.12349  -9971590.27946  23469994.901    23470002.566
  20684020.232   -24713591.24049 -19237973.51448  20684019.631    20684026.016
  21263344.503   -23656577.51549 -18419549.64147  21263343.733    21263350.674
  20743380.944   -27278396.72749 -20543432.08148  20743380.417    20743385.947
 03  2 28  0 55 30.0000000  0  9G16G 2G 6G26G17G29G23G15G18
  23623803.798    -8969994.00549  -6972014.89445  23623803.321    23623810.714
  25020998.310    -6084514.63649  -4728014.57445  25020997.463    25021006.665
  21664553.770   -23280361.73949 -18128601.31847  21664553.502    21664561.064
  21822870.925   -20725620.82449 -15577182.96847  21822870.891    21822877.692
  20757218.432   -25501345.01149 -19852673.13448  20757217.717    20757224.624
  23482147.782   -12764253.35449  -9921827.03946  23482147.527    23482155.240
  20688316.716   -24691012.95749 -19220380.01648  20688316.097    20688322.499
  21254029.918   -23705525.94349 -18457691.22147  21254029.132    21254036.044
  20736921.208   -27312342.68849 -20569883.41948  20736920.679    20736926.187
 03  2 28  0 56  0.0000000  0  9G16G 2G 6G26G17G29G23G15G18
  23627158.813    -8952362.71749  -6958276.24245  23627158.369    23627165.883
  25018069.842    -6099903.63549  -4740006.00545  25018068.982    25018078.182
  21679970.466   -23199346.46549 -18065472.55947  21679970.199    21679977.765
  21830689.471   -20684533.79249 -15545167.07446  21830689.438    21830696.282
  20756070.408   -25507377.76949 -19857373.96148  20756069.702    20756076.602
  23494382.021   -12699962.13249  -9871729.93346  23494381.758    23494389.373
  20692677.576   -24668096.33449 -19202522.88548  20692676.968    20692683.357
  21244744.403   -23754321.28149 -18495713.52147  21244743.630    21244750.536
  20730537.943   -27345886.68549 -20596021.53948  20730537.418    20730542.908
 03  2 28  0 56 30.0000000  0  9G16G 2G 6G26G17G29G23G15G18
  23630606.509    -8934245.12249  -6944158.63645  23630606.011    23630613.575
  25015221.420    -6114871.87349  -4751669.57545  25015220.762    25015229.685
  21695458.225   -23117957.99949 -18002052.99447  21695457.967    21695465.518
  21838626.244   -20642825.65449 -15512667.19846  21838626.194    21838633.031
  20754959.175   -25513217.16049 -19861924.10848  20754958.481    20754965.364
  23506697.697   -12635243.07449  -9821299.44746  23506697.392    23506704.972
  20697102.776   -24644841.74549 -19184402.39948  20697102.154    20697108.536
  21235488.468   -23802961.48349 -18533614.92447  21235487.708    21235494.580
  20724231.436   -27379027.37049 -20621845.39248  20724230.924    20724236.403
 03  2 28  0 57  0.0000000  0  9G16G 2G 6G26G17G29G23G15G18
  23634146.229    -8915643.39849  -6929663.79645  23634145.741    23634153.321
  25012452.932    -6129420.46949  -4763006.14045  25012452.240    25012461.148
  21711016.467   -23036199.01349 -17938344.71547  21711016.206    21711023.767
  21846680.724   -20600499.12649 -15479685.46046  21846680.658    21846687.501
  20753884.813   -25518863.10149 -19866323.51748  20753884.105    20753890.963
  23519094.118   -12570099.15249  -9770537.90346  23519093.830    23519101.373
  20701591.753   -24621251.74249 -19166020.55648  20701591.157    20701597.534
  21226261.980   -23851446.74849 -18571395.60247  21226261.205    21226268.088
  20718001.378   -27411766.22949 -20647356.13548  20718000.867    20718006.335
 03  2 28  0 57 30.0000000  0  9G16G 2G 6G26G17G29G23G15G18
  23637777.756    -8896559.23449  -6914793.02245  23637777.237    23637784.946
  25009764.326    -6143549.55149  -4774015.80745  25009763.512    25009772.377
  21726644.846   -22954071.53049 -17874349.30147  21726644.587    21726652.133
  21854852.611   -20557555.50449 -15446222.86746  21854852.550    21854859.379
  20752847.310   -25524315.06349 -19870571.77348  20752846.603    20752853.455
  23531570.965   -12504532.58649  -9719447.05646  23531570.712    23531578.239
  20706144.264   -24597328.01649 -19147378.67248  20706143.655    20706150.055
  21217065.106   -23899776.34749 -18609054.98447  21217064.342    21217071.196
  20711847.752   -27444103.60449 -20672554.03948  20711847.227    20711852.683
 03  2 28  0 58  0.0000000  0  9G16G 2G 6G26G17G29G23G15G18
  23641501.049    -8876993.44149  -6899546.96245  23641500.450    23641508.242
  25007155.565    -6157258.74349  -4784698.25745  25007154.687    25007163.872
  21742343.112   -22871576.51449 -17810067.49247  21742342.859    21742350.435
  21863141.721   -20513995.71749 -15412280.15046  21863141.682    21863148.492
  20751846.976   -25529571.69549 -19874667.81948  20751846.276    20751853.122
  23544128.055   -12438544.57549  -9668027.80746  23544127.830    23544135.303
  20710760.053   -24573071.67949 -19128477.60548  20710759.450    20710765.838
  21207898.158   -23947948.94549 -18646592.01747  21207897.378    21207904.229
  20705770.671   -27476038.66949 -20697438.44648  20705770.164    20705775.600
 03  2 28  0 58 30.0000000  0  9G16G 2G 6G26G17G29G23G15G18
  23645315.523    -8856948.29849  -6883927.37745  23645314.919    23645322.663
  25004626.474    -6170549.00649  -4795054.30845  25004625.598    25004634.920
  21758110.864   -22788716.49649 -17745501.25947  21758110.633    21758118.204
  21871547.670   -20469821.97949 -15377859.02446  21871547.643    21871554.453
  20750883.906   -25534632.67449 -19878611.40948  20750883.203    20750890.025
  23556764.789   -12372137.97549  -9616282.38246  23556764.591    23556772.053
  20715438.693   -24548485.17649 -19109319.26948  20715438.101    20715444.487
  21198761.057   -23995964.42349 -18684006.62547  21198760.264    21198767.113
  20699769.903   -27507572.57349 -20722010.26448  20699769.398    20699774.825
 03  2 28  0 59  0.0000000  0  9G16G 2G 6G26G17G29G23G15G18
  23649220.952    -8836424.69749  -6867934.97145  23649220.425    23649228.092
  25002177.157    -6183420.01249  -4805083.64045  25002176.344    25002185.628
  21773947.854   -22705492.80449 -17680651.65647  21773947.600    21773955.181
  21880070.288   -20425035.25449 -15342960.25246  21880070.263    21880077.089
  20749958.262   -25539496.74649 -19882401.56648  20749957.563    20749964.385
  23569480.854   -12305314.22049  -9564211.91346  23569480.698    23569488.203
  20720179.964   -24523569.44549 -19089904.39248  20720179.358    20720185.764
  21189654.125   -24043821.45049 -18721297.76147  21189653.328    21189660.191
  20693845.589   -27538704.99049 -20746269.23548  20693845.079    20693850.484
 03  2 28  0 59 30.0000000  0  9G16G 2G 6G26G17G29G23G15G18
  23653217.105    -8815424.77949  -6851571.41345  23653216.659    23653224.329
  24999807.579    -6195872.26849  -4814786.68645  24999806.814    24999816.065
  21789853.590   -22621907.62649 -17615520.37547  21789853.309    21789860.911
  21888709.170   -20379637.42749 -15307585.29746  21888709.152    21888715.979
  20749070.175   -25544163.59749 -19886038.04348  20749069.478    20749076.293
  23582275.877   -12238075.53349  -9511818.12846  23582275.810    23582283.244
  20724983.533   -24498326.46749 -19070234.52048  20724982.933    20724989.325
  21180577.426   -24091519.55749 -18758465.06547  21180576.652    21180583.494
  20687997.522   -27569436.58949 -20770215.88348  20687996.998    20688002.378
 03  2 28  1  0  0.0000000  0  9G16G 2G 6G26G17G29G23G15G18
  23657303.585    -8793949.96949  -6834837.81745  23657303.210    23657310.797
  24997517.554    -6207906.27649  -4824163.83945  24997516.759    24997525.937
  21805827.726   -22537962.95149 -17550108.96247  21805827.460    21805835.077
  21897464.018   -20333630.19349 -15271735.48946  21897463.991    21897470.819
  20748219.725   -25548632.59249 -19889520.34648  20748219.027    20748225.821
  23595149.570   -12170424.00849  -9459102.64046  23595149.408    23595156.847
  20729849.062   -24472757.91549 -19050310.94848  20729848.455    20729854.847
  21171531.095   -24139058.12149 -18795508.05047  21171530.335    21171537.156
  20682225.642   -27599767.74549 -20793850.49748  20682225.104    20682230.493
 03  2 28  1  0 30.0000000  0 10G16G 2G 6G26G17G29G23G 3G15G18
  23661479.697    -8772004.45949  -6817737.44045  23661479.288    23661486.916
  24995306.515    -6219524.83949  -4833217.25045  24995305.819    24995314.871
  21821869.436   -22453663.42449 -17484421.05047  21821869.164    21821876.808
  21906333.988   -20287017.82249 -15235414.14246  21906334.001    21906340.829
  20747406.636   -25552905.29249 -19892849.68648  20747405.930    20747412.715
  23608100.825   -12102364.51849  -9406069.27446  23608100.712    23608108.090
  20734775.713   -24446868.17849 -19030137.10748  20734775.104    20734781.473
  24577984.642    -3034837.53949  -2028366.85845  24577984.265    24577992.395
  21162514.778   -24186439.02449 -18832428.18647  21162514.007    21162520.825
  20676529.455   -27629701.24649 -20817175.25448  20676528.937    20676534.298
 03  2 28  1  1  0.0000000  0 10G16G 2G 6G26G17G29G23G 3G15G18
  23665745.833    -8749586.28249  -6800268.74745  23665745.405    23665752.939
  24993175.192    -6230724.66149  -4841944.37745  24993174.466    24993183.706
  21837979.001   -22369007.22049 -17418455.20547  21837978.742    21837986.398
  21915319.535   -20239798.28249 -15198619.67546  21915319.530    21915326.425
  20746631.694   -25556977.48949 -19896022.79048  20746630.986    20746637.763
  23621130.075   -12033895.35049  -9352716.67546  23621129.972    23621137.377
  20739763.835   -24420655.39949 -19009711.53848  20739763.211    20739769.580
  24559073.924    -3134214.04949  -2105803.03845  24559073.468    24559081.390
  21153529.324   -24233657.66449 -18869221.87947  21153528.557    21153535.373
  20670909.459   -27659234.33249 -20840188.00448  20670908.938    20670914.283
 03  2 28  1  1 30.0000000  0 10G16G 2G 6G26G17G29G23G 3G15G18
  23670101.355    -8726697.95749  -6782433.71045  23670100.920    23670108.525
  24991123.408    -6241506.91149  -4850346.11845  24991122.646    24991132.030
  21854155.915   -22283996.99149 -17352213.49947  21854155.663    21854163.323
  21924420.218   -20191974.01349 -15161353.98746  21924420.210    21924427.082
  20745894.864   -25560849.41349 -19899039.83748  20745894.156    20745900.949
  23634236.671   -11965019.70049  -9299047.34546  23634236.509    23634243.918
  20744812.937   -24394122.13949 -18989036.24648  20744812.325    20744818.679
  24540193.307    -3233432.29649  -2183115.92845  24540192.898    24540200.629
  21144574.694   -24280714.25849 -18905889.30247  21144573.936    21144580.740
  20665365.559   -27688367.60249 -20862889.20248  20665365.036    20665370.369
 03  2 28  1  2  0.0000000  0 10G16G 2G 6G26G17G29G23G 3G15G18
  23674546.057    -8703340.69249  -6764233.25145  23674545.593    23674553.289
  24989151.029    -6251871.48549  -4858422.41445  24989150.320    24989159.648
  21870399.917   -22198634.34449 -17285697.18247  21870399.657    21870407.324
  21933635.655   -20143546.41449 -15123618.16646  21933635.610    21933642.527
  20745196.429   -25564519.65749 -19901899.73448  20745195.720    20745202.504
  23647420.324   -11895738.97149  -9245062.37146  23647420.222    23647427.611
  20749922.801   -24367269.53149 -18968112.11048  20749922.198    20749928.536
  24521343.286    -3332489.77349  -2260303.49945  24521342.857    24521350.532
  21135651.141   -24327607.73549 -18942429.62047  21135650.344    21135657.145
  20659897.679   -27717101.25849 -20885279.01548  20659897.161    20659902.490
 03  2 28  1  2 30.0000000  0 10G16G 2G 6G26G17G29G23G 3G15G18
  23679079.686    -8679516.53049  -6745668.97845  23679079.274    23679086.933
  24987258.078    -6261818.95049  -4866173.68445  24987257.412    24987266.476
  21886710.615   -22112921.26649 -17218907.80247  21886710.356    21886718.044
  21942965.548   -20094517.30549 -15085413.63746  21942965.531    21942972.429
  20744536.552   -25567987.31449 -19904601.76948  20744535.827    20744542.595
  23660680.572   -11826055.50349  -9190763.57045  23660680.442    23660687.949
  20755093.105   -24340099.23049 -18946940.41948  20755092.499    20755098.847
  24502524.402    -3431383.64749  -2337363.60445  24502523.965    24502531.315
  21126758.764   -24374337.27449 -18978842.19647  21126757.970    21126764.761
  20654505.772   -27745435.64949 -20907357.70948  20654505.264    20654510.563
 03  2 28  1  3  0.0000000  0 10G16G 2G 6G26G17G29G23G 3G15G18
  23683701.685    -8655228.18749  -6726743.01245  23683701.265    23683708.878
  24985444.239    -6271350.86449  -4873601.11245  24985443.577    24985452.639
  21903087.408   -22026860.80149 -17151847.73347  21903087.148    21903094.835
  21952409.386   -20044889.58049 -15046742.64046  21952409.334    21952416.252
  20743915.054   -25571253.06749 -19907146.48148  20743914.337    20743921.093
  23674016.808   -11755972.64749  -9136153.54545  23674016.749    23674024.228
  20760323.285   -24312614.23549 -18925523.50348  20760322.698    20760329.047
  24483736.768    -3530112.95149  -2414295.46345  24483736.412    24483743.704
  21117897.531   -24420903.20949 -19015127.28247  21117896.734    21117903.534
  20649189.592   -27773372.20149 -20929126.40248  20649189.064    20649194.361
 03  2 28  1  3 30.0000000  0 10G16G 2G 6G26G17G29G23G 3G15G18
  23688412.165    -8630474.78449  -6707454.66945  23688411.744    23688419.290
  24983709.906    -6280465.28649  -4880703.26645  24983709.378    24983718.293
  21919530.367   -21940452.50949 -17084516.62947  21919530.095    21919537.812
  21961967.238   -19994662.50649 -15007604.63046  21961967.167    21961974.088
  20743332.628   -25574313.64949 -19909531.31948  20743331.900    20743338.689
  23687429.205   -11685490.01049  -9081231.99645  23687429.134    23687436.604
  20765613.487   -24284814.00349 -18903860.94948  20765612.905    20765619.237
  24464981.354    -3628672.81349  -2491095.25745  24464980.827    24464988.403
  21109068.051   -24467302.27049 -19051282.33747  21109067.237    21109074.043
  20643949.508   -27800908.79849 -20950583.43548  20643948.972    20643954.254
 03  2 28  1  4  0.0000000  0 10G16G 2G 6G26G17G29G23G 3G15G18
  23693210.224    -8605260.72249  -6687807.36045  23693209.842    23693217.424
  24982054.474    -6289165.31949  -4887482.53645  24982053.794    24982062.607
  21936038.623   -21853700.90549 -17016918.01247  21936038.357    21936046.089
  21971638.323   -19943840.67149 -14968003.16746  21971638.291    21971645.116
  20742788.847   -25577170.95949 -19911757.76748  20742788.147    20742794.939
  23700916.865   -11614612.58049  -9026002.81445  23700916.667    23700924.081
  20770962.869   -24256702.85749 -18881956.12548  20770962.262    20770968.588
  24446258.123    -3727063.30849  -2567763.07245  24446257.618    24446265.335
  21100269.926   -24513536.41549 -19087308.89347  21100269.138    21100275.907
  20638784.928   -27828048.71549 -20971731.37448  20638784.397    20638789.662
 03  2 28  1  4 30.0000000  0 10G16G 2G 6G26G17G29G23G 3G15G18
  23698095.644    -8579587.63649  -6667802.37945  23698095.250    23698102.903
  24980477.678    -6297450.93949  -4893938.85445  24980477.036    24980485.862
  21952611.950   -21766607.55749 -16949053.10447  21952611.683    21952619.400
  21981422.280   -19892425.40249 -14927939.28446  21981422.238    21981429.101
  20742284.040   -25579823.66749 -19913824.79048  20742283.326    20742290.120
  23714479.237   -11543341.87849  -8970467.16945  23714479.078    23714486.467
  20776371.165   -24228281.99949 -18859809.96548  20776370.548    20776376.861
  24427567.718    -3825281.52549  -2644296.64845  24427567.237    24427575.025
  21091503.428   -24559604.38149 -19123205.95547  21091502.647    21091509.426
  20633695.821   -27854791.99349 -20992570.23748  20633695.290    20633700.527
 03  2 28  1  5  0.0000000  0 10G16G 2G 6G26G17G29G23G 3G15G18
  23703068.151    -8553457.11049  -6647440.94845  23703067.767    23703075.421
  24978979.809    -6305322.58449  -4900072.59845  24978979.092    24978987.980
  21969249.929   -21679174.63449 -16880923.58647  21969249.655    21969257.351
  21991318.762   -19840418.60949 -14887414.47246  21991318.767    21991325.608
  20741818.341   -25582270.84649 -19915731.66148  20741817.628    20741824.413
  23728116.052   -11471680.10949  -8914626.80045  23728115.887    23728123.207
  20781838.014   -24199553.33949 -18837423.96048  20781837.413    20781843.697
  24408910.414    -3923325.11049  -2720694.12945  24408909.964    24408917.961
  21082768.656   -24605505.57749 -19158973.07247  21082767.903    21082774.666
  20628682.053   -27881139.19649 -21013100.46948  20628681.511    20628686.746
 03  2 28  1  5 30.0000000  0 10G16G 2G 6G26G17G29G23G 3G15G18
  23708127.286    -8526871.04549  -6626724.54045  23708126.895    23708134.617
  24977560.666    -6312780.84349  -4905884.22845  24977559.875    24977568.719
  21985952.097   -21591404.18749 -16812531.07447  21985951.832    21985959.553
  22001327.518   -19787822.20949 -14846430.23246  22001327.518    22001334.348
  20741391.841   -25584511.97449 -19917477.97448  20741391.124    20741397.907
  23741826.789   -11399629.79449  -8858483.66145  23741826.525    23741833.864
  20787363.125   -24170518.61349 -18814799.46148  20787362.509    20787368.776
  24390286.923    -4021191.56749  -2796953.59745  24390286.396    24390294.570
  21074065.888   -24651238.86949 -19194609.35447  21074065.128    21074071.861
  20623743.598   -27907090.69849 -21033322.36048  20623743.060    20623748.292
 03  2 28  1  6  0.0000000  0 10G16G 2G 6G26G17G29G23G 3G15G18
  23713272.808    -8499831.22649  -6605654.56545  23713272.433    23713280.096
  24976220.029    -6319825.95449  -4911373.91145  24976219.344    24976228.035
  22002718.166   -21503298.09049 -16743877.00647  22002717.915    22002725.602
  22011448.165   -19734637.95749 -14804987.92146  22011448.141    22011454.926
  20741004.788   -25586545.94349 -19919062.85748  20741004.072    20741010.842
  23755611.093   -11327192.68449  -8802039.11545  23755610.813    23755618.174
  20792946.190   -24141179.17949 -18791937.52748  20792945.583    20792951.858
  24371697.580    -4118878.37849  -2873073.05745  24371697.156    24371705.279
  21065395.228   -24696803.28949 -19230114.04347  21065394.461    21065401.186
  20618880.360   -27932646.87449 -21053236.20148  20618879.837    20618885.042
 03  2 28  1  6 30.0000000  0 10G16G 2G 6G26G17G29G23G 3G15G18
  23718504.441    -8472339.22749  -6584232.22945  23718503.942    23718511.688
  24974957.917    -6326458.41149  -4916542.04145  24974957.197    24974965.997
  22019547.779   -21414858.15049 -16674962.80647  22019547.534    22019555.174
  22021680.350   -19680867.45449 -14763088.80046  22021680.308    22021687.047
  20740657.309   -25588371.82249 -19920485.59948  20740656.602    20740663.345
  23769468.619   -11254370.76449  -8745294.72445  23769468.349    23769475.682
  20798586.959   -24111536.61749 -18768839.39348  20798586.348    20798592.620
  24353143.011    -4216382.80549  -2949050.40745  24353142.531    24353150.842
  21056756.871   -24742197.95349 -19265486.46047  21056756.101    21056762.804
  20614092.303   -27957807.97349 -21072842.19348  20614091.771    20614096.990
 03  2 28  1  7  0.0000000  0 10G16G 2G 6G26G17G29G23G 3G15G18
  23723821.558    -8444397.44849  -6562459.42745  23723821.000    23723828.888
  24973774.077    -6332679.28249  -4921389.47345  24973773.327    24973782.339
  22036440.402   -21326086.89849 -16605790.43747  22036440.170    22036447.803
  22032023.544   -19626513.26549 -14720734.86746  22032023.528    22032030.305
  20740349.534   -25589989.10949 -19921745.80348  20740348.835    20740355.560
  23783398.934   -11181166.71349  -8688252.56945  23783398.556    23783405.920
  20804284.906   -24081593.36649 -18745506.95748  20804284.304    20804290.582
  24334623.465    -4313703.10649  -3024884.26745  24334623.011    24334631.273
  21048150.885   -24787422.58649 -19300726.39047  21048150.109    21048156.794
  20609379.275   -27982574.90949 -21092141.05348  20609378.754    20609383.965
 03  2 28  1  7 30.0000000  0 10G16G 2G 6G26G17G29G23G 3G15G18
  23729224.129    -8416007.20249  -6540337.16945  23729223.531    23729231.353
  24972668.621    -6338488.46349  -4925916.09345  24972667.921    24972676.972
  22053395.769   -21236985.84949 -16536361.08247  22053395.552    22053403.184
  22042477.565   -19571576.97749 -14677927.35346  22042477.550    22042484.281
  20740081.721   -25591396.39349 -19922842.36848  20740081.021    20740087.769
  23797401.536   -11107582.57049  -8630914.22345  23797401.172    23797408.435
  20810039.906   -24051350.54349 -18721941.09248  20810039.319    20810045.559
  24316139.655    -4410836.21849  -3100572.28845  24316139.128    24316147.400
  21039577.509   -24832475.81349 -19335832.75547  21039576.724    21039583.408
  20604741.281   -28006947.52949 -21111132.65248  20604740.755    20604745.942
 03  2 28  1  8  0.0000000  0 10G16G 2G 6G26G17G29G23G 3G15G18
  23734711.534    -8387170.75949  -6517867.23345  23734710.992    23734718.678
  24971641.316    -6343886.96149  -4930122.71645  24971640.564    24971649.701
  22070413.429   -21147557.51649 -16466676.70047  22070413.211    22070420.871
  22053041.987   -19516060.70749 -14634667.90246  22053041.957    22053048.644
  20739853.908   -25592593.35849 -19923775.04548  20739853.208    20739859.938
  23811476.007   -11033620.67349  -8573281.53245  23811475.768    23811482.867
  20815851.537   -24020810.18149 -18698143.37548  20815850.936    20815857.178
  24297691.887    -4507779.93749  -3176112.75045  24297691.369    24297699.475
  21031036.847   -24877357.11849 -19370805.15547  21031036.067    21031042.744
  20600178.160   -28030926.80549 -21129817.74648  20600177.624    20600182.809
 03  2 28  1  8 30.0000000  0 10G16G 2G 6G26G17G29G23G 3G15G18
  23740283.456    -8357889.90949  -6495051.00745  23740282.924    23740290.726
  24970692.069    -6348875.23649  -4934009.66845  24970691.361    24970700.474
  22087493.078   -21057803.62549 -16396738.63446  22087492.827    22087500.524
  22063716.329   -19459966.41549 -14590958.04746  22063716.297    22063723.020
  20739666.320   -25593579.19449 -19924543.21148  20739665.608    20739672.332
  23825621.911   -10959283.23249  -8515356.20545  23825621.606    23825628.790
  20821719.451   -23989973.88749 -18674115.06948  20821718.864    20821725.094
  24279280.589    -4604531.54449  -3251503.52445  24279280.064    24279288.155
  21022529.098   -24922065.47549 -19405642.78947  21022528.297    21022534.965
  20595689.779   -28054513.03249 -21148196.56848  20595689.251    20595694.441
 03  2 28  1  9  0.0000000  0 10G16G 2G 6G26G17G29G23G 3G15G18
  23745939.737    -8328166.25149  -6471889.72545  23745939.248    23745946.948
  24969820.797    -6353453.53349  -4937577.17045  24969820.083    24969829.239
  22104634.283   -20967726.04849 -16326548.34946  22104634.020    22104641.762
  22074500.380   -19403295.57249 -14546798.93946  22074500.381    22074507.059
  20739519.063   -25594352.94249 -19925146.10448  20739518.360    20739525.054
  23839838.881   -10884572.04949  -8457139.67145  23839838.683    23839845.839
  20827643.422   -23958843.04749 -18649857.24648  20827642.833    20827649.062
  24260906.331    -4701088.44449  -3326742.57445  24260905.834    24260913.878
  21014054.487   -24966599.52149 -19440344.59547  21014053.704    21014060.382
  20591276.160   -28077706.43249 -21166269.29048  20591275.637    20591280.831
 03  2 28  1  9 30.0000000  0 10G16G 2G 6G26G17G29G23G 3G15G18
  23751679.729    -8298002.28549  -6448385.34745  23751679.255    23751687.009
  24969027.347    -6357622.87449  -4940825.98545  24969026.613    24969035.810
  22121836.672   -20877327.06449 -16256107.61046  22121836.401    22121844.172
  22085393.659   -19346050.93749 -14502192.70746  22085393.650    22085400.326
  20739412.386   -25594913.46649 -19925582.84848  20739411.664    20739418.345
  23854126.501   -10809489.97749  -8398634.11045  23854126.212    23854133.416
  20833623.048   -23927419.84349 -18625371.60348  20833622.463    20833628.685
  24242569.598    -4797448.60549  -3401828.33345  24242569.069    24242576.999
  21005613.157   -25010958.80349 -19474910.21847  21005612.377    21005619.060
  20586937.178   -28100507.79949 -21184036.53048  20586936.670    20586941.839
 03  2 28  1 10  0.0000000  0 10G16G 2G 6G26G17G29G23G 3G15G18
  23757503.213    -8267399.50649  -6424539.04745  23757502.843    23757510.506
  24968311.632    -6361383.94449  -4943756.67445  24968310.868    24968320.137
  22139099.830   -20786608.65049 -16185417.96946  22139099.540    22139107.337
  22096395.788   -19288234.25249 -14457140.73646  22096395.774    22096402.424
  20739346.314   -25595260.62049 -19925853.33148  20739345.600    20739352.283
  23868484.284   -10734038.92449  -8339841.05445  23868484.043    23868491.377
  20839657.971   -23895705.97649 -18600659.47448  20839657.376    20839663.605
  24224270.789    -4893609.16149  -3476758.55445  24224270.387    24224278.180
  20997205.272   -25055142.25249 -19509338.82847  20997204.498    20997211.193
  20582672.686   -28122917.74949 -21201498.77148  20582672.163    20582677.311
 03  2 28  1 10 30.0000000  0 10G16G 2G 6G26G17G29G23G 3G15G18
  23763409.713    -8236360.84849  -6400353.09445  23763409.304    23763417.048
  24967673.406    -6364738.02349  -4946370.22045  24967672.611    24967681.856
  22156423.187   -20695573.65149 -16114481.64846  22156422.927    22156430.748
  22107506.262   -19229848.28049 -14411645.15446  22107506.242    22107512.892
  20739320.966   -25595393.56549 -19925956.90448  20739320.257    20739326.942
  23882911.738   -10658221.77949  -8280762.73445  23882911.505    23882918.902
  20845747.763   -23863703.71449 -18575722.62848  20845747.160    20845753.392
  24206010.351    -4989568.24549  -3551531.79045  24206009.929    24206017.671
  20988830.926   -25099149.55949 -19543630.19247  20988830.175    20988836.802
  20578482.441   -28144937.37349 -21218656.86848  20578481.924    20578487.056
 03  2 28  1 11  0.0000000  0 10G16G 2G 6G26G17G29G23G 3G15G18
  23769399.037    -8204887.07749  -6375828.07945  23769398.618    23769406.317
  24967112.507    -6367684.93949  -4948666.50545  24967111.778    24967121.000
  22173806.606   -20604223.17249 -16043299.48646  22173806.383    22173814.203
  22118724.819   -19170894.12249 -14365706.82946  22118724.805    22118731.476
  20739336.652   -25595310.95549 -19925892.51148  20739335.967    20739342.658
  23897408.549   -10582039.95149  -8221400.24445  23897408.298    23897415.717
  20851892.315   -23831413.80549 -18550561.64648  20851891.716    20851897.941
  24187788.839    -5085322.29449  -3626145.26645  24187788.532    24187796.174
  20980490.473   -25142979.01349 -19577782.96347  20980489.709    20980496.294
  20574366.538   -28166566.34449 -21235510.56248  20574366.013    20574371.150
 03  2 28  1 11 30.0000000  0 10G16G 2G 6G26G17G29G23G 3G15G18
  23775470.540    -8172981.27349  -6350966.42745  23775470.064    23775477.705
  24966628.855    -6370226.33449  -4950646.80145  24966628.144    24966637.385
  22191249.497   -20512560.28349 -15971873.89346  22191249.268    22191257.089
  22130050.918   -19111375.03049 -14319328.30046  22130050.885    22130057.572
  20739393.389   -25595012.57749 -19925659.98648  20739392.717    20739399.410
  23911974.178   -10505496.62649  -8161756.07245  23911973.975    23911981.443
  20858091.064   -23798838.96849 -18525178.63648  20858090.455    20858096.678
  24169606.616    -5180870.03049  -3700597.97245  24169606.320    24169613.950
  20972183.762   -25186630.86549 -19611797.34747  20972183.000    20972189.577
  20570324.694   -28187806.06849 -21252060.94648  20570324.181    20570329.310
 03  2 28  1 12  0.0000000  0 10G16G 2G 6G26G17G29G23G 3G15G18
  23781623.909    -8140645.14449  -6325769.45245  23781623.465    23781631.059
  24966222.491    -6372362.18049  -4952311.08945  24966221.804    24966230.836
  22208751.520   -20420586.58349 -15900206.10746  22208751.291    22208759.100
  22141484.171   -19051292.51249 -14272510.73246  22141484.180    22141490.880
  20739491.522   -25594496.79149 -19925258.04848  20739490.829    20739497.552
  23926608.373   -10428593.60849  -8101831.60845  23926608.154    23926615.621
  20864343.826   -23765980.41149 -18499574.54248  20864343.216    20864349.446
  24151464.240    -5276208.41049  -3774887.55745  24151463.930    24151471.610
  20963911.187   -25230103.43649 -19645672.02947  20963910.417    20963916.981
  20566356.916   -28208656.72249 -21268308.15748  20566356.398    20566361.505
 03  2 28  1 12 30.0000000  0 10G16G 2G 6G26G17G29G23G 3G15G18
  23787858.695    -8107881.21849  -6300239.13045  23787858.298    23787865.813
  24965892.937    -6374093.96549  -4953660.51645  24965892.272    24965901.287
  22226312.220   -20328304.88749 -15828298.32046  22226311.954    22226319.770
  22153024.146   -18990649.45149 -14225256.37246  22153024.160    22153030.900
  20739630.995   -25593763.80549 -19924686.87048  20739630.323    20739637.007
  23941310.407   -10351333.94949  -8041629.25845  23941310.196    23941317.695
  20870650.118   -23732840.57549 -18473751.27148  20870649.500    20870655.745
  24133362.037    -5371335.73249  -3849012.68345  24133361.792    24133369.438
  20955672.740   -25273396.51749 -19679406.85147  20955671.960    20955678.525
  20562462.866   -28229119.66349 -21284253.25948  20562462.374    20562467.466
 03  2 28  1 13  0.0000000  0 10G16G 2G 6G26G17G29G23G 3G15G18
  23794174.690    -8074690.65349  -6274376.36145  23794174.336    23794181.825
  24965640.236    -6375421.56449  -4954694.99845  24965639.558    24965648.765
  22243931.229   -20235716.46249 -15756151.52846  22243930.957    22243938.782
  22164670.547   -18929447.16049 -14177566.25546  22164670.528    22164677.273
  20739812.158   -25592811.72649 -19923944.96448  20739811.467    20739818.139
  23956080.038   -10273719.10049  -7981150.13045  23956079.781    23956087.281
  20877009.746   -23699420.32749 -18447709.49648  20877009.137    20877015.387
  24115300.592    -5466248.50849  -3922970.61045  24115300.376    24115307.901
  20947468.774   -25316508.28249 -19713000.38347  20947468.020    20947474.557
  20558642.759   -28249194.36649 -21299895.82348  20558642.258    20558647.322
 03  2 28  1 13 30.0000000  0 10G16G 2G 6G26G17G29G23G 3G15G18
  23800571.219    -8041076.51849  -6248183.51645  23800570.767    23800578.411
  24965464.254    -6376346.42249  -4955415.66545  24965463.559    24965472.776
  22261608.118   -20142824.17149 -15683767.95346  22261607.810    22261615.669
  22176422.796   -18867688.69249 -14129442.76146  22176422.792    22176429.514
  20740035.059   -25591640.24149 -19923032.09448  20740034.373    20740041.059
  23970916.697   -10195752.05049  -7920396.56545  23970916.460    23970923.897
  20883422.254   -23665722.22849 -18421451.21448  20883421.648    20883427.891
  24097280.337    -5560944.92749  -3996759.95045  24097279.992    24097287.516
  20939299.389   -25359438.61149 -19746452.53947  20939298.635    20939305.152
  20554896.206   -28268882.42849 -21315237.12248  20554895.702    20554900.746
 03  2 28  1 14  0.0000000  0 10G16G 2G 6G26G17G29G23G 3G15G18
  23807047.965    -8007040.71549  -6221662.14345  23807047.554    23807055.239
  24965364.859    -6376869.20649  -4955823.01045  24965364.088    24965373.004
  22279342.379   -20049630.09949 -15611149.22846  22279342.112    22279349.961
  22188280.487   -18805375.92549 -14080887.33946  22188280.453    22188287.215
  20740299.794   -25590248.85149 -19921947.87348  20740299.120    20740305.794
  23985819.856   -10117434.94549  -7859370.22145  23985819.623    23985827.103
  20889887.369   -23631747.70749 -18394977.54048  20889886.752    20889892.993
  24079301.705    -5655422.41549  -4070378.69345  24079301.377    24079308.976
  20931164.726   -25402186.41449 -19779762.47247  20931163.947    20931170.458
  20551223.147   -28288184.30349 -21330277.50648  20551222.645    20551227.679
 03  2 28  1 14 30.0000000  0 10G16G 2G 6G26G17G29G23G 3G15G18
  23813604.854    -7972584.40349  -6194813.08445  23813604.384    23813612.052
  24965341.877    -6376989.94949  -4955917.09645  24965341.114    24965350.165
  22297133.800   -19956135.58749 -15538296.39446  22297133.556    22297141.425
  22200243.353   -18742510.56049 -14031901.31246  22200243.311    22200250.073
  20740606.772   -25588635.64249 -19920690.80048  20740606.087    20740612.755
  24000789.388   -10038769.47749  -7798072.41745  24000789.189    24000796.652
  20896404.882   -23597497.83949 -18368289.30548  20896404.270    20896410.509
  24061365.368    -5749677.66849  -4143824.26745  24061365.123    24061372.725
  20923065.102   -25444749.90849 -19812928.78247  20923064.334    20923070.856
  20547623.578   -28307099.78449 -21345016.79548  20547623.077    20547628.102
 03  2 28  1 15  0.0000000  0 10G16G 2G 6G26G17G29G23G 3G15G18
  23820241.188    -7937710.50749  -6167638.64445  23820240.770    23820248.254
  24965395.078    -6376710.15649  -4955699.08445  24965394.456    24965403.448
  22314981.875   -19862343.44549 -15465211.64046  22314981.639    22314989.477
  22212310.877   -18679095.34749 -13982486.83846  22212310.817    22212317.577
  20740955.977   -25586800.45049 -19919260.75748  20740955.305    20740961.954
  24015824.681    -9959758.29649  -7736505.22845  24015824.561    24015831.914
  20902974.320   -23562975.09649 -18341388.44747  20902973.713    20902979.952
  24043471.718    -5843708.60449  -4217095.03645  24043471.582    24043479.157
  20915000.561   -25487129.03749 -19845951.43247  20914999.797    20915006.308
  20544097.359   -28325630.15849 -21359455.99548  20544096.848    20544101.870
 03  2 28  1 15 30.0000000  0 10G16G 2G 6G26G17G29G23G 3G15G18
  23826956.404    -7902421.79149  -6140140.96045  23826955.972    23826963.434
  24965524.217    -6376031.37049  -4955170.12545  24965523.608    24965532.533
  22332886.062   -19768256.62649 -15391897.25746  22332885.815    22332893.636
  22224482.426   -18615133.29649 -13932646.24046  22224482.391    22224489.163
  20741347.531   -25584742.80849 -19917657.37048  20741346.835    20741353.494
  24030925.122    -9880404.89849  -7674671.37045  24030924.996    24030932.264
  20909595.232   -23528181.87549 -18314276.81947  20909594.629    20909600.856
  24025621.168    -5937513.48149  -4290189.65445  24025620.899    24025628.592
  20906971.172   -25529323.52749 -19878830.20747  20906970.425    20906976.938
  20540644.155   -28343776.65549 -21373596.08348  20540643.648    20540648.660
 03  2 28  1 16  0.0000000  0 10G16G 2G 6G26G17G29G23G 3G15G18
  23833750.307    -7866719.50849  -6112321.00645  23833749.868    23833757.377
  24965729.226    -6374953.68649  -4954330.35645  24965728.516    24965737.717
  22350845.975   -19673876.70249 -15318354.48846  22350845.741    22350853.580
  22236757.716   -18550625.88649 -13882380.69146  22236757.673    22236764.447
  20741781.682   -25582461.16349 -19915879.43148  20741780.994    20741787.661
  24046090.372    -9800710.57749  -7612571.87645  24046090.338    24046097.519
  20916267.417   -23493119.06749 -18286955.12247  20916266.820    20916273.036
  24007814.394    -6031089.05149  -4363105.60145  24007814.126    24007821.775
  20898977.387   -25571331.32749 -19911563.51547  20898976.610    20898983.081
  20537263.970   -28361539.41349 -21387437.15148  20537263.468    20537268.473
 03  2 28  1 16 30.0000000  0 10G16G 2G 6G26G17G29G23G 3G15G18
  23840622.400    -7830606.50249  -6084181.02345  23840621.991    23840629.399
  24966009.982    -6373478.13949  -4953180.55945  24966009.233    24966018.516
  22368861.223   -19579206.02249 -15244585.15246  22368861.019    22368868.837
  22249136.316   -18485575.82449 -13831692.29646  22249136.283    22249143.041
  20742258.552   -25579954.99649 -19913926.54448  20742257.864    20742264.517
  24061320.101    -9720677.95649  -7550208.75545  24061319.965    24061327.180
  20922990.546   -23457788.77249 -18259424.99147  20922989.946    20922996.156
  23990051.554    -6124433.31349  -4435841.31345  23990051.253    23990058.913
  20891019.129   -25613152.01649 -19944151.02447  20891018.349    20891024.798
  20533956.639   -28378919.41549 -21400979.97048  20533956.128    20533961.111
 03  2 28  1 17  0.0000000  0  9G16G 6G26G17G29G23G 3G15G18
  23847572.741    -7794082.49949  -6055720.76745  23847572.299    23847579.681
  22386931.834   -19484244.52549 -15170589.20846  22386931.600    22386939.435
  22261618.175   -18419983.15849 -13780581.10246  22261618.173    22261624.900
  20742778.772   -25577221.07549 -19911796.18248  20742778.084    20742784.743
  24076614.177    -9640307.24749  -7487582.19445  24076614.037    24076621.215
  20929764.658   -23422190.47949 -18231686.03447  20929764.056    20929770.247
  23972333.606    -6217541.29949  -4508392.89545  23972333.349    23972341.031
  20883097.171   -25654782.19149 -19976590.07247  20883096.383    20883102.805
  20530722.484   -28395914.90549 -21414223.17848  20530721.957    20530726.936
 03  2 28  1 17 30.0000000  0  9G16G 6G26G17G29G23G 3G15G18
  23854600.856    -7757149.60249  -6026941.90145  23854600.374    23854607.794
  22405057.377   -19388994.34249 -15096368.30346  22405057.141    22405064.976
  22274202.814   -18353850.31849 -13729048.97746  22274202.811    22274209.577
  20743342.454   -25574258.77949 -19909487.87148  20743341.773    20743348.414
  24091972.115    -9559600.84249  -7424694.06145  24091971.945    24091979.115
  20936589.422   -23386325.86949 -18203739.55847  20936588.821    20936595.011
  23954661.253    -6310410.65749  -4580758.54445  23954660.973    23954668.522
  20875211.567   -25696220.90549 -20008879.93447  20875210.792    20875217.223
  20527561.354   -28412526.61349 -21427167.34248  20527560.845    20527565.813
 03  2 28  1 18  0.0000000  0  9G16G 6G26G17G29G23G 3G15G18
  23861705.524    -7719814.85349  -5997849.91345  23861704.985    23861712.342
  22423236.517   -19293462.30549 -15021927.77846  22423236.267    22423244.113
  22286888.942   -18287184.09449 -13677101.24146  22286888.948    22286895.720
  20743948.910   -25571071.77449 -19907004.45748  20743948.224    20743954.861
  24107392.583    -9478565.42449  -7361549.57945  24107392.439    24107399.605
  20943463.645   -23350201.40749 -18175590.60147  20943463.052    20943469.256
  23937033.822    -6403043.17549  -4652939.64445  23937033.547    23937041.059
  20867361.749   -25737471.82049 -20041023.45647  20867360.977    20867367.385
  20524472.260   -28428759.67249 -21439816.44748  20524471.734    20524476.731
 03  2 28  1 18 30.0000000  0  9G16G 6G26G17G29G23G 3G15G18
  23868886.383    -7682078.94949  -5968445.30745  23868885.875    23868893.221
  22441469.185   -19197649.17649 -14947268.22646  22441468.904    22441476.763
  22299676.383   -18219985.57049 -13624738.72146  22299676.346    22299683.125
  20744598.615   -25567657.32949 -19904343.81948  20744597.934    20744604.580
  24122875.506    -9397202.06749  -7298149.53645  24122875.411    24122882.414
  20950387.263   -23313817.32849 -18147239.34347  20950386.679    20950392.877
  23919452.143    -6495434.96949  -4724933.15645  23919451.928    23919459.387
  20859548.163   -25778532.50849 -20073018.75847  20859547.386    20859553.754
  20521455.352   -28444613.43749 -21452169.98348  20521454.833    20521459.828
 03  2 28  1 19  0.0000000  0  9G16G 6G26G17G29G23G 3G15G18
  23876143.178    -7643944.10249  -5938729.85245  23876142.680    23876150.121
  22459754.877   -19101557.28149 -14872391.44646  22459754.615    22459762.538
  22312564.622   -18152257.25549 -13571963.37646  22312564.583    22312571.377
  20745291.767   -25564014.70849 -19901505.38348  20745291.084    20745297.726
  24138420.369    -9315513.32549  -7234495.93545  24138420.260    24138427.115
  20957359.961   -23277175.46949 -18118687.22047  20957359.372    20957365.576
  23901916.828    -6587583.85349  -4796737.38746  23901916.567    23901923.933
  20851770.896   -25819401.98549 -20104865.06347  20851770.110    20851776.472
  20518510.433   -28460088.92949 -21464228.77348  20518509.931    20518514.911
 03  2 28  1 19 30.0000000  0  9G16G 6G26G17G29G23G 3G15G18
  23883475.666    -7605411.46449  -5908704.42345  23883475.235    23883482.595
  22478093.415   -19005187.47549 -14797298.11946  22478093.170    22478101.100
  22325553.453   -18084000.11849 -13518775.98146  22325553.461    22325560.254
  20746028.661   -25560142.08349 -19898487.72448  20746027.974    20746034.610
  24154026.856    -9233500.24349  -7170589.61645  24154026.675    24154033.666
  20964381.680   -23240276.11349 -18089934.45247  20964381.101    20964387.277
  23884428.449    -6679485.88349  -4868349.27246  23884428.185    23884435.482
  20844030.475   -25860077.83049 -20136560.47947  20844029.709    20844036.059
  20515637.645   -28475185.36949 -21475992.19548  20515637.140    20515642.124
 03  2 28  1 20  0.0000000  0  9G16G 6G26G17G29G23G 3G15G18
  23890883.268    -7566484.18349  -5878371.48845  23890882.826    23890890.272
  22496484.350   -18908542.93549 -14721990.71646  22496484.058    22496491.968
  22338642.309   -18015217.70049 -13465179.27246  22338642.320    22338649.087
  20746809.459   -25556038.79849 -19895290.32748  20746808.783    20746815.415
  24169694.512    -9151166.04849  -7106433.09045  24169694.349    24169701.226
  20971451.885   -23203121.92449 -18060983.11347  20971451.287    20971457.455
  23866987.262    -6771139.37049  -4939767.47045  23866986.989    23866994.324
  20836326.927   -25900560.11449 -20168105.07347  20836326.162    20836332.504
  20512836.681   -28489904.31049 -21487461.45648  20512836.169    20512841.162
 03  2 28  1 20 30.0000000  0  9G16G 6G26G17G29G23G 3G15G18
  23898365.611    -7527164.14649  -5847732.51145  23898365.126    23898372.624
  22514927.130   -18811625.58649 -14646470.73446  22514926.850    22514934.719
  22351830.726   -17945912.06649 -13411174.86646  22351830.740    22351837.419
  20747634.250   -25551704.33449 -19891912.79548  20747633.572    20747640.179
  24185422.881    -9068512.90249  -7042028.01045  24185422.730    24185429.556
  20978570.247   -23165714.48849 -18031834.43347  20978569.649    20978575.818
  23849593.947    -6862541.49349  -5010989.81845  23849593.631    23849601.017
  20828660.491   -25940847.40749 -20199497.73047  20828659.719    20828666.013
  20510107.467   -28504246.38949 -21498637.06348  20510106.968    20510111.927
 03  2 28  1 21  0.0000000  0  9G16G 6G26G17G29G23G 3G15G18
  23905922.244    -7487453.80549  -5816789.39345  23905921.694    23905929.325
  22533421.366   -18714437.77349 -14570739.99446  22533421.077    22533429.001
  22365118.269   -17876085.64049 -13356764.63846  22365118.261    22365124.889
  20748503.317   -25547137.24149 -19888353.99848  20748502.650    20748509.227
  24201211.485    -8985543.26949  -6977376.32145  24201211.350    24201218.163
  20985736.478   -23128055.52249 -18002489.76247  20985735.887    20985742.054
  23832248.852    -6953689.90249  -5082014.47045  23832248.478    23832255.999
  20821031.347   -25980938.74149 -20230737.69247  20821030.551    20821036.835
  20507449.799   -28518212.40649 -21509519.63748  20507449.288    20507454.234
 03  2 28  1 21 30.0000000  0  9G16G 6G26G17G29G23G 3G15G18
  23913552.756    -7447355.06049  -5785543.61645  23913552.163    23913559.915
  22551966.594   -18616981.60849 -14494800.15646  22551966.369    22551974.301
  22378504.436   -17805740.96249 -13301950.58746  22378504.414    22378511.053
  20749416.829   -25542336.80949 -19884613.38348  20749416.138    20749422.703
  24217059.745    -8902259.36249  -6912479.74445  24217059.709    24217066.560
  20992950.278   -23090146.57649 -17972950.29947  20992949.673    20992955.845
  23814952.688    -7044581.69849  -5152839.15245  23814952.192    23814959.766
  20813439.687   -26020832.97249 -20261824.06747  20813438.906    20813445.191
  20504863.588   -28531802.99849 -21520109.67848  20504863.079    20504868.007
 03  2 28  1 22  0.0000000  0  9G16G 6G26G17G29G23G 3G15G18
  23921256.798    -7406870.38149  -5753997.11845  23921256.169    23921263.815
  22570562.575   -18519259.27649 -14418652.91746  22570562.325    22570570.247
  22391988.700   -17734880.26149 -13246734.43846  22391988.709    22391995.325
  20750374.889   -25537302.00449 -19880690.13448  20750374.185    20750380.729
  24232967.420    -8818663.35149  -6847339.96045  24232967.456    24232974.262
  21000211.358   -23051989.27049 -17943217.31347  21000210.757    21000216.918
  23797705.845    -7135214.32049  -5223461.89245  23797705.341    23797712.898
  20805885.783   -26060528.85849 -20292755.88547  20805885.006    20805891.290
  20502348.691   -28545018.83849 -21530407.70448  20502348.160    20502353.072
 03  2 28  1 22 30.0000000  0 10G16G14G 6G26G17G29G23G 3G15G18
  23929032.884    -7366006.51149  -5722155.14945  23929032.415    23929039.932
  24656268.516    -3565457.98849  -2417561.63245  24656267.653    24656280.865
  22589207.956   -18421277.45149 -14342303.47446  22589207.697    22589215.601
  22405569.921   -17663510.21549 -13191121.39746  22405569.946    22405576.578
  20751376.908   -25532036.25649 -19876586.93447  20751376.211    20751382.776
  24248933.315    -8734762.05149  -6781962.29945  24248933.243    24248940.162
  21007518.538   -23013589.66749 -17913295.52647  21007517.958    21007524.103
  23780507.874    -7225589.63549  -5293884.12945  23780507.358    23780514.910
  20798369.021   -26100029.64749 -20323535.68847  20798368.219    20798374.522
  20499904.163   -28557864.69349 -21540417.41148  20499903.642    20499908.545
 03  2 28  1 23  0.0000000  0 10G16G14G 6G26G17G29G23G 3G15G18
  23936880.932    -7324764.33549  -5690018.40345  23936880.423    23936888.022
  24634631.382    -3679160.38949  -2506160.36745  24634630.361    24634643.448
  22607902.510   -18323036.95749 -14265752.47046  22607902.225    22607910.156
  22419247.795   -17591632.33249 -13135112.63946  22419247.808    22419254.476
  20752423.325   -25526537.14749 -19872301.89347  20752422.627    20752429.181
  24264957.050    -8650556.52749  -6716347.57245  24264957.000    24264963.967
  21014871.762   -22974948.14349 -17883185.23247  21014871.197    21014877.329
  23763359.644    -7315703.51949  -5364102.65745  23763359.119    23763366.652
  20790889.760   -26139333.03649 -20354161.67047  20790888.977    20790895.258
  20497530.083   -28570340.24749 -21550138.58548  20497529.576    20497534.465
 03  2 28  1 23 30.0000000  0 10G16G14G 6G26G17G29G23G 3G15G18
  23944801.556    -7283140.60749  -5657584.33045  23944801.169    23944808.737
  24612994.831    -3792859.44749  -2594756.53945  24612993.700    24613006.302
  22626646.938   -18224534.47949 -14188997.32346  22626646.659    22626654.626
  22433022.945   -17519243.31349 -13078705.59146  22433023.011    22433029.631
  20753515.409   -25520798.11949 -19867829.90147  20753514.711    20753521.254
  24281039.213    -8566043.65349  -6650493.35745  24281039.206    24281046.259
  21022271.745   -22936060.79849 -17852883.38747  21022271.165    21022277.314
  23746262.700    -7405548.14449  -5434111.38045  23746262.234    23746269.695
  20783449.345   -26178432.48349 -20384628.73847  20783448.568    20783454.856
  20495227.409   -28582440.75549 -21559567.51348  20495226.910    20495231.793
 03  2 28  1 24  0.0000000  0 10G16G14G 6G26G17G29G23G 3G15G18
  23952794.238    -7241138.86449  -5624855.72045  23952793.815    23952801.352
  24591359.114    -3906553.62049  -2683348.91444  24591358.028    24591370.389
  22645440.533   -18125773.38349 -14112040.65946  22645440.258    22645448.269
  22446894.625   -17446346.99149 -13021903.25746  22446894.689    22446901.274
  20754653.127   -25514819.24349 -19863171.01747  20754652.453    20754658.989
  24297179.241    -8481226.83749  -6584402.31645  24297179.313    24297186.428
  21029717.980   -22896930.51349 -17822392.23547  21029717.400    21029723.559
  23729217.334    -7495121.96549  -5503909.10145  23729216.925    23729224.238
  20776047.736   -26217327.89649 -20414936.82447  20776046.972    20776053.249
  20492995.731   -28594168.09549 -21568705.66048  20492995.235    20493000.101
 03  2 28  1 24 30.0000000  0 10G16G14G 6G26G17G29G23G 3G15G18
  23960858.192    -7198762.70149  -5591835.33245  23960857.703    23960865.353
  24569724.514    -4020241.57149  -2771936.47944  24569723.685    24569735.746
  22664282.657   -18026757.35749 -14034885.34946  22664282.354    22664290.415
  22460862.186   -17372947.16149 -12964708.55646  22460862.229    22460868.781
  20755836.418   -25508600.96949 -19858325.59447  20755835.724    20755842.250
  24313376.497    -8396109.87849  -6518077.38145  24313376.499    24313383.689
  21037209.899   -22857560.10949 -17791713.97947  21037209.333    21037215.479
  23712223.799    -7584423.74449  -5573494.82745  23712223.369    23712230.609
  20768684.932   -26256019.45449 -20445086.05847  20768684.169    20768690.478
  20490834.668   -28605524.53149 -21577554.78348  20490834.161    20490839.009
 03  2 28  1 25  0.0000000  0 10G16G14G 6G26G17G29G23G 3G15G18
  23968992.926    -7156014.12449  -5558524.77445  23968992.452    23969000.208
  24548091.653    -4133920.40949  -2860516.96744  24548090.782    24548102.515
  22683172.905   -17927488.21049 -13957532.79846  22683172.646    22683180.757
  22474925.093   -17299045.89749 -12907123.13346  22474925.133    22474931.666
  20757065.523   -25502141.87549 -19853292.51447  20757064.833    20757071.328
  24329630.535    -8310694.73049  -6451520.08045  24329630.507    24329637.649
  21044747.272   -22817950.85449 -17760849.60647  21044746.705    21044752.844
  23695282.537    -7673450.42849  -5642866.20345  23695282.128    23695289.331
  20761361.244   -26294505.63649 -20475075.25947  20761360.469    20761366.775
  20488744.134   -28616510.11649 -21586114.95248  20488743.628    20488748.472
 03  2 28  1 25 30.0000000  0 10G16G14G 6G26G17G29G23G 3G15G18
  23977197.934    -7112896.77949  -5524926.86145  23977197.292    23977205.125
  24526460.880    -4247588.54349  -2949089.12145  24526460.085    24526471.935
  22702110.678   -17827969.46449 -13879985.75846  22702110.426    22702118.555
  22489082.715   -17224647.05949 -12849149.99846  22489082.742    22489089.312
  20758340.405   -25495442.43649 -19848072.15447  20758339.710    20758346.183
  24345940.677    -8224984.92749  -6384733.19645  24345940.546    24345947.722
  21052329.547   -22778105.74349 -17729801.44447  21052328.976    21052335.103
  23678393.913    -7762200.67849  -5712022.18145  23678393.550    23678400.609
  20754076.592   -26332786.56449 -20504904.52247  20754075.822    20754082.120
  20486723.764   -28627127.06849 -21594387.86848  20486723.267    20486728.107
 03  2 28  1 26  0.0000000  0 10G16G14G 6G26G17G29G23G 3G15G18
  23985472.492    -7069413.19549  -5491043.54945  23985471.973    23985479.839
  24504832.690    -4361243.23349  -3037650.82745  24504832.188    24504843.837
  22721095.538   -17728203.36349 -13802245.97546  22721095.303    22721103.454
  22503334.509   -17149753.15849 -12790791.08746  22503334.516    22503341.138
  20759661.084   -25488501.92649 -19842663.94447  20759660.416    20759666.875
  24362306.267    -8138982.94049  -6317718.62745  24362306.107    24362313.372
  21059956.326   -22738026.54349 -17698570.87747  21059955.756    21059961.878
  23661558.308    -7850672.02149  -5780960.81645  23661557.974    23661564.988
  20746831.173   -26370861.28749 -20534573.10247  20746830.398    20746836.673
  20484773.429   -28637375.97349 -21602373.98048  20484772.927    20484777.764
 03  2 28  1 26 30.0000000  0 10G16G14G 6G26G17G29G23G 3G15G18
  23993816.449    -7025565.59049  -5456876.59645  23993815.977    23993823.760
  24483207.573    -4474882.18949  -3126200.31645  24483207.019    24483218.625
  22740127.004   -17628192.34949 -13724315.35146  22740126.758    22740134.941
  22517680.029   -17074366.95049 -12732048.56746  22517680.065    22517686.642
  20761027.908   -25481319.22649 -19837067.01747  20761027.230    20761033.687
  24378726.937    -8052691.30049  -6250478.37245  24378726.819    24378734.099
  21067627.391   -22697714.95949 -17667159.22847  21067626.796    21067632.909
  23644776.240    -7938861.93849  -5849680.15345  23644775.912    23644782.887
  20739625.202   -26408728.86649 -20564080.27247  20739624.407    20739630.714
  20482892.938   -28647257.84749 -21610074.09848  20482892.439    20482897.271
 03  2 28  1 27  0.0000000  0 10G16G14G 6G26G17G29G23G 3G15G18
  24002229.101    -6981356.40149  -5422427.88845  24002228.703    24002236.546
  24461586.095    -4588502.08049  -3214734.94945  24461585.657    24461597.203
  22759204.804   -17527938.24449 -13646195.29946  22759204.530    22759212.699
  22532118.686   -16998490.74849 -12672924.23046  22532118.709    22532125.368
  20762441.182   -25473892.46549 -19831279.91047  20762440.501    20762446.955
  24395202.419    -7966112.10149  -6183014.04245  24395202.263    24395209.597
  21075342.403   -22657172.23949 -17635567.47647  21075341.815    21075347.922
  23628048.314    -8026767.48349  -5918177.90245  23628047.963    23628054.966
  20732458.977   -26446387.39149 -20593424.55247  20732458.188    20732464.498
  20481082.155   -28656773.42249 -21617488.79648  20481081.662    20481086.473
 03  2 28  1 27 30.0000000  0 10G16G14G 6G26G17G29G23G 3G15G18
  24010710.191    -6936788.37249  -5387699.58445  24010709.901    24010717.619
  24439968.669    -4702101.08949  -3303253.31245  24439968.223    24439979.700
  22778328.254   -17427443.99649 -13567888.11546  22778327.991    22778336.085
  22546650.107   -16922127.67449 -12613420.51546  22546650.139    22546656.784
  20763900.807   -25466221.87849 -19825302.80547  20763900.151    20763906.587
  24411732.024    -7879248.17849  -6115327.85345  24411731.890    24411739.147
  21083100.935   -22616400.83249 -17603797.52447  21083100.343    21083106.422
  23611374.815    -8114386.90749  -5986452.69845  23611374.387    23611381.482
  20725332.605   -26483836.47649 -20622605.61847  20725331.811    20725338.130
  20479340.846   -28665923.89049 -21624618.99648  20479340.348    20479345.149
 03  2 28  1 28  0.0000000  0 10G16G14G 6G26G17G29G23G 3G15G18
  24019259.020    -6891864.41449  -5352693.91445  24019258.713    24019266.442
  24418355.603    -4815676.91049  -3391753.59345  24418355.125    24418366.601
  22797496.928   -17326712.18649 -13489395.83546  22797496.661    22797504.699
  22561273.545   -16845280.89249 -12553539.88946  22561273.566    22561280.185
  20765407.007   -25458306.69149 -19819135.10747  20765406.338    20765412.782
  24428315.320    -7792102.44149  -6047422.05045  24428315.140    24428322.378
  21090902.576   -22575402.83849 -17571851.01147  21090901.992    21090908.062
  23594756.135    -8201718.10249  -6054502.88645  23594755.671    23594762.870
  20718246.262   -26521075.31749 -20651622.86647  20718245.477    20718251.762
  20477668.831   -28674710.31949 -21631465.52848  20477668.345    20477673.117
 03  2 28  1 28 30.0000000  0 10G16G14G 6G26G17G29G23G 3G15G18
  24027875.166    -6846586.45049  -5317412.40045  24027874.789    24027882.584
  24396747.641    -4929226.11549  -3480233.13645  24396747.194    24396758.641
  22816710.409   -17225744.59949 -13410719.82446  22816710.130    22816718.259
  22575988.736   -16767952.25249 -12493283.78146  22575988.768    22575995.282
  20766960.013   -25450145.43149 -19812775.65747  20766959.333    20766965.788
  24444951.766    -7704676.59149  -5979297.99145  24444951.553    24444958.953
  21098747.192   -22534179.01849 -17539728.52947  21098746.612    21098752.656
  23578193.006    -8288757.42349  -6122325.65345  23578192.537    23578199.765
  20711200.289   -26558102.09149 -20680474.86147  20711199.505    20711205.787
  20476066.015   -28683133.02749 -21638028.63448  20476065.515    20476070.294
 03  2 28  1 29  0.0000000  0 10G16G14G 6G26G17G29G23G 3G15G18
  24036558.302    -6800956.88749  -5281856.91245  24036557.867    24036565.647
  24375145.248    -5042746.01649  -3568689.85245  24375144.839    24375156.086
  22835968.361   -17124543.51849 -13331861.87046  22835968.108    22835976.259
  22590794.975   -16690144.48449 -12432654.34146  22590795.048    22590801.570
  20768560.184   -25441736.49849 -19806223.21647  20768559.495    20768565.952
  24461641.166    -7616973.14049  -5910957.61145  24461640.978    24461648.226
  21106634.411   -22492731.19649 -17507431.50647  21106633.831    21106639.899
  23561685.896    -8375502.85549  -6189919.40846  23561685.435    23561692.658
  20704194.829   -26594915.82749 -20709160.86247  20704194.065    20704200.334
  20474532.200   -28691193.04749 -21644309.13348  20474531.707    20474536.470
 03  2 28  1 29 30.0000000  0 10G16G14G 6G26G17G29G23G 3G15G18
  24045307.577    -6754979.10249  -5246030.08745  24045307.150    24045315.031
  24353548.793    -5156234.78149  -3657122.27745  24353548.360    24353559.586
  22855270.208   -17023112.20049 -13252824.51146  22855269.906    22855278.051
  22605691.846   -16611861.11949 -12371654.30046  22605691.875    22605698.376
  20770207.365   -25433080.34349 -19799478.13847  20770206.685    20770213.141
  24478382.788    -7528995.38849  -5842403.48645  24478382.579    24478389.871
  21114563.792   -22451061.91149 -17474961.91347  21114563.202    21114569.276
  23545235.024    -8461952.58249  -6257282.74846  23545234.533    23545241.780
  20697230.012   -26631516.23849 -20737680.63147  20697229.236    20697235.496
  20473067.139   -28698892.02349 -21650308.29448  20473066.631    20473071.392
 03  2 28  1 30  0.0000000  0 10G16G14G 6G26G17G29G23G 3G15G18
  24054122.669    -6708655.47749  -5209933.79545  24054122.278    24054130.078
  24331958.803    -5269689.66649  -3745528.29845  24331958.346    24331969.471
  22874615.317   -16921452.92849 -13173609.53046  22874615.064    22874623.194
  22620678.682   -16533104.74549 -12310285.68346  22620678.710    22620685.256
  20771901.858   -25424175.82149 -19792539.52447  20771901.182    20771907.599
  24495176.187    -7440745.71249  -5773637.47545  24495176.023    24495183.233
  21122535.050   -22409172.62849 -17442320.89547  21122534.464    21122540.490
  23528840.880    -8548103.83849  -6324413.52446  23528840.453    23528847.653
  20690306.010   -26667901.98449 -20766033.12947  20690305.240    20690311.456
  20471670.557   -28706230.75149 -21656026.76048  20471670.058    20471674.819
 03  2 28  1 30 30.0000000  0 10G16G14G 6G26G17G29G23G 3G15G18
  24063003.287    -6661987.49149  -5173569.14445  24063002.899    24063010.683
  24310375.943    -5383107.09449  -3833905.11345  24310375.398    24310386.357
  22894003.535   -16819567.02949 -13094217.96746  22894003.331    22894011.499
  22635755.174   -16453877.07149 -12248549.82546  22635755.273    22635761.782
  20773643.924   -25415021.27049 -19785406.09048  20773643.216    20773649.606
  24512021.150    -7352225.38549  -5704660.55445  24512020.882    24512027.910
  21130548.035   -22367064.12749 -17409509.06147  21130547.436    21130553.457
  23512504.232    -8633953.15549  -6391309.01646  23512503.852    23512510.986
  20683423.265   -26704070.93849 -20794216.69747  20683422.495    20683428.707
  20470342.579   -28713209.13249 -21661464.42948  20470342.087    20470346.859
 03  2 28  1 31  0.0000000  0 10G16G14G 6G26G17G29G23G 3G15G18
  24071948.720    -6614978.80949  -5136939.03045  24071948.387    24071956.127
  24288800.447    -5496485.49149  -3922251.49245  24288799.794    24288810.777
  22913434.315   -16717457.81349 -13014652.37646  22913434.109    22913442.281
  22650920.592   -16374181.91149 -12186449.68646  22650920.724    22650927.238
  20775433.550   -25405616.49749 -19778077.67247  20775432.857    20775439.253
  24528916.748    -7263438.06749  -5635475.59245  24528916.384    24528923.600
  21138602.198   -22324739.09849 -17376528.50147  21138601.611    21138607.619
  23496225.409    -8719499.05249  -6457968.07946  23496224.962    23496232.025
  20676581.776   -26740022.98249 -20822231.23847  20676581.001    20676587.237
  20469082.835   -28719829.03649 -21666622.75248  20469082.349    20469087.109
 03  2 28  1 31 30.0000000  0 10G16G14G 6G26G17G29G23G 3G15G18
  24080958.466    -6567632.21949  -5100045.61145  24080958.160    24080965.883
  24267232.883    -5609822.11449  -4010565.31645  24267232.216    24267243.158
  22932907.085   -16615127.99549 -12934914.88946  22932906.879    22932915.064
  22666174.543   -16294022.15449 -12123987.53446  22666174.644    22666181.068
  20777270.953   -25395960.79649 -19770553.72247  20777270.265    20777276.634
  24545862.568    -7174386.33349  -5566084.57145  24545862.314    24545869.454
  21146697.224   -22282199.39849 -17343380.66747  21146696.627    21146702.610
  23480004.686    -8804739.37249  -6524389.02846  23480004.191    23480011.290
  20669781.756   -26775757.21849 -20850076.06548  20669780.998    20669787.197
  20467891.060   -28726091.64849 -21671502.67948  20467890.554    20467895.338
 03  2 28  1 32  0.0000000  0 10G16G14G 6G26G17G29G23G 3G15G18
  24090032.258    -6519949.71849  -5062890.44845  24090031.888    24090039.549
  24245673.716    -5723114.04049  -4098844.30045  24245673.130    24245684.015
  22952421.460   -16512579.30949 -12855006.86946  22952421.269    22952429.435
  22681516.378   -16213400.13149 -12061165.16946  22681516.473    22681522.919
  20779156.502   -25386052.22949 -19762832.74248  20779155.800    20779162.167
  24562858.393    -7085071.99449  -5496488.93645  24562858.158    24562865.354
  21154832.879   -22239446.09149 -17310066.39147  21154832.284    21154838.262
  23463842.671    -8889670.90349  -6590569.36146  23463842.220    23463849.253
  20663023.545   -26811271.98949 -20877749.88148  20663022.747    20663028.950
  20466767.201   -28731997.25049 -21676104.42148  20466766.702    20466771.506
 03  2 28  1 32 30.0000000  0 10G16G14G 6G26G17G29G23G 3G15G18
  24099169.488    -6471933.59749  -5025475.31945  24099169.042    24099176.721
  24224123.623    -5836358.44649  -4187086.26245  24224123.139    24224133.898
  22971977.099   -16409813.93749 -12774929.98846  22971976.911    22971984.997
  22696945.712   -16132318.42549 -11997984.61346  22696945.791    22696952.229
  20781090.259   -25375890.23349 -19754914.27848  20781089.561    20781095.914
  24579903.768    -6995497.52149  -5426690.60945  24579903.617    24579910.813
  21163008.890   -22196480.76549 -17276586.90347  21163008.314    21163014.282
  23447739.935    -8974291.04549  -6656507.04946  23447739.448    23447746.529
  20656307.280   -26846566.05349 -20905251.71248  20656306.497    20656312.692
  20465711.183   -28737546.53549 -21680428.50948  20465710.683    20465715.474
 03  2 28  1 33  0.0000000  0 10G16G14G 6G26G17G29G23G 3G15G18
  24108369.561    -6423587.07149  -4987802.71645  24108369.103    24108376.818
  24202583.047    -5949553.03649  -4275289.44445  24202582.552    24202593.303
  22991573.450   -16306834.69349 -12694686.45546  22991573.245    22991581.374
  22712461.953   -16050780.05349 -11934448.21346  22712462.040    22712468.461
  20783072.338   -25365474.13549 -19746797.81948  20783071.649    20783078.023
  24596998.239    -6905665.63349  -5356691.69245  24596997.902    24597005.375
  21171224.863   -22153305.48549 -17242943.81847  21171224.267    21171230.254
  23431696.743    -9058597.64949  -6722200.42546  23431696.284    23431703.373
  20649633.176   -26881638.43549 -20932580.80948  20649632.387    20649638.579
  20464722.697   -28742741.01549 -21684476.12648  20464722.178    20464726.972
 03  2 28  1 33 30.0000000  0 10G16G14G 6G26G17G29G23G 3G15G18
  24117631.998    -6374912.42949  -4949874.46545  24117631.531    24117639.356
  24181052.574    -6062694.68849  -4363451.37545  24181052.117    24181062.653
  23011210.074   -16203643.70549 -12614277.93646  23011209.871    23011218.015
  22728064.577   -15968787.68449 -11870558.03946  22728064.648    22728071.037
  20785103.029   -25354802.82449 -19738482.49548  20785102.323    20785108.703
  24614141.248    -6815578.67649  -5286494.00745  24614140.965    24614148.169
  21179480.501   -22109921.65749 -17209138.22747  21179479.911    21179485.919
  23415713.867    -9142587.81149  -6787647.22446  23415713.429    23415720.503
  20643001.567   -26916487.65749 -20959736.01048  20643000.798    20643006.956
  20463801.550   -28747581.39649 -21688247.83148  20463801.045    20463805.831
 03  2 28  1 34  0.0000000  0 10G16G14G 6G26G17G29G23G 3G15G18
  24126956.272    -6325913.02449  -4911693.13345  24126955.826    24126963.682
  24159532.572    -6175781.79449  -4451570.80245  24159532.064    24159542.574
  23030886.392   -16100244.09249 -12533706.85246  23030886.199    23030894.337
  22743752.920   -15886344.85449 -11806316.86146  22743752.998    22743759.443
  20787182.338   -25343875.83249 -19729967.93747  20787181.654    20787188.022
  24631332.211    -6725239.66849  -5216099.91545  24631331.914    24631338.840
  21187775.391   -22066331.69849 -17175172.01447  21187774.809    21187780.820
  23399791.464    -9226260.02549  -6852846.26046  23399790.972    23399798.163
  20636412.469   -26951113.35849 -20986717.03748  20636411.699    20636417.861
  20462947.449   -28752069.56549 -21691745.08048  20462946.957    20462951.719
 03  2 28  1 34 30.0000000  0 10G16G14G 6G26G17G29G23G 3G15G18
  24136342.086    -6276590.50749  -4873260.03545  24136341.639    24136349.454
  24138023.647    -6288810.67449  -4539644.89045  24138023.195    24138033.462
  23050602.141   -15996637.25449 -12452974.30546  23050601.910    23050610.103
  22759526.604   -15803453.48549 -11741726.16846  22759526.678    22759533.153
  20789310.647   -25332691.26349 -19721252.67047  20789309.950    20789316.337
  24648570.766    -6634650.40449  -5145510.81545  24648570.530    24648577.256
  21196109.388   -22022536.21949 -17141045.65847  21196108.799    21196114.817
  23383930.267    -9309610.71049  -6917794.77146  23383929.842    23383937.011
  20629866.331   -26985513.47949 -21013522.29748  20629865.551    20629871.708
  20462160.468   -28756205.14349 -21694967.58348  20462159.971    20462164.727
 03  2 28  1 35  0.0000000  0 10G16G14G 6G26G17G29G23G 3G15G18
  24145788.575    -6226948.69749  -4834578.13845  24145788.169    24145795.949
  24116526.079    -6401779.91049  -4627672.49345  24116525.518    24116535.799
  23070356.665   -15892826.91649 -12372083.18546  23070356.375    23070364.622
  22775384.982   -15720117.58749 -11676789.08746  22775385.019    22775391.466
  20791487.946   -25321249.30249 -19712336.83547  20791487.253    20791493.629
  24665856.193    -6543814.44849  -5074729.49945  24665856.003    24665862.765
  21204481.902   -21978538.13649 -17106761.42447  21204481.313    21204487.329
  23368130.415    -9392638.65649  -6982491.79946  23368130.080    23368137.241
  20623363.093   -27019688.12849 -21040151.85748  20623362.313    20623368.464
  20461440.105   -28759990.48949 -21697917.17348  20461439.620    20461444.359
 03  2 28  1 35 30.0000000  0 10G16G14G 6G26G17G29G23G 3G15G18
  24155295.732    -6176988.92149  -4795648.47445  24155295.308    24155303.042
  24095040.610    -6514685.48949  -4715650.50645  24095039.992    24095050.139
  23090149.672   -15788814.31549 -12291034.45346  23090149.402    23090157.581
  22791327.546   -15636338.79749 -11611506.90546  22791327.583    22791334.046
  20793714.623   -25309547.99249 -19703218.90947  20793713.941    20793720.305
  24683188.277    -6452733.06249  -5003756.93745  24683188.204    24683194.948
  21212892.954   -21934337.86449 -17072319.64247  21212892.370    21212898.364
  23352392.860    -9475340.18549  -7046934.48146  23352392.485    23352399.537
  20616903.207   -27053634.96949 -21066603.90748  20616902.445    20616908.558
  20460786.461   -28763425.47849 -21700593.76048  20460785.953    20460790.686
 03  2 28  1 36  0.0000000  0 10G16G14G 6G26G17G29G23G 3G15G18
  24164862.588    -6126714.75649  -4756473.83645  24164862.114    24164869.876
  24073567.593    -6627525.47949  -4803577.41145  24073566.937    24073576.992
  23109980.520   -15684602.58649 -12209830.54946  23109980.294    23109988.391
  22807353.683   -15552120.62249 -11545882.33746  22807353.708    22807360.211
  20795990.646   -25297587.27449 -19693898.85447  20795989.966    20795996.320
  24700566.411    -6361409.41749  -4932595.60645  24700566.464    24700573.238
  21221341.998   -21889937.91049 -17037722.26147  21221341.421    21221347.411
  23336717.646    -9557713.60949  -7111121.50446  23336717.327    23336724.289
  20610486.747   -27087353.55449 -21092878.09848  20610485.988    20610492.080
  20460199.121   -28766511.93449 -21702998.76548  20460198.619    20460203.345
 03  2 28  1 36 30.0000000  0 10G16G14G 6G26G17G29G23G 3G15G18
  24174488.810    -6076128.70549  -4717056.17445  24174488.340    24174496.071
  24052107.524    -6740297.25149  -4891451.16645  24052106.883    24052116.876
  23129848.891   -15580193.90049 -12128473.18646  23129848.618    23129856.738
  22823462.913   -15467465.76049 -11479917.49546  22823462.956    22823469.472
  20798316.231   -25285366.15749 -19684375.89047  20798315.556    20798321.893
  24717990.361    -6269845.84049  -4861247.32945  24717990.341    24717997.292
  21229828.697   -21845339.85849 -17002970.51947  21229828.116    21229834.115
  23321105.348    -9639756.39849  -7175050.88846  23321105.065    23321111.978
  20604113.975   -27120842.40449 -21118973.27248  20604113.229    20604119.323
  20459677.989   -28769250.35649 -21705132.57348  20459677.480    20459682.198
 03  2 28  1 37  0.0000000  0 10G16G14G 6G26G17G29G23G 3G15G18
  24184173.950    -6025233.50349  -4677397.62445  24184173.335    24184181.212
  24030660.925    -6852997.99549  -4979269.57145  24030660.231    24030670.257
  23149754.254   -15475590.78249 -12046964.31246  23149753.989    23149762.094
  22839654.668   -15382377.38249 -11413614.84846  22839654.736    22839661.229
  20800691.550   -25272883.69449 -19674649.27747  20800690.871    20800697.196
  24735459.395    -6178045.06449  -4789714.22845  24735459.388    24735466.442
  21238352.809   -21800545.33849 -16968065.68547  21238352.215    21238358.223
  23305556.505    -9721465.85349  -7238720.52846  23305556.219    23305563.054
  20597785.118   -27154100.50149 -21144888.63748  20597784.371    20597790.486
  20459222.844   -28771641.92649 -21706996.10748  20459222.345    20459227.049
 03  2 28  1 37 30.0000000  0 10G16G14G 6G26G17G29G23G 3G15G18
  24193917.145    -5974032.50349  -4637500.78745  24193916.640    24193924.479
  24009228.205    -6965625.68049  -5067031.02945  24009227.618    24009237.621
  23169696.006   -15370796.13549 -11965306.18246  23169695.773    23169703.889
  22855928.332   -15296858.71649 -11346976.90946  22855928.390    22855934.875
  20803116.748   -25260139.20549 -19664718.49247  20803116.072    20803122.381
  24752973.107    -6086009.97549  -4717998.54245  24752973.073    24752980.073
  21246913.899   -21755556.43449 -16933009.38147  21246913.318    21246919.313
  23290071.444    -9802840.28549  -7302129.12446  23290071.150    23290077.919
  20591500.315   -27187127.15049 -21170623.65948  20591499.552    20591505.688
  20458833.393   -28773688.41649 -21708590.75848  20458832.895    20458837.600
 03  2 28  1 38  0.0000000  0 10G16G14G 6G26G17G29G23G 3G15G18
  24203718.290    -5922527.02149  -4597366.69745  24203717.855    24203725.695
  23987810.243    -7078176.18049  -5154732.35745  23987809.696    23987819.594
  23189673.976   -15265811.22349 -11883499.81046  23189673.703    23189681.929
  22872283.536   -15210911.32049 -11280004.89146  22872283.587    22872290.096
  20805592.223   -25247130.54949 -19654581.85847  20805591.529    20805597.843
  24770531.187    -5993741.75849  -4646101.16745  24770530.989    24770538.151
  21255511.904   -21710373.55649 -16897801.92947  21255511.306    21255517.306
  23274650.809    -9883876.08849  -7365273.84346  23274650.525    23274657.300
  20585260.076   -27219919.69249 -21196176.25948  20585259.312    20585265.445
  20458509.678   -28775389.42649 -21709916.20048  20458509.179    20458513.866
 03  2 28  1 38 30.0000000  0 10G16G14G 6G26G17G29G23G 3G15G18
  24213576.614    -5870721.22349  -4556998.59145  24213576.100    24213584.015
  23966407.255    -7190648.35749  -5242372.64945  23966406.662    23966416.613
  23209687.463   -15160639.84649 -11801548.13646  23209687.148    23209695.435
  22888719.445   -15124539.56149 -11212702.20046  22888719.479    22888726.038
  20808117.842   -25233858.25349 -19644239.79447  20808117.150    20808123.447
  24788132.936    -5901244.28949  -4574025.16345  24788132.743    24788139.750
  21264146.228   -21664999.86349 -16862445.79047  21264145.628    21264151.629
  23259294.859    -9964572.12549  -7428153.81446  23259294.546    23259301.241
  20579064.333   -27252478.48849 -21221546.71648  20579063.581    20579069.685
  20458251.251   -28776747.33549 -21710974.28248  20458250.758    20458255.444
 03  2 28  1 39  0.0000000  0 10G16G14G 6G26G17G29G23G 3G15G18
  24223491.821    -5818616.51249  -4516397.57345  24223491.306    24223499.181
  23945019.808    -7303038.52549  -5329949.05645  23945019.229    23945029.164
  23229736.165   -15055283.40649 -11719452.25746  23229735.868    23229744.148
  22905235.870   -15037745.37349 -11145070.34546  22905235.856    22905242.443
  20810694.022   -25220320.24049 -19633690.68047  20810693.327    20810699.624
  24805777.850    -5808519.03549  -4501771.67445  24805777.628    24805784.827
  21272816.783   -21619435.79649 -16826941.31447  21272816.186    21272822.170
  23244004.319   -10044924.72249  -7490766.17046  23244003.961    23244010.614
  20572913.517   -27284801.20049 -21246733.21848  20572912.749    20572918.869
  20458058.140   -28777762.09749 -21711764.97648  20458057.642    20458062.330
 03  2 28  1 39 30.0000000  0 10G16G14G 6G26G17G29G23G 3G15G18
  24233463.170    -5766216.89649  -4475566.75945  24233462.612    24233470.511
  23923648.327    -7415345.11249  -5417460.32045  23923647.695    23923657.513
  23249819.435   -14949745.32249 -11637214.85146  23249819.095    23249827.436
  22921831.922   -14950532.60049 -11077112.33246  22921831.896    22921838.435
  20813320.769   -25206516.58549 -19622934.57247  20813320.068    20813326.375
  24823465.579    -5715569.52949  -4429343.43145  24823465.332    24823472.519
  21281523.053   -21573684.03649 -16791290.57947  21281522.459    21281528.466
  23228779.270   -10124932.80649  -7553110.07946  23228778.911    23228785.484
  20566807.619   -27316887.61049 -21271735.58848  20566806.866    20566812.980
  20457929.913   -28778435.68449 -21712289.82648  20457929.420    20457934.109
 03  2 28  1 40  0.0000000  0 10G16G14G 6G26G17G29G23G 3G15G18
  24243490.204    -5713524.38249  -4434507.70445  24243489.661    24243497.560
  23902293.403    -7527564.68349  -5504903.80345  23902292.788    23902302.399
  23269936.843   -14844027.53049 -11554837.40346  23269936.528    23269944.996
  22938507.195   -14862903.48949 -11008829.89946  22938507.192    22938513.669
  20815998.302   -25192446.01949 -19611970.48047  20815997.625    20816003.884
  24841195.555    -5622397.57249  -4356741.85345  24841195.409    24841202.521
  21290264.872   -21527745.54349 -16755494.33747  21290264.267    21290270.242
  23213620.438   -10204593.07449  -7615182.95546  23213620.025    23213626.576
  20560747.046   -27348736.10149 -21296552.56348  20560746.282    20560752.410
  20457866.552   -28778768.62149 -21712549.23148  20457866.054    20457870.728
 03  2 28  1 40 30.0000000  0 10G16G14G 6G26G17G29G23G 3G15G18
  24253572.516    -5660541.70949  -4393222.55645  24253572.031    24253579.927
  23880955.550    -7639694.43849  -5592277.30645  23880954.939    23880964.434
  23290088.098   -14738132.25349 -11472321.66746  23290087.758    23290096.237
  22955261.133   -14774860.96849 -10940225.33146  22955261.043    22955267.558
  20818726.850   -25178107.18249 -19600797.34947  20818726.166    20818732.435
  24858967.341    -5529005.54349  -4283968.81345  24858967.255    24858974.407
  21299041.900   -21481621.82049 -16719553.76047  21299041.301    21299047.277
  23198528.200   -10283903.15849  -7676982.95846  23198527.734    23198534.274
  20554732.012   -27380345.25549 -21321183.04148  20554731.246    20554737.372
  20457867.831   -28778761.79849 -21712543.88648  20457867.313    20457871.970
 03  2 28  1 41  0.0000000  0 10G16G14G 6G26G17G29G23G 3G15G18
  24263709.439    -5607271.80649  -4351713.58845  24263708.934    24263716.941
  23859635.295    -7751732.01249  -5679578.99845  23859634.749    23859643.987
  23310272.600   -14632062.23949 -11389669.75046  23310272.235    23310280.720
  22972093.135   -14686408.33049 -10871301.17646  22972093.051    22972099.559
  20821506.608   -25163499.44549 -19589414.68447  20821505.912    20821512.210
  24876780.364    -5435396.34249  -4211026.52245  24876780.373    24876787.636
  21307853.825   -21435314.85649 -16683470.40347  21307853.230    21307859.210
  23183502.944   -10362860.97049  -7738508.46246  23183502.506    23183509.070
  20548762.587   -27411714.41449 -21345626.51648  20548761.858    20548767.968
  20457933.432   -28778416.90849 -21712275.11948  20457932.918    20457937.588
 03  2 28  1 41 30.0000000  0 10G16G14G 6G26G17G29G23G 3G15G18
  24273900.595    -5553717.27549  -4309982.83545  24273900.089    24273908.072
  23838333.066    -7863674.58549  -5766806.67145  23838332.636    23838341.728
  23330489.841   -14525819.90049 -11306883.57646  23330489.538    23330497.969
  22989002.647   -14597548.08949 -10802059.41446  22989002.575    22989009.054
  20824337.671   -25148621.88549 -19577821.76747  20824337.002    20824343.303
  24894634.377    -5341572.13449  -4137916.68145  24894634.493    24894641.795
  21316700.347   -21388825.94349 -16647245.26347  21316699.766    21316705.703
  23168545.187   -10441463.83549  -7799757.38246  23168544.800    23168551.431
  20542839.173   -27442842.11949 -21369881.84248  20542838.439    20542844.547
  20458063.275   -28777734.48249 -21711743.33048  20458062.758    20458067.410
 03  2 28  1 42  0.0000000  0  9G16G14G 6G26G17G23G 3G15G18
  24284145.440    -5499880.52749  -4268032.16345  24284144.977    24284152.863
  23817049.502    -7975519.09149  -5853957.93945  23817049.151    23817057.983
  23350739.590   -14419407.17849 -11223964.62646  23350739.240    23350747.732
  23005989.168   -14508282.98849 -10732502.17446  23005989.116    23005995.662
  20827220.386   -25133472.99449 -19566017.42347  20827219.726    20827226.032
  21325581.301   -21342156.26249 -16610879.26547  21325580.698    21325586.649
  23153655.593   -10519708.77149  -7860727.38946  23153655.238    23153661.922
  20536962.039   -27473726.51349 -21393947.58148  20536961.307    20536967.402
  20458257.215   -28776715.34149 -21710949.17148  20458256.714    20458261.321
 03  2 28  1 42 30.0000000  0  9G16G14G 6G26G17G23G 3G15G18
  24294443.199    -5445765.41749  -4225864.57645  24294442.668    24294450.767
  23795784.909    -8087263.86249  -5941031.50445  23795784.522    23795793.271
  23371021.112   -14312827.52249 -11140915.61545  23371020.759    23371029.273
  23023051.989   -14418616.96049 -10662632.52846  23023051.993    23023058.547
  20830154.629   -25118053.29449 -19554002.05647  20830153.964    20830160.304
  21334496.103   -21295308.64749 -16574374.61347  21334495.496    21334501.431
  23138834.348   -10597594.42449  -7921417.43646  23138833.999    23138840.720
  20531131.247   -27504367.51649 -21417823.65448  20531130.494    20531136.601
  20458514.820   -28775361.58349 -21709894.26448  20458514.305    20458518.923
 03  2 28  1 43  0.0000000  0  9G16G14G 6G26G17G23G 3G15G18
  24304793.519    -5391373.89649  -4183481.62445  24304793.121    24304801.182
  23774539.978    -8198905.71049  -6028024.87945  23774539.529    23774548.174
  23391334.003   -14206082.83049 -11057737.99646  23391333.687    23391342.158
  23040190.730   -14328552.38849 -10592452.32446  23040190.708    23040197.313
  20833140.793   -25102360.80449 -19541774.12847  20833140.137    20833146.456
  21343444.532   -21248284.07549 -16537732.07847  21343443.951    21343449.863
  23124082.030   -10675118.21049  -7981825.50946  23124081.612    23124088.380
  20525347.072   -27534763.32049 -21441508.67148  20525346.348    20525352.450
  20458836.019   -28773673.47449 -21708578.83048  20458835.523    20458840.131
 03  2 28  1 43 30.0000000  0  9G16G14G 6G26G17G23G 3G15G18
  24315195.866    -5336709.69949  -4140886.20445  24315195.341    24315203.344
  23753315.072    -8310442.44149  -6114936.34145  23753314.613    23753323.174
  23411677.687   -14099176.18549 -10974434.18945  23411677.393    23411685.858
  23057404.670   -14238092.93349 -10521964.41746  23057404.641    23057411.130
  20836178.911   -25086395.20149 -19529333.38847  20836178.254    20836184.564
  21352426.281   -21201084.69249 -16500953.32547  21352425.683    21352431.605
  23109398.913   -10752278.05549  -8041949.99246  23109398.436    23109405.278
  20519609.717   -27564913.19049 -21465002.04648  20519608.980    20519615.093
  20459220.503   -28771652.95949 -21707004.38148  20459219.997    20459224.609
 03  2 28  1 44  0.0000000  0  9G16G14G 6G26G17G23G 3G15G18
  24325649.521    -5281774.91949  -4098079.93945  24325648.992    24325657.027
  23732110.875    -8421870.98049  -6201763.50845  23732110.392    23732118.745
  23432051.864   -13992109.59049 -10891005.74445  23432051.548    23432059.953
  23074693.228   -14147241.06649 -10451170.73746  23074693.142    23074699.656
  20839269.221   -25070155.53649 -19516679.08747  20839268.555    20839274.862
  21361441.034   -21153711.62349 -16464039.22947  21361440.433    21361446.365
  23094785.641   -10829071.06649  -8101788.63046  23094785.183    23094792.011
  20513919.516   -27594815.31349 -21488302.37348  20513918.799    20513924.884
  20459668.115   -28769300.52949 -21705171.29148  20459667.617    20459672.230
 03  2 28  1 44 30.0000000  0  9G16G14G 6G26G17G23G 3G15G18
  24336154.248    -5226572.67249  -4055065.24745  24336153.861    24336161.710
  23710927.603    -8533188.94049  -6288504.49645  23710927.067    23710935.378
  23452455.867   -13884885.84749 -10807454.84645  23452455.593    23452463.978
  23092055.801   -14056000.01149 -10380073.78146  23092055.762    23092062.260
  20842411.814   -25053641.06649 -19503810.65347  20842411.149    20842417.459
  21370488.463   -21106166.84449 -16426991.33547  21370487.889    21370493.819
  23080242.566   -10905495.27949  -8161339.90546  23080242.111    23080248.841
  20508276.644   -27624468.86149 -21511409.00148  20508275.906    20508281.988
  20460178.604   -28766617.63749 -21703080.69548  20460178.103    20460182.729
 03  2 28  1 45  0.0000000  0  9G16G14G 6G26G17G23G 3G15G18
  24346709.374    -5171105.51649  -4011844.13545  24346709.003    24346716.798
  23689765.895    -8644393.22649  -6375156.92545  23689765.387    23689773.671
  23472889.354   -13777507.02049 -10723783.09945  23472889.167    23472897.510
  23109491.963   -13964372.30649 -10308675.55646  23109491.902    23109498.399
  20845606.932   -25036850.51049 -19490727.09047  20845606.287    20845612.549
  21379568.384   -21058451.44349 -16389810.49247  21379567.803    21379573.738
  23065770.164   -10981548.05149  -8220601.74746  23065769.750    23065776.432
  20502681.304   -27653872.40349 -21534320.82948  20502680.560    20502686.640
  20460751.897   -28763604.90949 -21700733.09448  20460751.407    20460756.040
 03  2 28  1 45 30.0000000  0  9G16G14G 6G26G17G23G 3G15G18
  24357314.442    -5115376.51949  -3968419.00745  24357314.082    24357321.787
  23668626.232    -8755481.37249  -6461718.85545  23668625.752    23668634.077
  23493351.882   -13669975.94549 -10639992.72245  23493351.691    23493360.035
  23127001.005   -13872361.44549 -10236978.75746  23127000.980    23127007.485
  20848854.795   -25019782.86249 -19477427.60747  20848854.139    20848860.394
  21388680.420   -21010567.36249 -16352498.20447  21388679.835    21388685.779
  23051368.872   -11057227.07949  -8279572.35546  23051368.529    23051375.164
  20497133.732   -27683024.89849 -21557037.03148  20497132.990    20497139.067
  20461387.711   -28760263.74649 -21698129.56848  20461387.196    20461391.808
 03  2 28  1 46  0.0000000  0  9G16G14G 6G26G17G23G 3G15G18
  24367968.665    -5059388.55549  -3924792.08245  24367968.306    24367975.967
  23647509.301    -8866450.57049  -6548188.09145  23647508.781    23647517.044
  23513842.954   -13562294.94449 -10556085.53045  23513842.755    23513851.123
  23144582.428   -13779970.07649 -10164985.47246  23144582.399    23144588.930
  20852155.490   -25002437.56449 -19463911.77547  20852154.824    20852161.078
  21397824.322   -20962515.98149 -16315055.55647  21397823.745    21397829.645
  23037039.173   -11132530.03349  -8338249.93046  23037038.870    23037045.396
  20491634.230   -27711924.91649 -21579556.49948  20491633.477    20491639.539
  20462085.799   -28756595.09449 -21695270.85548  20462085.303    20462089.910
 03  2 28  1 46 30.0000000  0  9G16G14G 6G26G17G23G 3G15G18
  24378671.621    -5003144.17049  -3880965.34845  24378671.377    24378678.932
  23626415.569    -8977298.05949  -6634562.47345  23626414.914    23626423.270
  23534362.161   -13454466.20549 -10472063.21245  23534361.930    23534370.404
  23162235.781   -13687201.12149 -10092697.94546  23162235.798    23162242.263
  20855509.264   -24984813.33449 -19450178.59447  20855508.592    20855514.848
  21406999.766   -20914298.65149 -16277483.59547  21406999.183    21407005.079
  23022781.490   -11207454.50349  -8396632.57246  23022781.170    23022787.702
  20486183.015   -27740571.11749 -21601878.18248  20486182.251    20486188.294
  20462846.009   -28752600.08049 -21692157.82648  20462845.507    20462850.106
 03  2 28  1 47  0.0000000  0  9G16G14G 6G26G17G23G 3G15G18
  24389422.914    -4946646.34749  -3836941.10445  24389422.434    24389430.134
  23605345.315    -9088021.53049  -6720840.23745  23605344.700    23605353.049
  23554908.894   -13346492.67749 -10387928.08245  23554908.655    23554917.183
  23179960.319   -13594058.09549 -10020118.93746  23179960.338    23179966.731
  20858916.220   -24966909.68449 -19436227.67747  20858915.543    20858921.802
  21416206.406   -20865917.34849 -16239783.86747  21416205.839    21416211.715
  23008596.162   -11281998.55949  -8454718.78746  23008595.821    23008602.386
  20480780.273   -27768962.61349 -21624001.39648  20480779.502    20480785.544
  20463667.985   -28748280.30049 -21688791.74148  20463667.488    20463672.086
 03  2 28  1 47 30.0000000  0  9G16G14G 6G26G17G23G 3G15G18
  24400221.815    -4889897.58649  -3792721.34445  24400221.388    24400229.131
  23584299.360    -9198617.84749  -6807018.92545  23584298.800    23584307.048
  23575482.841   -13238376.47349 -10303681.77545  23575482.603    23575491.108
  23197755.540   -13500543.46049  -9947250.38146  23197755.548    23197761.874
  20862376.591   -24948725.03249 -19422057.80547  20862375.918    20862382.207
  21425444.075   -20817373.13349 -16201957.19747  21425443.484    21425449.342
  22994483.803   -11356159.42249  -8512506.41346  22994483.420    22994489.926
  20475426.286   -27797097.85749 -21645924.93248  20475425.518    20475431.553
  20464551.693   -28743636.33049 -21685173.04348  20464551.186    20464555.772
 03  2 28  1 48  0.0000000  0  9G16G14G 6G26G17G23G 3G15G18
  24411067.883    -4832901.26649  -3748308.67445  24411067.490    24411075.214
  23563277.928    -9309084.90649  -6893096.88845  23563277.403    23563285.616
  23596083.351   -13130120.40249 -10219326.47945  23596083.131    23596091.665
  23215620.898   -13406660.65449  -9874094.92845  23215620.870    23215627.122
  20865890.539   -24930259.10349 -19407668.75347  20865889.855    20865896.144
  21434712.317   -20768668.06449 -16164005.18647  21434711.728    21434717.597
  22980444.657   -11429935.17149  -8569993.96246  22980444.309    22980450.835
  20470121.236   -27824975.94249 -21667648.08348  20470120.481    20470126.489
  20465496.805   -28738669.59049 -21681302.83148  20465496.302    20465500.862
 03  2 28  1 48 30.0000000  0  9G16G14G 6G26G17G23G 3G15G18
  24421960.526    -4775660.35149  -3703705.40745  24421960.129    24421967.979
  23542281.598    -9419419.95449  -6979071.98745  23542281.128    23542289.302
  23616709.919   -13021727.11449 -10134864.25945  23616709.712    23616718.320
  23233555.607   -13312412.81649  -9800655.02345  23233555.594    23233561.892
  20869458.049   -24911511.55949 -19393060.25847  20869457.365    20869463.677
  21444010.863   -20719803.69549 -16125929.03847  21444010.281    21444016.153
  22966479.243   -11503323.50049  -8627179.61846  22966478.908    22966485.413
  20464865.307   -27852595.79549 -21689170.01048  20464864.549    20464870.562
  20466503.135   -28733381.29249 -21677182.05048  20466502.635    20466507.186
 03  2 28  1 49  0.0000000  0 10G16G14G 6G 9G26G17G23G 3G15G18
  24432899.173    -4718177.49749  -3658913.60945  24432898.796    24432906.616
  23521311.017    -9529620.01749  -7064941.90945  23521310.567    23521318.633
  23637362.216   -12913198.79249 -10050296.82445  23637361.955    23637370.602
  24470910.683    -8519739.03049  -6080345.49945  24470910.471    24470918.912
  23251559.279   -13217802.87749  -9726932.97245  23251559.320    23251565.497
  20873079.508   -24892480.62549 -19378230.94447  20873078.828    20873085.130
  21453339.471   -20670781.37449 -16087729.81947  21453338.903    21453344.776
  22952588.042   -11576321.99149  -8684061.50346  22952587.694    22952594.200
  20459658.808   -27879955.98949 -21710489.61148  20459658.054    20459664.053
  20467570.435   -28727772.25149 -21672811.34348  20467569.946    20467574.492
 03  2 28  1 49 30.0000000  0 10G16G14G 6G 9G26G17G23G 3G15G18
  24443883.390    -4660455.40949  -3613935.42545  24443882.972    24443890.773
  23500366.651    -9639682.60649  -7150704.71945  23500366.185    23500374.114
  23658039.627   -12804538.01749  -9965626.17645  23658039.470    23658048.113
  24457640.160    -8589476.51049  -6134686.29345  24457639.809    24457648.181
  23269631.363   -13122833.72849  -9652931.00745  23269631.300    23269637.473
  20876755.036   -24873165.47649 -19363180.16247  20876754.354    20876760.664
  21462697.829   -20621602.69349 -16049408.75547  21462697.274    21462703.155
  22938771.437   -11648928.25749  -8740637.76346  22938771.129    22938777.606
  20454502.000   -27907055.06249 -21731605.73748  20454501.244    20454507.254
  20468698.565   -28721843.91549 -21668191.83248  20468698.075    20468702.632
 03  2 28  1 50  0.0000000  0 10G16G14G 6G 9G26G17G23G 3G15G18
  24454912.477    -4602497.08349  -3568773.13845  24454912.106    24454920.023
  23479449.009    -9749604.90149  -7236358.21945  23479448.517    23479456.265
  23678741.835   -12695747.29549  -9880854.28945  23678741.648    23678750.393
  24444404.701    -8659028.58549  -6188882.59845  24444404.321    24444412.831
  23287771.128   -13027508.46149  -9578651.55645  23287771.032    23287777.188
  20880484.717   -24853565.61849 -19347907.52947  20880484.052    20880490.349
  21472085.682   -20572269.15249 -16010967.02547  21472085.105    21472091.003
  22925029.967   -11721140.03049  -8796906.62046  22925029.653    22925036.141
  20449395.093   -27933891.85549 -21752517.49548  20449394.349    20449400.342
  20469887.250   -28715597.17549 -21663324.21748  20469886.762    20469891.314
 03  2 28  1 50 30.0000000  0 10G16G14G 6G 9G26G17G23G 3G15G18
  24465986.118    -4544305.01349  -3523428.72345  24465985.680    24465993.649
  23458558.594    -9859383.98949  -7321900.13245  23458558.089    23458565.659
  23699468.462   -12586828.50049  -9795982.60145  23699468.219    23699476.950
  24431205.286    -8728391.65749  -6242931.62645  24431204.799    24431213.239
  23305978.153   -12931829.60049  -9504096.58745  23305978.087    23305984.292
  20884268.905   -24833679.44649 -19332411.79847  20884268.242    20884274.554
  21481502.785   -20522781.72149 -15972405.38247  21481502.235    21481508.125
  22911364.096   -11792954.69949  -8852866.05146  22911363.743    22911370.181
  20444338.466   -27960464.50449 -21773223.42448  20444337.710    20444343.696
  20471136.406   -28709032.79249 -21658209.08948  20471135.908    20471140.452
 03  2 28  1 51  0.0000000  0 10G16G14G 6G 9G26G17G23G 3G15G18
  24477103.587    -4485882.70949  -3477904.89645  24477103.135    24477111.081
  23437695.713    -9969017.84849  -7407328.89345  23437695.312    23437702.725
  23720218.832   -12477784.95549  -9711013.70845  23720218.545    23720227.266
  24418042.392    -8797563.03749  -6296831.27845  24418041.951    24418050.260
  23324251.745   -12835800.88949  -9429269.00745  23324251.726    23324257.885
  20888107.659   -24813506.47749 -19316692.58647  20888107.005    20888113.342
  21490948.788   -20473142.69849 -15933725.61347  21490948.226    21490954.127
  22897774.072   -11864370.76049  -8908514.88746  22897773.681    22897780.106
  20439332.210   -27986772.34149 -21793723.00848  20439331.455    20439337.442
  20472445.599   -28702152.76149 -21652848.00848  20472445.091    20472449.625
 03  2 28  1 51 30.0000000  0 10G16G14G 6G 9G26G17G23G 3G15G18
  24488264.242    -4427233.15749  -3432204.00345  24488263.767    24488271.877
  23416861.079   -10078503.78049  -7492642.38545  23416860.545    23416867.990
  23740992.410   -12368619.34049  -9625949.68545  23740992.183    23741000.858
  24404916.597    -8866539.59349  -6350579.14145  24404916.188    24404924.450
  23342591.359   -12739425.43349  -9354171.22645  23342591.420    23342597.573
  20892001.141   -24793046.12149 -19300749.43347  20892000.479    20892006.811
  21500423.306   -20423353.65849 -15894928.94647  21500422.757    21500428.652
  22884260.249   -11935386.00049  -8963851.38746  22884259.916    22884266.284
  20434376.541   -28012814.39249 -21814015.48948  20434375.796    20434381.753
  20473814.668   -28694958.16949 -21647241.81248  20473814.163    20473818.697
 03  2 28  1 52  0.0000000  0 10G16G14G 6G 9G26G17G23G 3G15G18
  24499467.634    -4368358.88849  -3386328.01845  24499467.181    24499475.410
  23396055.061   -10187838.82149  -7577838.29245  23396054.529    23396061.987
  23761788.829   -12259333.63849  -9540792.09045  23761788.745    23761797.323
  24391828.423    -8935317.85949  -6404172.46745  24391828.009    24391836.367
  23360996.417   -12642706.14749  -9278805.53945  23360996.439    23361002.718
  20895949.404   -24772297.72149 -19284581.83047  20895948.736    20895955.090
  21509926.146   -20373415.81449 -15856016.32447  21509925.578    21509931.472
  22870823.200   -12005997.89749  -9018873.59546  22870822.849    22870829.209
  20429471.797   -28038589.05649 -21834099.61448  20429471.052    20429476.991
  20475243.358   -28687450.13549 -21641391.36948  20475242.864    20475247.386
 03  2 28  1 52 30.0000000  0 10G16G14G 6G 9G26G17G23G 3G15G18
  24510713.240    -4309262.46549  -3340278.91445  24510712.816    24510721.131
  23375278.341   -10297019.96049  -7662914.29145  23375277.772    23375285.286
  23782607.690   -12149930.04249  -9455542.62945  23782607.574    23782616.101
  24378778.585    -9003894.05849  -6457608.32545  24378778.194    24378786.619
  23379466.423   -12545645.48249  -9203173.83645  23379466.432    23379472.742
  20899952.814   -24751259.61649 -19268188.48847  20899952.144    20899958.470
  21519457.136   -20323330.25649 -15816988.60547  21519456.570    21519462.452
  22857463.439   -12076203.79149  -9073579.43446  22857463.088    22857469.446
  20424618.263   -28064094.55649 -21853974.00348  20424617.502    20424623.424
  20476731.637   -28679629.30549 -21635297.19648  20476731.134    20476735.636
 03  2 28  1 53  0.0000000  0 10G16G14G 6G 9G26G17G23G 3G15G18
  24522000.692    -4249947.37549  -3294059.43245  24522000.242    24522008.434
  23354531.286   -10406044.96149  -7747868.63245  23354530.745    23354538.302
  23803448.487   -12040411.54349  -9370203.62845  23803448.316    23803456.928
  24365767.840    -9072265.65849  -6510884.75745  24365767.380    24365775.834
  23398000.641   -12448247.11649  -9127278.99345  23398000.691    23398007.041
  20904011.474   -24729931.15549 -19251568.89447  20904010.805    20904017.120
  21529015.865   -20273098.95849 -15777847.31947  21529015.293    21529021.146
  22844181.214   -12146002.15549  -9127967.71946  22844180.813    22844187.241
  20419816.066   -28089330.07349 -21873638.01748  20419815.306    20419821.219
  20478279.104   -28671497.26049 -21628960.51448  20478278.603    20478283.096
 03  2 28  1 53 30.0000000  0 10G16G14G 6G 9G26G17G23G 3G15G18
  24533329.219    -4190416.18749  -3247671.55545  24533328.690    24533336.925
  23333814.590   -10514910.95149  -7832699.07245  23333814.097    23333821.633
  23824310.690   -11930780.40149  -9284776.87445  23824310.483    23824319.172
  24352796.759    -9140428.71249  -6563998.66845  24352796.489    24352804.741
  23416598.646   -12350513.66749  -9051123.03845  23416598.717    23416605.116
  20908125.518   -24708311.69149 -19234722.53847  20908124.846    20908131.143
  21538602.077   -20222723.02849 -15738593.33447  21538601.487    21538607.348
  22830977.029   -12215390.06549  -9182036.16346  22830976.624    22830983.118
  20415065.549   -28114294.11249 -21893090.48848  20415064.785    20415070.693
  20479885.618   -28663054.80149 -21622381.94548  20479885.121    20479889.591
 03  2 28  1 54  0.0000000  0 10G16G14G 6G 9G26G17G23G 3G15G18
  24544698.175    -4130672.31749  -3201117.94245  24544697.630    24544705.853
  23313128.602   -10623615.82349  -7917403.97545  23313128.068    23313135.600
  23845193.652   -11821039.80649  -9199264.84045  23845193.446    23845202.263
  24339865.664    -9208380.86549  -6616948.24045  24339865.462    24339873.870
  23435259.726   -12252449.02949  -8974709.02145  23435259.747    23435266.148
  20912294.950   -24686401.13049 -19217649.35847  20912294.290    20912300.585
  21548215.342   -20172204.81449 -15699228.47947  21548214.771    21548220.653
  22817851.207   -12284366.07349  -9235783.64446  22817850.831    22817857.386
  20410366.810   -28138986.04649 -21912330.93448  20410366.058    20410371.958
  20481550.898   -28654303.73949 -21615562.91148  20481550.398    20481554.873
 03  2 28  1 54 30.0000000  0 10G16G14G 6G 9G26G17G23G 3G15G18
  24556107.199    -4070717.58849  -3154400.05945  24556106.661    24556114.896
  23292473.960   -10732155.82249  -8001980.42046  23292473.457    23292480.964
  23866097.204   -11711191.08149  -9113668.56045  23866097.004    23866105.901
  24326975.640    -9276117.86449  -6669730.16745  24326975.386    24326983.858
  23453983.382   -12154055.23049  -8898038.50845  23453983.405    23453989.853
  20916520.246   -24664197.11649 -19200347.51347  20916519.575    20916525.864
  21557855.644   -20121544.60849 -15659752.98447  21557855.068    21557860.958
  22804804.402   -12352927.15949  -9289207.81246  22804804.043    22804810.611
  20405720.275   -28163403.70249 -21931357.65848  20405719.524    20405725.431
  20483274.850   -28645244.21449 -21608503.52048  20483274.364    20483278.812
 03  2 28  1 55  0.0000000  0 10G16G14G 6G 9G26G17G23G 3G15G18
  24567555.542    -4010556.25449  -3107521.17145  24567555.075    24567563.454
  23271850.965   -10840529.58849  -8086427.34646  23271850.513    23271857.961
  23887020.694   -11601237.85849  -9027990.84345  23887020.410    23887029.464
  24314126.918    -9343637.77449  -6722342.91245  24314126.760    24314135.129
  23472769.018   -12055336.25649  -8821114.60445  23472769.031    23472775.388
  20920801.290   -24641699.86249 -19182817.16947  20920800.631    20920806.906
  21567522.493   -20070744.98149 -15620168.84547  21567521.905    21567527.779
  22791836.810   -12421071.98049  -9342307.62046  22791836.470    22791843.002
  20401126.013   -28187546.72249 -21950170.37548  20401125.245    20401131.145
  20485057.047   -28635878.61549 -21601205.62448  20485056.540    20485060.986
 03  2 28  1 55 30.0000000  0 10G16G14G 6G 9G26G17G23G 3G15G18
  24579042.658    -3950190.64549  -3060483.11145  24579042.303    24579050.659
  23251260.386   -10948733.66249  -8170742.04746  23251259.908    23251267.291
  23907963.769   -11491181.97449  -8942233.13545  23907963.451    23907972.524
  24301320.260    -9410936.33049  -6774783.18345  24301320.087    24301328.536
  23491616.073   -11956294.60249  -8743939.25945  23491616.072    23491622.429
  20925138.360   -24618908.33449 -19165057.51847  20925137.709    20925143.980
  21577215.699   -20019806.61849 -15580476.59847  21577215.125    21577221.032
  22778949.045   -12488797.74049  -9395080.88346  22778948.672    22778955.215
  20396584.331   -28211413.35349 -21968767.72648  20396583.569    20396589.442
  20486897.461   -28626207.29449 -21593669.50548  20486896.956    20486901.379
 03  2 28  1 56  0.0000000  0 10G16G14G 6G 9G26G17G23G 3G15G18
  24590568.197    -3889623.82849  -3013288.25845  24590567.765    24590576.066
  23230702.454   -11056765.74149  -8254922.73246  23230701.980    23230709.254
  23928925.890   -11381026.30749  -8856397.67945  23928925.579    23928934.626
  24288556.425    -9478010.68049  -6827048.74445  24288556.163    24288564.646
  23510523.782   -11856933.69349  -8666515.14745  23510523.833    23510530.187
  20929531.585   -24595821.63049 -19147067.85747  20929530.927    20929537.214
  21586934.957   -19968731.43649 -15540677.73847  21586934.386    21586940.318
  22766141.303   -12556102.75549  -9447526.29046  22766140.889    22766147.456
  20392095.416   -28235002.61049 -21987148.93948  20392094.647    20392100.535
  20488795.709   -28616231.78349 -21585896.35748  20488795.212    20488799.632
 03  2 28  1 56 30.0000000  0 10G16G14G 6G 9G26G17G23G 3G15G18
  24602131.297    -3828858.71949  -2965938.93045  24602130.890    24602139.256
  23210177.713   -11164623.18949  -8338967.34846  23210177.229    23210184.511
  23949906.436   -11270773.46049  -8770486.50345  23949906.145    23949915.142
  24275835.834    -9544857.83149  -6879137.27245  24275835.519    24275843.853
  23529491.658   -11757256.72649  -8588844.74445  23529491.702    23529498.002
  20933981.094   -24572439.19349 -19128847.76247  20933980.437    20933986.725
  21596679.987   -19917520.97449 -15500773.46647  21596679.400    21596685.317
  22753413.980   -12622984.94249  -9499642.23346  22753413.560    22753420.117
  20387659.515   -28258313.19949 -22005313.01148  20387658.758    20387664.641
  20490751.583   -28605953.43149 -21577887.22748  20490751.088    20490755.505
 03  2 28  1 57  0.0000000  0 10G16G14G 6G 9G26G17G23G 3G15G18
  24613731.756    -3767898.12849  -2918437.26645  24613731.269    24613739.623
  23189686.805   -11272303.11949  -8422873.64746  23189686.315    23189693.574
  23970904.958   -11160425.76849  -8684501.43845  23970904.828    23970913.719
  24263159.016    -9611474.50149  -6931046.20445  24263158.655    24263167.012
  23548519.238   -11657266.41249  -8510930.18145  23548519.259    23548525.489
  20938487.092   -24548759.80649 -19110396.27747  20938486.438    20938492.747
  21606450.539   -19866176.38249 -15460764.67547  21606449.956    21606455.863
  22740767.603   -12689442.00049  -9551426.90446  22740767.174    22740773.713
  20383276.892   -28281343.74049 -22023258.86248  20383276.142    20383282.032
  20492764.905   -28595373.30349 -21569642.94848  20492764.404    20492768.788
 03  2 28  1 57 30.0000000  0 10G16G14G 6G 9G26G17G23G 3G15G18
  24625368.565    -3706745.98749  -2870786.31645  24625368.202    24625376.617
  23169230.011   -11379803.97849  -8506640.41046  23169229.486    23169236.658
  23991920.835   -11049986.58049  -8598445.06345  23991920.779    23991929.766
  24250526.426    -9677858.21449  -6982773.62345  24250526.060    24250534.446
  23567605.645   -11556966.79849  -8432774.61745  23567605.636    23567611.804
  20943049.584   -24524783.69349 -19091713.57447  20943048.949    20943055.248
  21616246.160   -19814699.95649 -15420653.15647  21616245.575    21616251.509
  22728202.413   -12755472.40349  -9602879.11546  22728201.963    22728208.504
  20378947.685   -28304093.80849 -22040986.16448  20378946.939    20378952.807
  20494835.238   -28584493.41849 -21561165.09448  20494834.731    20494839.136
 03  2 28  1 58  0.0000000  0 10G16G14G 6G 9G26G17G23G 3G15G18
  24637041.841    -3645403.49949  -2822987.07345  24637041.421    24637049.793
  23148808.137   -11487121.19249  -8590264.08246  23148807.605    23148814.666
  24012954.149   -10939456.67349  -8512317.99445  24012953.998    24012962.984
  24237939.122    -9744004.06749  -7034315.70245  24237938.824    24237947.201
  23586750.616   -11456359.21749  -8354379.07245  23586750.642    23586756.747
  20947669.002   -24500508.27949 -19072797.64647  20947668.371    20947674.672
  21626066.940   -19763091.39149 -15380438.66747  21626066.346    21626072.271
  22715719.078   -12821072.52549  -9653996.03846  22715718.605    22715725.132
  20374672.428   -28326560.41949 -22058492.58748  20374671.678    20374677.546
  20496962.770   -28573312.99249 -21552453.05448  20496962.278    20496966.680
 03  2 28  1 58 30.0000000  0 10G16G14G 6G 9G26G17G23G 3G15G18
  24648750.614    -3583874.48149  -2775042.48445  24648750.125    24648758.494
  23128421.470   -11594253.15849  -8673743.40546  23128420.958    23128427.907
  24034004.072   -10828839.48849  -8426122.92045  24034003.876    24034012.848
  24225397.622    -9809909.82749  -7085670.70445  24225397.397    24225405.626
  23605953.377   -11355447.58749  -8275746.60045  23605953.388    23605959.596
  20952345.416   -24475933.43249 -19053648.39847  20952344.784    20952351.064
  21635912.378   -19711353.12849 -15340123.11447  21635911.790    21635917.710
  22703317.829   -12886241.27749  -9704776.83146  22703317.400    22703323.894
  20370451.127   -28348743.14749 -22075777.80648  20370450.391    20370456.253
  20499147.076   -28561834.43849 -21543508.70748  20499146.576    20499150.987
 03  2 28  1 59  0.0000000  0 10G16G14G 6G 9G26G17G23G 3G15G18
  24660494.191    -3522161.60749  -2726954.61245  24660493.735    24660502.087
  23108070.629   -11701197.08149  -8757076.19446  23108070.076    23108076.970
  24055070.158   -10718137.21349  -8339861.53345  24055069.902    24055078.968
  24212902.336    -9875572.31549  -7136836.14545  24212902.047    24212910.261
  23625213.402   -11254235.08349  -8196879.67745  23625213.326    23625219.629
  20957079.053   -24451058.17949 -19034265.07347  20957078.426    20957084.642
  21645782.231   -19659486.45049 -15299707.50547  21645781.667    21645787.583
  22690999.138   -12950976.27149  -9755219.63846  22690998.758    22691005.179
  20366284.163   -28370640.65049 -22092840.76948  20366283.425    20366289.317
  20501387.908   -28550058.67949 -21534332.76948  20501387.405    20501391.829
 03  2 28  1 59 30.0000000  0 10G16G14G 6G 9G26G17G23G 3G15G18
  24672272.241    -3460267.67949  -2678725.66845  24672271.851    24672280.275
  23087756.111   -11807949.73849  -8840259.94446  23087755.590    23087762.424
  24076151.963   -10607352.08349  -8253535.60345  24076151.666    24076160.770
  24200454.018    -9940987.68549  -7187809.04545  24200453.745    24200461.971
  23644530.285   -11152724.01349  -8117780.08945  23644530.152    23644536.523
  20961869.981   -24425881.58349 -19014646.92547  20961869.330    20961875.559
  21655676.376   -19607492.40149 -15259192.63847  21655675.798    21655681.710
  22678763.493   -13015275.04649  -9805322.52946  22678763.109    22678769.473
  20362171.797   -28392251.20149 -22109680.13548  20362171.062    20362176.936
  20503685.100   -28537986.70949 -21524926.01948  20503684.595    20503689.009
 03  2 28  2  0  0.0000000  0 10G16G14G 6G 9G26G17G23G 3G15G18
  24684084.092    -3398196.25149  -2630358.41045  24684083.584    24684092.103
  23067478.380   -11914509.40749  -8923293.30246  23067477.847    23067484.633
  24097248.905   -10496487.39249  -8167147.66045  24097248.612    24097257.770
  24188053.327   -10006153.52249  -7238587.49645  24188053.059    24188061.077
  23663903.192   -11050918.48049  -8038451.06145  23663903.072    23663909.396
  20966718.267   -24400403.60749 -18994793.93947  20966717.623    20966723.846
  21665594.333   -19555373.02149 -15218580.11247  21665593.762    21665599.670
  22666611.072   -13079136.38749  -9855084.56546  22666610.662    22666616.995
  20358114.210   -28413574.05949 -22126295.32048  20358113.461    20358119.310
  20506038.294   -28525620.30949 -21515289.83748  20506037.795    20506042.237
 03  2 28  2  0 30.0000000  0 10G16G14G 6G 9G26G17G23G 3G15G18
  24695929.271    -3335949.55349  -2581854.58945  24695928.954    24695937.465
  23047238.049   -12020872.84349  -9006173.76846  23047237.500    23047244.187
  24118360.655   -10385544.85749  -8080699.07645  24118360.417    24118369.603
  24175700.817   -10071065.98749  -7289168.53045  24175700.591    24175708.451
  23683331.578   -10948820.86149  -7958894.44445  23683331.491    23683337.918
  20971624.172   -24374622.93849 -18974705.08447  20971623.517    20971629.733
  21675536.011   -19503128.99449 -15177870.45947  21675535.429    21675541.349
  22654542.360   -13142557.47949  -9904503.54946  22654541.977    22654548.342
  20354111.706   -28434607.32949 -22142684.85248  20354110.942    20354116.792
  20508447.415   -28512960.01849 -21505424.65648  20508446.938    20508451.362
 03  2 28  2  1  0.0000000  0  9G14G 6G 9G26G17G23G 3G15G18
  23027036.119   -12127033.69949  -9088896.35946  23027035.575    23027042.323
  24139487.410   -10274523.55849  -7994189.11645  24139487.180    24139496.346
  24163397.812   -10135718.40349  -7339546.91645  24163397.539    24163405.332
  23702815.687   -10846430.49649  -7879109.72045  23702815.682    23702822.083
  20976588.512   -24348535.02449 -18954376.81747  20976587.851    20976594.098
  21685501.847   -19450758.15749 -15137061.99347  21685501.260    21685507.161
  22642558.474   -13205532.87249  -9953575.23646  22642558.093    22642564.468
  20350165.149   -28455346.36649 -22158845.10848  20350164.394    20350170.247
  20510913.013   -28500003.28049 -21495328.46848  20510912.521    20510916.923
 03  2 28  2  1 30.0000000  0  9G14G 6G 9G26G17G23G 3G15G18
  23006872.615   -12232992.49649  -9171461.50946  23006872.144    23006878.909
  24160628.163   -10163429.13349  -7907622.19145  24160627.735    24160637.121
  24151144.300   -10200110.46249  -7389722.44645  24151143.971    24151151.825
  23722354.316   -10743753.92249  -7799101.97545  23722354.246    23722360.756
  20981610.861   -24322142.16449 -18933810.92947  20981610.204    20981616.451
  21695490.872   -19398265.13649 -15096158.32447  21695490.305    21695496.235
  22630659.167   -13268063.77849 -10002300.56646  22630658.811    22630665.166
  20346274.271   -28475792.91149 -22174777.45248  20346273.518    20346279.361
  20513434.102   -28486754.77549 -21485004.93548  20513433.606    20513437.997
 03  2 28  2  2  0.0000000  0  9G14G 6G 9G26G17G23G 3G15G18
  22986747.503   -12338749.82349  -9253869.67146  22986747.026    22986753.813
  24181781.676   -10052266.90149  -7821002.41245  24181781.341    24181790.570
  24138940.283   -10264242.15949  -7439695.08445  24138939.950    24138947.862
  23741946.402   -10640796.92749  -7718875.70745  23741946.362    23741952.783
  20986690.883   -24295446.52549 -18913009.11447  20986690.237    20986696.467
  21705502.343   -19345654.38749 -15055162.91947  21705501.784    21705507.714
  22618844.379   -13330150.99449 -10050680.17346  22618843.970    22618850.275
  20342438.713   -28495948.73149 -22190483.25248  20342437.953    20342443.787
  20516009.932   -28473218.58449 -21474457.23048  20516009.442    20516013.819
 03  2 28  2  2 30.0000000  0  9G14G 6G 9G26G17G23G 3G15G18
  22966661.584   -12444301.52249  -9336117.59846  22966661.082    22966667.819
  24202947.820    -9941038.20949  -7734330.86245  24202947.507    24202956.831
  24126786.762   -10328108.90149  -7489461.25545  24126786.453    24126794.288
  23761591.499   -10537561.38549  -7638432.40845  23761591.522    23761597.824
  20991828.938   -24268445.88749 -18891969.63747  20991828.270    20991834.495
  21715536.234   -19292925.75249 -15014075.65547  21715535.668    21715541.617
  22607114.652   -13391791.05049 -10098711.33946  22607114.241    22607120.489
  20338658.991   -28515811.06849 -22205960.36748  20338658.230    20338664.086
  20518640.508   -28459394.73749 -21463685.38048  20518640.021    20518644.399
 03  2 28  2  3  0.0000000  0  9G14G 6G 9G26G17G23G 3G15G18
  22946615.366   -12549644.72549  -9418203.05746  22946614.879    22946621.519
  24224126.265    -9829745.18149  -7647609.16145  24224125.987    24224135.334
  24114684.375   -10391707.11149  -7539018.18145  24114683.962    24114691.939
  23781289.045   -10434049.95949  -7557774.12345  23781289.026    23781295.441
  20997025.136   -24241139.41949 -18870691.84947  20997024.483    20997030.721
  21725592.348   -19240080.24649 -14972897.32047  21725591.796    21725597.752
  22595470.369   -13452981.91949 -10146392.49546  22595470.002    22595476.217
  20334935.398   -28535378.47149 -22221207.66348  20334934.658    20334940.510
  20521325.639   -28445284.16549 -21452690.10248  20521325.142    20521329.524
 03  2 28  2  3 30.0000000  0  9G14G 6G 9G26G17G23G 3G15G18
  22926609.385   -12654776.36949  -9500123.68246  22926608.909    22926615.488
  24245316.617    -9718389.97549  -7560839.03545  24245316.267    24245325.722
  24102633.668   -10455033.36449  -7588363.20445  24102633.265    24102641.005
  23801038.553   -10330265.38749  -7476902.99745  23801038.624    23801044.966
  21002279.815   -24213525.98549 -18849174.87047  21002279.135    21002285.383
  21735670.539   -19187119.02149 -14931628.81647  21735669.959    21735675.938
  22583912.061   -13513721.08349 -10193721.67046  22583911.664    22583917.888
  20331268.311   -28554649.27449 -22236223.84448  20331267.546    20331273.389
  20524065.211   -28430887.46349 -21441471.87048  20524064.726    20524069.121
 03  2 28  2  4  0.0000000  0  9G14G 6G 9G26G17G23G 3G15G18
  22906644.181   -12759693.97249  -9581877.50546  22906643.691    22906650.200
  24266518.367    -9606974.94849  -7474022.29445  24266518.058    24266527.374
  24090635.201   -10518084.56049  -7637493.87145  24090634.991    24090642.630
  23820839.465   -10226210.78249  -7395821.43945  23820839.536    23820845.799
  21007592.972   -24185605.00649 -18827418.24347  21007592.316    21007598.547
  21745770.529   -19134043.19249 -14890271.01147  21745769.937    21745775.901
  22572440.117   -13574006.54049 -10240697.30946  22572439.695    22572445.927
  20327657.849   -28573622.14949 -22251007.87248  20327657.106    20327662.943
  20526859.018   -28416205.76249 -21430031.55548  20526858.522    20526862.927
 03  2 28  2  4 30.0000000  0  9G14G 6G 9G26G17G23G 3G15G18
  22886720.152   -12864395.06549  -9663462.61846  22886719.634    22886726.113
  24287730.970    -9495502.69149  -7387160.94845  24287730.674    24287740.042
  24078689.896   -10580857.45849  -7686407.69845  24078689.790    24078697.078
  23840691.242   -10121889.21549  -7314531.86245  23840691.273    23840697.498
  21012964.873   -24157375.53749 -18805421.23347  21012964.198    21012970.412
  21755892.002   -19080854.52849 -14848825.28047  21755891.400    21755897.360
  22561054.739   -13633836.71449 -10287318.17746  22561054.317    22561060.563
  20324104.331   -28592295.80349 -22265558.73948  20324103.576    20324109.415
  20529706.771   -28401240.60949 -21418370.37248  20529706.270    20529710.673
 03  2 28  2  5  0.0000000  0  9G14G 6G 9G26G17G23G 3G15G18
  22866838.009   -12968875.73049  -9744875.97446  22866837.498    22866843.983
  24308954.216    -9383974.56649  -7300256.06845  24308953.841    24308963.322
  24066798.220   -10643347.85049  -7735101.38745  24066798.132    24066805.503
  23860593.394   -10017302.60749  -7233035.75445  23860593.395    23860599.691
  21018395.820   -24128835.48349 -18783182.21847  21018395.148    21018401.345
  21766034.920   -19027552.97949 -14807291.59347  21766034.328    21766040.248
  22549756.681   -13693208.30549 -10333581.71946  22549756.278    22549762.462
  20320608.191   -28610667.99349 -22279874.70748  20320607.436    20320613.267
  20532608.466   -28385992.01149 -21406488.32948  20532607.971    20532612.348
 03  2 28  2  5 30.0000000  0  9G14G 6G 9G26G17G23G 3G15G18
  22846998.024   -13073134.80149  -9826116.65946  22846997.523    22847004.037
  24330187.242    -9272394.47349  -7213310.71145  24330186.952    24330196.474
  24054960.810   -10705554.01549  -7783573.59945  24054960.548    24054967.976
  23880545.143    -9912455.36849  -7151336.56445  23880545.133    23880551.432
  21023885.744   -24099985.67249 -18760701.82647  21023885.097    21023891.267
  21776198.828   -18974141.24449 -14765672.04547  21776198.252    21776204.149
  22538545.990   -13752120.82849 -10379487.53946  22538545.540    22538551.757
  20317169.406   -28628738.88249 -22293955.89448  20317168.657    20317174.487
  20535563.630   -28370462.42949 -21394387.33348  20535563.136    20535567.483
 03  2 28  2  6  0.0000000  0  9G14G 6G 9G26G17G23G 3G15G18
  22827200.800   -13177168.94249  -9907182.07646  22827200.348    22827206.828
  24351429.805    -9160764.20349  -7126326.24945  24351429.606    24351439.099
  24043178.073   -10767471.88749  -7831821.16945  24043177.785    24043185.103
  23900545.887    -9807349.82649  -7069436.09045  23900545.897    23900552.360
  21029434.876   -24070824.81849 -18737979.06347  21029434.226    21029440.410
  21786383.618   -18920619.77049 -14723966.98347  21786383.041    21786388.938
  22527423.178   -13810571.49049 -10425033.46346  22527422.700    22527428.907
  20313788.367   -28646506.17949 -22307800.51248  20313787.618    20313793.436
  20538572.167   -28354652.41949 -21382067.82148  20538571.663    20538576.008
 03  2 28  2  6 30.0000000  0  9G14G 6G 9G26G17G23G 3G15G18
  22807446.914   -13280975.89049  -9988070.46546  22807446.404    22807452.888
  24372681.469    -9049086.61849  -7039304.90545  24372681.324    24372690.710
  24031450.674   -10829098.74249  -7879841.97945  24031450.524    24031457.821
  23920595.277    -9701989.35049  -6987336.96645  23920595.406    23920601.739
  21035043.306   -24041352.10749 -18715013.29047  21035042.643    21035048.836
  21796588.933   -18866990.33349 -14682177.79647  21796588.366    21796594.243
  22516388.543   -13868558.58549 -10470218.16946  22516388.119    22516394.267
  20310465.276   -28663969.20049 -22321408.03048  20310464.518    20310470.321
  20541633.720   -28338563.69349 -21369531.12348  20541633.223    20541637.567
 03  2 28  2  7  0.0000000  0  9G14G 6G 9G26G17G23G 3G15G18
  22787736.915   -13384552.11449 -10068779.08146  22787736.378    22787742.849
  24393941.761    -8937363.48349  -6952248.06545  24393941.685    24393951.196
  24019779.453   -10890430.86649  -7927633.12445  24019779.154    24019786.542
  23940692.807    -9596376.40949  -6905041.11245  23940692.874    23940699.221
  21040711.316   -24011566.43149 -18691803.65247  21040710.669    21040716.828
  21806814.703   -18813253.62049 -14640305.01647  21806814.127    21806819.992
  22505442.574   -13926079.76149 -10515039.83546  22505442.187    22505448.290
  20307200.452   -28681125.75249 -22334776.74548  20307199.708    20307205.494
  20544748.259   -28322196.50349 -21356777.44748  20544747.777    20544752.102
 03  2 28  2  7 30.0000000  0  9G14G 6G 9G26G17G23G 3G15G18
  22768071.041   -13487896.42249 -10149306.97346  22768070.533    22768076.969
  24415210.152    -8825598.34949  -6865158.48945  24415210.041    24415219.502
  24008164.677   -10951466.16649  -7975192.99845  24008164.434    24008171.751
  23960837.586    -9490514.96849  -6822551.64245  23960837.608    23960843.886
  21046438.844   -23981468.04149 -18668350.34147  21046438.174    21046444.345
  21817060.429   -18759411.91449 -14598350.42747  21817059.834    21817065.713
  22494585.418   -13983134.22449 -10559497.82146  22494585.053    22494591.147
  20303994.010   -28697975.64549 -22347906.50348  20303993.268    20303999.042
  20547915.386   -28305553.12149 -21343808.55748  20547914.885    20547919.209
 03  2 28  2  8  0.0000000  0  9G14G 6G 9G26G17G23G 3G15G18
  22748450.021   -13591005.03749 -10229651.22046  22748449.526    22748455.929
  24436486.198    -8713792.45349  -6778037.17645  24436486.192    24436495.641
  23996607.294   -11012200.29349  -8022518.20245  23996606.985    23996614.354
  23981029.299    -9384407.10149  -6739870.12745  23981029.240    23981035.405
  21052226.189   -23951055.04049 -18644651.88047  21052225.518    21052231.696
  21827326.070   -18705465.30549 -14556314.08847  21827325.507    21827331.382
  22483817.673   -14039718.91249 -10603589.74646  22483817.337    22483823.420
  20300846.314   -28714516.61549 -22360795.54248  20300845.577    20300851.357
  20551134.961   -28288633.81149 -21330624.65148  20551134.476    20551138.818
 03  2 28  2  8 30.0000000  0  9G14G 6G 9G26G17G23G 3G15G18
  22728874.126   -13693876.52549 -10309810.69346  22728873.679    22728880.013
  24457769.324    -8601949.55749  -6690887.00645  24457769.269    24457778.784
  23985107.622   -11072631.36249  -8069607.24745  23985107.276    23985114.637
  24001267.040    -9278057.09549  -6656999.94245  24001266.988    24001273.173
  21058073.392   -23920327.87549 -18620708.61847  21058072.729    21058078.864
  21837611.255   -18651416.25149 -14514197.92947  21837610.696    21837616.556
  22473139.387   -14095833.27649 -10647315.19746  22473139.050    22473145.153
  20297757.476   -28730748.52849 -22373443.76548  20297756.745    20297762.515
  20554406.671   -28271440.86849 -21317227.53648  20554406.191    20554410.509
 03  2 28  2  9  0.0000000  0  9G14G 6G 9G26G17G23G 3G15G18
  22709343.995   -13796507.42249 -10389782.70246  22709343.539    22709349.847
  24479059.129    -8490071.23149  -6603709.26145  24479058.980    24479068.558
  23973666.371   -11132755.40349  -8116457.05945  23973666.056    23973673.246
  24021550.305    -9171466.96049  -6573942.65545  24021550.218    24021556.608
  21063980.672   -23889284.99549 -18596519.33647  21063979.980    21063986.101
  21847915.901   -18597265.09449 -14472002.19647  21847915.343    21847921.166
  22462551.153   -14151474.71049 -10690672.10846  22462550.799    22462556.964
  20294727.866   -28746669.10949 -22385849.38348  20294727.123    20294732.862
  20557730.323   -28253974.87749 -21303617.64548  20557729.830    20557734.139
 03  2 28  2  9 30.0000000  0  9G14G 6G 9G26G17G23G 3G15G18
  22689860.215   -13898894.95949 -10469565.07646  22689859.767    22689865.982
  24500355.351    -8378159.75549  -6516505.67645  24500355.076    24500364.810
  23962284.066   -11192569.05349  -8163065.01645  23962283.806    23962290.978
  24041878.678    -9064639.44349  -6490700.36845  24041878.755    24041885.108
  21069948.125   -23857925.58249 -18572083.40747  21069947.439    21069953.573
  21858239.747   -18543012.91849 -14429727.75647  21858239.166    21858244.998
  22452053.383   -14206641.16449 -10733658.92246  22452052.997    22452059.099
  20291757.787   -28762276.88049 -22398011.25648  20291757.039    20291762.788
  20561105.828   -28236236.35549 -21289795.39648  20561105.343    20561109.655
 03  2 28  2 10  0.0000000  0  9G14G 6G 9G26G17G23G 3G15G18
  22670423.130   -14001037.03149 -10549156.19146  22670422.663    22670428.841
  24521657.222    -8266217.99249  -6429278.48345  24521657.011    24521666.835
  23950961.393   -11252069.73849  -8209429.10545  23950961.175    23950968.359
  24062251.687    -8957578.07849  -6407275.88245  24062251.640    24062258.195
  21075975.872   -23826249.41149 -18547400.65847  21075975.186    21075981.362
  21868582.443   -18488661.45849 -14387375.94547  21868581.886    21868587.713
  22441646.147   -14261331.23049 -10776274.51946  22441645.772    22441651.862
  20288847.396   -28777571.01249 -22409928.73748  20288846.654    20288852.401
  20564532.842   -28218227.09349 -21275762.18348  20564532.361    20564536.664
 03  2 28  2 10 30.0000000  0  8G14G 9G26G17G23G 3G15G18
  22651033.371   -14102930.57049 -10628553.65646  22651032.887    22651039.016
  23939699.054   -11311253.98649  -8255546.59945  23939698.762    23939705.898
  24082668.661    -8850285.56849  -6323671.26945  24082668.765    24082675.052
  21082064.131   -23794255.34349 -18522470.19947  21082063.451    21082069.604
  21878943.920   -18434211.45349 -14344947.35347  21878943.353    21878949.170
  22431330.010   -14315542.64549 -10818517.13946  22431329.684    22431335.743
  20285997.001   -28792549.83349 -22421600.52148  20285996.247    20286001.993
  20568011.230   -28199948.09649 -21261518.78848  20568010.733    20568015.048
 03  2 28  2 11  0.0000000  0  8G14G 9G26G17G23G 3G15G18
  22631691.585   -14204571.97049 -10707754.63946  22631691.066    22631697.168
  23928497.628   -11370117.57649  -8301414.23445  23928497.286    23928504.522
  24103129.332    -8742763.77349  -6239888.00645  24103129.601    24103135.574
  21088213.264   -23761941.38649 -18497290.46947  21088212.624    21088218.715
  21889324.101   -18379663.04549 -14302442.07847  21889323.537    21889329.352
  22421105.533   -14369272.47149 -10860384.50146  22421105.182    22421111.216
  20283207.071   -28807210.81649 -22433024.63748  20283206.318    20283212.070
  20571540.882   -28181399.29449 -21247065.15548  20571540.399    20571544.718
 03  2 28  2 11 30.0000000  0  8G14G 9G26G17G23G 3G15G18
  22612397.875   -14305960.64049 -10786758.69646  22612397.383    22612403.422
  23917357.402   -11428659.56749  -8347031.26645  23917357.128    23917364.404
  24123632.839    -8635017.83349  -6155930.05845  24123633.006    24123639.054
  21094423.017   -23729308.99849 -18471862.61547  21094422.345    21094428.433
  21899722.377   -18325019.61949 -14259862.76147  21899721.808    21899727.649
  22410972.569   -14422521.12949 -10901876.91746  22410972.257    22410978.283
  20280477.439   -28821555.02149 -22444201.91048  20280476.688    20280482.429
  20575121.284   -28162584.11349 -21232403.95348  20575120.790    20575125.115
 03  2 28  2 12  0.0000000  0  8G14G 9G26G17G23G 3G15G18
  22593152.617   -14407094.71149 -10865564.37146  22593152.136    22593158.114
  23906278.864   -11486877.25349  -8392395.59945  23906278.548    23906285.837
  24144178.223    -8527051.24049  -6071800.17645  24144178.204    24144184.249
  21100693.264   -23696358.44949 -18446186.83947  21100692.594    21100698.680
  21910138.408   -18270282.89549 -14217210.74547  21910137.847    21910143.695
  22400931.491   -14475287.47049 -10942993.50846  22400931.168    22400937.120
  20277808.241   -28835581.57549 -22455131.66348  20277807.486    20277813.226
  20578752.091   -28143504.09449 -21217536.38248  20578751.607    20578755.903
 03  2 28  2 12 30.0000000  0  8G14G 9G26G17G23G 3G15G18
  22573956.641   -14507969.87149 -10944168.29846  22573956.156    22573962.091
  23895262.972   -11544765.98049  -8437503.59345  23895262.684    23895269.915
  24164765.274    -8418865.23949  -5987499.31345  24164765.261    24164771.138
  21107024.576   -23663087.13349 -18420261.12047  21107023.921    21107030.014
  21920572.306   -18215452.24549 -14174485.54347  21920571.744    21920577.563
  22390982.874   -14527568.06549 -10983731.60046  22390982.505    22390988.420
  20275200.089   -28849287.41149 -22465811.51048  20275199.362    20275205.085
  20582433.389   -28124158.67449 -21202462.01248  20582432.888    20582437.190
 03  2 28  2 13  0.0000000  0  9G14G 9G26G17G31G23G 3G15G18
  22554810.176   -14608584.87049 -11022569.49746  22554809.660    22554815.644
  23884310.018   -11602323.81549  -8482353.74545  23884309.687    23884316.963
  24185393.315    -8310464.03049  -5903030.76745  24185393.301    24185399.086
  21113416.815   -23629495.50949 -18394085.80947  21113416.166    21113422.278
  24385856.836    -2844741.39549  -1883008.96145  24385856.243    24385862.711
  21931023.650   -18160530.15549 -14131689.08947  21931023.079    21931028.859
  22381126.764   -14579362.16149 -11024090.59846  22381126.369    22381132.312
  20272653.025   -28862672.15349 -22476241.15248  20272652.275    20272658.011
  20586164.655   -28104550.61049 -21187182.97948  20586164.165    20586168.456
 03  2 28  2 13 30.0000000  0  9G14G 9G26G17G31G23G 3G15G18
  22535713.089   -14708940.00149 -11100768.21046  22535712.581    22535718.569
  23873420.029   -11659550.56749  -8526945.90945  23873419.776    23873426.963
  24206061.178    -8201853.69649  -5818399.24445  24206061.142    24206066.938
  21119869.618   -23595585.62249 -18367662.49947  21119868.969    21119875.113
  24368839.612    -2934167.40349  -1952691.52545  24368838.984    24368845.324
  21941491.582   -18105520.77649 -14088824.61847  21941491.002    21941496.768
  22371362.949   -14630671.07949 -11064071.53546  22371362.568    22371368.520
  20270166.710   -28875737.80349 -22486422.15248  20270165.956    20270171.693
  20589945.173   -28084683.83149 -21171702.35348  20589944.688    20589948.962
 03  2 28  2 14  0.0000000  0  9G14G 9G26G17G31G23G 3G15G18
  22516667.019   -14809027.10349 -11178758.06646  22516666.566    22516672.480
  23862594.784   -11716437.40549  -8571273.20245  23862594.460    23862601.659
  24226769.348    -8093031.41249  -5733602.57845  24226769.437    24226775.134
  21126384.174   -23561351.16949 -18340986.28547  21126383.519    21126389.677
  24351881.539    -3023282.19849  -2022131.60645  24351880.844    24351887.164
  21951976.989   -18050419.53949 -14045888.57347  21951976.423    21951982.187
  22361692.846   -14681487.53449 -11103668.73246  22361692.482    22361698.440
  20267742.391   -28888477.55949 -22496349.20848  20267741.635    20267747.372
  20593775.800   -28064553.69749 -21156016.51348  20593775.316    20593779.572
 03  2 28  2 14 30.0000000  0  9G14G 9G26G17G31G23G 3G15G18
  22497672.305   -14908844.74649 -11256537.95846  22497671.846    22497677.713
  23851834.425   -11772982.72849  -8615334.37645  23851834.119    23851841.399
  24247517.012    -7984001.36849  -5648644.02645  24247517.034    24247522.927
  21132960.343   -23526793.12249 -18314057.91747  21132959.686    21132965.857
  24334982.964    -3112084.50649  -2091328.19145  24334982.362    24334988.615
  21962479.416   -17995228.81249 -14002882.79847  21962478.842    21962484.588
  22352116.590   -14731811.14649 -11142881.90046  22352116.202    22352122.143
  20265380.124   -28900891.23449 -22506022.17748  20265379.370    20265385.086
  20597656.044   -28044162.77249 -21140127.46248  20597655.540    20597659.810
 03  2 28  2 15  0.0000000  0  9G14G 9G26G17G31G23G 3G15G18
  22478729.276   -15008390.94649 -11334106.33846  22478728.760    22478734.627
  23841139.588   -11829183.94949  -8659127.42845  23841139.293    23841146.554
  24268303.486    -7874767.06149  -5563526.31345  24268303.573    24268309.486
  21139598.138   -23491911.26649 -18286877.23247  21139597.461    21139603.617
  24318144.230    -3200572.16549  -2160279.58245  24318143.579    24318149.868
  21972998.571   -17939950.32449 -13959808.63747  21972997.970    21973003.706
  22342634.254   -14781640.60749 -11181710.01446  22342633.896    22342639.835
  20263080.008   -28912978.26649 -22515440.61648  20263079.262    20263084.968
  20601585.536   -28023512.96949 -21124036.68748  20601585.049    20601589.317
 03  2 28  2 15 30.0000000  0  9G14G 9G26G17G31G23G 3G15G18
  22459838.259   -15107663.27849 -11411461.30746  22459837.758    22459843.672
  23830510.849   -11885037.97649  -8702649.93745  23830510.591    23830517.823
  24289128.190    -7765331.63049  -5478251.88645  24289128.347    24289134.353
  21146297.668   -23456704.93149 -18259443.70747  21146296.993    21146303.174
  24301365.820    -3288742.82449  -2228983.97045  24301365.215    24301371.515
  21983534.154   -17884585.37449 -13916667.10547  21983533.556    21983539.296
  22333246.272   -14830974.42549 -11220151.91746  22333245.945    22333251.940
  20260842.302   -28924737.32149 -22524603.49448  20260841.561    20260847.270
  20605564.082   -28002605.46549 -21107745.10448  20605563.585    20605567.857
 03  2 28  2 16  0.0000000  0  9G14G 9G26G17G31G23G 3G15G18
  22440999.768   -15206659.52149 -11488601.14146  22440999.300    22441005.216
  23819948.663   -11940542.29149  -8745899.95145  23819948.373    23819955.570
  24309990.686    -7655698.34849  -5392823.25545  24309990.744    24309996.817
  21153059.074   -23421173.25449 -18231756.67347  21153058.392    21153064.592
  24284648.265    -3376594.07949  -2297439.45745  24284647.638    24284653.974
  21994085.968   -17829135.10849 -13873459.09047  21994085.392    21994091.106
  22323952.837   -14879811.37749 -11258206.65046  22323952.540    22323958.514
  20258667.276   -28936167.14349 -22533509.82648  20258666.527    20258672.242
  20609591.399   -27981441.53449 -21091253.70848  20609590.907    20609595.199
 03  2 28  2 16 30.0000000  0  9G14G 9G26G17G31G23G 3G15G18
  22422214.351   -15305377.38549 -11565524.06146  22422213.854    22422219.706
  23809453.416   -11995694.15349  -8788875.32845  23809453.239    23809460.423
  24330890.183    -7545870.22949  -5307242.82545  24330890.215    24330896.404
  21159882.355   -23385316.43849 -18203816.27647  21159881.699    21159887.903
  24267991.819    -3464123.57649  -2365644.19745  24267991.289    24267997.623
  22004653.776   -17773600.89249 -13830185.65447  22004653.196    22004658.896
  22314754.284   -14928150.19549 -11295873.21947  22314753.967    22314759.912
  20256555.073   -28947266.70449 -22542158.80748  20256554.339    20256560.031
  20613667.275   -27960022.52649 -21074563.55148  20613666.785    20613671.064
 03  2 28  2 17  0.0000000  0  9G14G 9G26G17G31G23G 3G15G18
  22403482.498   -15403813.96249 -11642227.80046  22403481.973    22403487.779
  23799026.047   -12050490.05049  -8831573.33745  23799025.817    23799033.069
  24351826.177    -7435849.95749  -5221512.66845  24351826.272    24351832.538
  21166767.674   -23349133.74149 -18175621.95747  21166767.032    21166773.211
  24251397.136    -3551328.41249  -2433595.96945  24251396.707    24251402.963
  22015237.428   -17717983.52249 -13786847.43347  22015236.839    22015242.513
  22305650.920   -14975988.69749 -11333149.94547  22305650.570    22305656.480
  20254506.043   -28958034.56849 -22550549.32848  20254505.278    20254510.972
  20617791.549   -27938349.36449 -21057675.35248  20617791.060    20617795.330
 03  2 28  2 17 30.0000000  0  9G14G 9G26G17G31G23G 3G15G18
  22384804.502   -15501967.38849 -11718710.89146  22384803.963    22384809.716
  23788666.934   -12104927.56949  -8873992.08545  23788666.659    23788673.834
  24372798.144    -7325641.01349  -5135635.49445  24372798.124    24372804.579
  21173715.113   -23312624.85649 -18147173.46147  21173714.452    21173720.592
  24234864.752    -3638206.50849  -2501293.11545  24234864.283    24234870.621
  22025836.547   -17662284.67449 -13743445.70947  22025835.961    22025841.620
  22296642.930   -15023325.78149 -11370035.94847  22296642.595    22296648.520
  20252520.236   -28968469.96849 -22558680.78548  20252519.493    20252525.144
  20621963.848   -27916423.64349 -21040590.35448  20621963.362    20621967.627
 03  2 28  2 18  0.0000000  0  9G14G 9G26G17G31G23G 3G15G18
  22366180.962   -15599834.32349 -11794970.74246  22366180.416    22366186.155
  23778376.678   -12159002.95249  -8916128.65745  23778376.333    23778383.534
  24393805.645    -7215245.44749  -5049612.90445  24393805.740    24393812.071
  21180724.864   -23275788.33349 -18118469.66747  21180724.190    21180730.314
  24218395.094    -3724754.61549  -2568733.10745  24218394.594    24218400.958
  22036451.117   -17606504.70049 -13699980.78647  22036450.533    22036456.162
  22287730.828   -15070159.10549 -11406529.41447  22287730.485    22287736.400
  20250598.107   -28978570.65149 -22566551.42348  20250597.363    20250602.995
  20626184.131   -27894245.80549 -21023308.90348  20626183.650    20626187.897
 03  2 28  2 18 30.0000000  0  9G14G 9G26G17G31G23G 3G15G18
  22347612.268   -15697413.06749 -11871006.03946  22347611.740    22347617.425
  23768155.597   -12212714.03949  -8957981.34645  23768155.359    23768162.494
  24414848.013    -7104667.06849  -4963447.87745  24414848.132    24414854.401
  21187796.932   -23238624.21949 -18089510.60947  21187796.264    21187802.388
  24201988.636    -3810970.99049  -2635914.61645  24201988.033    24201994.520
  22047080.810   -17550645.49949 -13656454.12147  22047080.224    22047085.817
  22278914.725   -15116487.94549 -11442629.78047  22278914.389    22278920.249
  20248739.755   -28988336.18549 -22574160.91048  20248739.030    20248744.643
  20630452.004   -27871817.85949 -21005832.56148  20630451.536    20630455.776
 03  2 28  2 19  0.0000000  0  9G14G 9G26G17G31G23G 3G15G18
  22329098.929   -15794701.12449 -11946814.82346  22329098.377    22329104.047
  23758004.622   -12266057.68449  -8999547.72545  23758004.376    23758011.457
  24435924.645    -6993908.85649  -4877142.69545  24435924.672    24435930.783
  21194931.482   -23201131.92949 -18060295.82247  21194930.795    21194936.892
  24185645.691    -3896853.04249  -2702835.58045  24185645.037    24185651.545
  22057725.294   -17494708.20349 -13612866.60047  22057724.695    22057730.314
  22270194.911   -15162310.89749 -11478335.94247  22270194.565    22270200.411
  20246945.386   -28997765.60749 -22581508.49348  20246944.642    20246950.269
  20634767.245   -27849140.96549 -20988162.23248  20634766.768    20634770.998
 03  2 28  2 19 30.0000000  0  8G14G 9G17G31G23G 3G15G18
  22310641.355   -15891695.86349 -12022395.03846  22310640.805    22310646.438
  23747923.940   -12319031.11149  -9040825.61245  23747923.764    23747930.798
  21202128.598   -23163310.82849 -18030824.82047  21202127.932    21202134.011
  24169366.880    -3982398.19049  -2769494.03545  24169366.226    24169372.813
  22068384.440   -17438693.81049 -13569219.00347  22068383.866    22068389.481
  22261571.606   -15207626.38649 -11513646.68147  22261571.265    22261577.108
  20245215.283   -29006857.37149 -22588592.95948  20245214.540    20245220.143
  20639129.647   -27826216.37649 -20970298.89448  20639129.178    20639133.385
 03  2 28  2 20  0.0000000  0  8G14G 9G17G31G23G 3G15G18
  22292240.227   -15988394.02549 -12097744.16046  22292239.684    22292245.274
  23737914.588   -12371630.52849  -9081812.06345  23737914.324    23737921.370
  21209388.476   -23125159.81849 -18001096.75547  21209387.826    21209393.871
  24153153.041    -4067602.69549  -2835887.06245  24153152.390    24153158.915
  22079058.349   -17382602.19249 -13525511.23147  22079057.756    22079063.353
  22253045.319   -15252432.09349 -11548560.19447  22253044.958    22253050.821
  20243549.894   -29015609.06549 -22595412.44348  20243549.153    20243554.743
  20643539.185   -27803044.09649 -20952242.55648  20643538.706    20643542.889
 03  2 28  2 20 30.0000000  0  8G14G 9G17G31G23G 3G15G18
  22273895.873   -16084793.85849 -12172860.81646  22273895.323    22273900.880
  23727976.663   -12423853.70949  -9122505.33645  23727976.514    23727983.519
  21216711.213   -23086678.57149 -17971111.35847  21216710.537    21216716.583
  24137004.225    -4152465.15449  -2902013.54745  24137003.490    24137010.124
  22089746.500   -17326435.42149 -13481744.89947  22089745.937    22089751.551
  22244616.231   -15296727.52949 -11583076.08647  22244615.833    22244621.676
  20241949.189   -29024020.73549 -22601966.97248  20241948.431    20241954.021
  20647995.457   -27779626.15349 -20933994.78748  20647994.971    20647999.140
 03  2 28  2 21  0.0000000  0  8G14G 9G17G31G23G 3G15G18
  22255608.615   -16180893.49749 -12247743.55646  22255608.093    22255613.622
  23718110.941   -12475698.22949  -9162903.55545  23718110.754    23718117.667
  21224096.748   -23047867.06749 -17940868.61547  21224096.094    21224102.163
  24120920.967    -4236983.57949  -2967871.97545  24120920.254    24120926.761
  22100448.694   -17270195.06149 -13437921.22447  22100448.118    22100453.704
  22236284.400   -15340511.26849 -11617193.25747  22236284.041    22236289.869
  20240413.345   -29032091.61649 -22608255.95148  20240412.574    20240418.159
  20652498.157   -27755964.26949 -20915556.93448  20652497.683    20652501.852
 03  2 28  2 21 30.0000000  0  8G14G 9G17G31G23G 3G15G18
  22237379.077   -16276689.91649 -12322390.02146  22237378.543    22237384.096
  23708317.993   -12527160.48349  -9203003.91345  23708317.643    23708324.585
  21231545.269   -23008724.87849 -17910368.19647  21231544.588    21231550.667
  24104903.696    -4321154.62049  -3033459.71345  24104902.953    24104909.550
  22111164.829   -17213881.43149 -13394040.45747  22111164.240    22111169.818
  22228050.361   -15383781.35549 -11650910.18047  22228049.961    22228055.796
  20238942.724   -29039819.69149 -22614277.80648  20238941.962    20238947.526
  20657047.159   -27732059.02149 -20896929.44848  20657046.664    20657050.829
 03  2 28  2 22  0.0000000  0  8G14G 9G17G31G23G 3G15G18
  22219207.761   -16372180.35749 -12396798.06146  22219207.273    22219212.807
  23698598.162   -12578237.55349  -9242804.12545  23698597.902    23698604.844
  21239056.935   -22969250.80049 -17879609.16047  21239056.267    21239062.340
  24088952.958    -4404975.81149  -3098774.83645  24088952.246    24088958.823
  22121894.695   -17157495.54449 -13350103.37847  22121894.111    22121899.671
  22219914.304   -15426536.30149 -11684225.68847  22219913.944    22219919.771
  20237537.577   -29047203.49149 -22620031.39048  20237536.835    20237542.396
  20661642.302   -27707911.32749 -20878113.04248  20661641.803    20661645.971
 03  2 28  2 22 30.0000000  0  8G14G 9G17G31G23G 3G15G18
  22201095.165   -16467362.48849 -12470965.86546  22201094.652    22201100.168
  23688952.311   -12628926.34849  -9282301.78845  23688952.060    23688959.027
  21246631.859   -22929444.23349 -17848591.04847  21246631.203    21246637.288
  24073069.347    -4488444.46349  -3163815.26745  24073068.681    24073075.243
  22132638.140   -17101038.35649 -13306110.74947  22132637.544    22132643.117
  22211876.578   -15468774.92149 -11717138.86847  22211876.198    22211882.021
  20236198.187   -29054241.82449 -22625515.78648  20236197.442    20236203.006
  20666283.321   -27683522.27949 -20859108.57348  20666282.840    20666287.026
 03  2 28  2 23  0.0000000  0  8G14G 9G17G31G23G 3G15G18
  22183041.621   -16562234.26749 -12544891.83346  22183041.111    22183046.592
  23679380.921   -12679224.58149  -9321495.12145  23679380.606    23679387.418
  21254270.078   -22889304.88949 -17817313.62647  21254269.416    21254275.521
  24057253.272    -4571558.60449  -3228579.46945  24057252.671    24057259.119
  22143394.866   -17044511.27049 -13262063.65247  22143394.257    22143399.858
  22203937.244   -15510496.25949 -11749648.96947  22203936.864    22203942.679
  20234924.715   -29060933.79049 -22630730.28048  20234923.984    20234929.553
  20670969.974   -27658893.57949 -20839917.35948  20670969.506    20670973.677
 03  2 28  2 23 30.0000000  0  8G14G 9G17G31G23G 3G15G18
  22165047.521   -16656793.22949 -12618574.05346  22165047.017    22165052.524
  23669884.243   -12729129.38249  -9360381.88045  23669883.881    23669890.666
  21261971.756   -22848832.39649 -17785776.60747  21261971.094    21261977.185
  24041505.030    -4654315.51449  -3293065.30545  24041504.543    24041510.903
  22154164.760   -16987915.07449 -13217962.70147  22154164.161    22154169.730
  22196096.628   -15551698.64949 -11781754.70147  22196096.262    22196102.068
  20233717.471   -29067277.96049 -22635673.77348  20233716.719    20233722.291
  20675702.106   -27634026.06949 -20820540.05848  20675701.630    20675705.787
 03  2 28  2 24  0.0000000  0  8G14G 9G17G31G23G 3G15G18
  22147113.430   -16751036.98549 -12692010.65747  22147112.943    22147118.443
  23660462.917   -12778637.72949  -9398959.71645  23660462.653    23660469.429
  21269736.858   -22808026.53549 -17753979.82047  21269736.188    21269742.270
  24025825.358    -4736712.70349  -3357270.84145  24025824.888    24025831.141
  22164947.565   -16931250.81849 -13173808.71547  22164946.986    22164952.538
  22188354.981   -15592380.80749 -11813455.05447  22188354.652    22188360.492
  20232576.565   -29073273.20149 -22640345.36848  20232575.839    20232581.384
  20680479.424   -27608921.06249 -20800977.69648  20680478.952    20680483.092
 03  2 28  2 24 30.0000000  0  8G14G 9G17G31G23G 3G15G18
  22129240.034   -16844961.88049 -12765198.79647  22129239.546    22129245.058
  23651117.829   -12827745.61549  -9437225.51045  23651117.622    23651124.435
  21277565.789   -22766885.16249 -17721921.59947  21277565.118    21277571.189
  24010214.751    -4818746.63349  -3421193.33145  24010214.354    24010220.524
  22175743.381   -16874518.38049 -13129601.60247  22175742.783    22175748.337
  22180712.856   -15632540.31049 -11844748.14447  22180712.532    22180718.358
  20231502.578   -29078917.06549 -22644743.16648  20231501.853    20231507.377
  20685301.964   -27583578.54249 -20781230.26148  20685301.484    20685305.596
 03  2 28  2 25  0.0000000  0  8G14G 9G17G31G23G 3G15G18
  22111427.351   -16938567.89349 -12838138.46747  22111426.848    22111432.328
  23641849.142   -12876452.60449  -9475178.91745  23641849.008    23641855.673
  21285458.191   -22725410.20549 -17689603.43647  21285457.524    21285463.601
  23994673.251    -4900417.10749  -3484832.60745  23994672.793    23994679.018
  22186551.561   -16817721.00649 -13085343.88647  22186550.951    22186556.494
  22173170.003   -15672178.11049 -11875634.71247  22173169.654    22173175.541
  20230495.243   -29084210.64149 -22648868.00848  20230494.490    20230500.041
  20690168.994   -27558002.02349 -20761300.48248  20690168.494    20690172.597
 03  2 28  2 25 30.0000000  0  8G14G 9G17G31G23G 3G15G18
  22093676.143   -17031850.91349 -12910826.45747  22093675.617    22093681.092
  23632657.759   -12924754.09749  -9512816.35745  23632657.561    23632664.129
  21293414.492   -22683599.56249 -17657023.70747  21293413.816    21293419.871
  23979201.790    -4981719.97749  -3548185.43545  23979201.315    23979207.551
  22197372.228   -16760858.03949 -13041035.06547  22197371.610    22197377.136
  22165727.057   -15711291.00549 -11906112.27147  22165726.697    22165732.555
  20229555.083   -29089151.12149 -22652717.71248  20229554.341    20229559.876
  20695080.691   -27532190.78349 -20741187.80948  20695080.204    20695084.291
 03  2 28  2 26  0.0000000  0  8G14G 9G17G31G23G 3G15G18
  22075986.611   -17124809.63549 -12983261.74447  22075986.113    22075991.544
  23623543.718   -12972648.52949  -9550136.61645  23623543.481    23623549.953
  21301434.558   -22641453.92849 -17624182.93647  21301433.864    21301439.911
  23963800.592    -5062653.89949  -3611250.78145  23963799.986    23963806.196
  22208204.944   -16703931.55249 -12996676.74247  22208204.320    22208209.874
  22158383.942   -15749879.17149 -11936180.94147  22158383.580    22158389.447
  20228682.098   -29093738.68649 -22656292.41448  20228681.345    20228686.873
  20700036.610   -27506147.18749 -20720894.07648  20700036.113    20700040.206
 03  2 28  2 26 30.0000000  0  8G14G 9G17G31G23G 3G15G18
  22058359.421   -17217440.92449 -13055441.89247  22058358.906    22058364.337
  23614507.857   -13020132.20849  -9587136.80545  23614507.646    23614514.040
  21309518.553   -22598972.10249 -17591080.20547  21309517.848    21309523.871
  23948470.204    -5143215.56049  -3674026.06445  23948469.640    23948475.697
  22219049.693   -16646941.55449 -12952268.93147  22219049.083    22219054.678
  22151141.127   -15787940.61949 -11965839.18447  22151140.724    22151146.565
  20227876.671   -29097971.05349 -22659590.33548  20227875.923    20227881.455
  20705036.717   -27479871.30849 -20700419.34448  20705036.242    20705040.316
 03  2 28  2 27  0.0000000  0  8G14G 9G17G31G23G 3G15G18
  22040794.828   -17309743.01949 -13127365.53247  22040794.306    22040799.742
  23605550.496   -13067203.06549  -9623815.31545  23605550.268    23605556.616
  21317666.554   -22556153.96549 -17557715.41747  21317665.867    21317671.886
  23933210.961    -5223403.14949  -3736509.85545  23933210.503    23933216.264
  22229906.278   -16589889.71349 -12907812.94247  22229905.696    22229911.286
  22143998.583   -15825474.68649 -11995086.48947  22143998.209    22144003.988
  20227138.928   -29101847.75049 -22662611.12048  20227138.184    20227143.721
  20710080.689   -27453365.10149 -20679765.13848  20710080.180    20710084.283
 03  2 28  2 27 30.0000000  0  8G14G 9G17G31G23G 3G15G18
  22023293.414   -17401713.28749 -13199030.60447  22023292.902    22023298.296
  23596672.388   -13113857.93549  -9660169.67745  23596672.024    23596678.411
  21325878.621   -22512999.16449 -17524088.28247  21325877.932    21325883.971
  23918023.321    -5303213.87449  -3798699.98045  23918022.868    23918028.620
  22240774.514   -16532776.57449 -12863309.17647  22240773.923    22240779.526
  22136956.784   -15862479.70149 -12023921.53747  22136956.404    22136962.169
  20226469.191   -29105367.22349 -22665353.54348  20226468.457    20226473.968
  20715168.311   -27426629.31149 -20658932.03148  20715167.818    20715171.920
 03  2 28  2 28  0.0000000  0  8G14G 9G17G31G23G 3G15G18
  22005855.524   -17493349.45049 -13270435.33547  22005854.994    22005860.428
  23587873.680   -13160094.02249  -9696197.72245  23587873.456    23587879.873
  21334154.915   -22469506.99349 -17490198.28247  21334154.232    21334160.284
  23902907.858    -5382645.21649  -3860594.48045  23902907.362    23902913.357
  22251654.269   -16475602.92849 -12818758.27347  22251653.681    22251659.292
  22130015.811   -15898954.54049 -12052343.46647  22130015.439    22130021.195
  20225867.672   -29108528.23049 -22667816.65048  20225866.924    20225872.420
  20720299.427   -27399664.88249 -20637920.76948  20720298.936    20720303.048
 03  2 28  2 28 30.0000000  0  8G14G 9G17G31G23G 3G15G18
  21988481.841   -17584648.47449 -13341577.36347  21988481.321    21988486.708
  23579155.488   -13205908.27249  -9731897.05645  23579155.260    23579161.692
  21342495.589   -22425676.26349 -17456044.45447  21342494.898    21342500.938
  23887865.299    -5461694.33449  -3922191.16445  23887864.776    23887870.782
  22262545.440   -16418369.31849 -12774160.63147  22262544.851    22262550.453
  22123176.044   -15934897.71349 -12080351.10947  22123175.684    22123181.452
  20225334.654   -29111329.10649 -22669999.13548  20225333.913    20225339.376
  20725473.894   -27372472.83549 -20616732.13948  20725473.403    20725477.515
 03  2 28  2 29  0.0000000  0  8G14G 9G17G31G23G 3G15G18
  21971172.473   -17675609.61649 -13412456.10247  21971171.964    21971177.308
  23570517.780   -13251299.29149  -9767266.60745  23570517.571    23570524.005
  21350900.545   -22381507.78949 -17421627.45247  21350899.880    21350905.914
  23872895.513    -5540360.43249  -3983489.36145  23872894.968    23872901.139
  22273447.526   -16361078.21749 -12729518.19347  22273446.964    22273452.562
  22116437.395   -15970309.47749 -12107944.66447  22116437.019    22116442.796
  20224870.151   -29113770.06449 -22671901.16148  20224869.414    20224874.854
  20730691.203   -27345055.55049 -20595367.99848  20730690.701    20730694.832
 03  2 28  2 29 30.0000000  0  8G14G 9G17G31G23G 3G15G18
  21953928.010   -17766229.52949 -13483068.95647  21953927.502    21953932.801
  23561961.444   -13296263.32549  -9802303.44645  23561961.164    23561967.513
  21359369.884   -22337001.14649 -17386946.95247  21359369.226    21359375.235
  23857999.493    -5618639.84649  -4044486.25445  23857998.821    23858005.041
  22284360.644   -16303729.25649 -12684830.67847  22284360.059    22284365.671
  22109800.276   -16005187.55149 -12135122.36647  22109799.924    22109805.706
  20224474.565   -29115848.85449 -22673520.98648  20224473.808    20224479.267
  20735951.398   -27317412.90649 -20573828.25748  20735950.890    20735955.017
 03  2 28  2 30  0.0000000  0  8G14G 9G17G31G23G 3G15G18
  21936748.954   -17856505.90549 -13553414.11447  21936748.445    21936753.708
  23553486.711   -13340797.91549  -9837005.64945  23553486.490    23553492.733
  21367903.774   -22292155.20149 -17352002.05547  21367903.088    21367909.116
  23843177.400    -5696530.31949  -4105180.07945  23843176.733    23843182.949
  22295284.512   -16246323.56749 -12640098.95047  22295283.936    22295289.599
  22103264.958   -16039530.83449 -12161883.34047  22103264.588    22103270.369
  20224148.107   -29117564.35749 -22674857.72348  20224147.364    20224152.809
  20741254.184   -27289546.41049 -20552114.08548  20741253.689    20741257.793
 03  2 28  2 30 30.0000000  0  8G14G 9G17G31G23G 3G15G18
  21919635.583   -17946436.98749 -13623490.21647  21919635.062    21919640.296
  23545094.130   -13384900.96449  -9871371.57845  23545093.960    23545100.060
  21376502.123   -22246970.47549 -17316793.17447  21376501.436    21376507.485
  23828429.640    -5774030.00849  -4165569.38645  23828429.032    23828435.102
  22306218.956   -16188862.53449 -12595324.10147  22306218.396    22306224.055
  22096831.516   -16073338.80549 -12188227.19047  22096831.142    22096836.894
  20223890.908   -29118915.92649 -22675910.87848  20223890.162    20223895.595
  20746599.310   -27261457.47749 -20530226.58348  20746598.809    20746602.910
 03  2 28  2 31  0.0000000  0  8G14G 9G17G31G23G 3G15G18
  21902588.454   -18036020.10749 -13693295.17747  21902587.924    21902593.131
  23536784.382   -13428569.00449  -9905398.55245  23536784.233    23536790.244
  21385165.099   -22201445.97949 -17281319.54147  21385164.449    21385170.495
  23813756.860    -5851135.83749  -4225651.80045  23813756.299    23813762.322
  22317163.909   -16131346.21049 -12550506.17247  22317163.359    22317169.017
  22090500.232   -16106609.83049 -12214152.63947  22090499.865    22090505.585
  20223703.337   -29119901.69349 -22676678.98748  20223702.582    20223708.008
  20751986.675   -27233146.62549 -20508166.15548  20751986.169    20751990.281
 03  2 28  2 31 30.0000000  0  8G14G 9G17G31G23G 3G15G18
  21885607.840   -18125253.27149 -13762827.44547  21885607.330    21885612.527
  23528557.846   -13471799.86949  -9939084.85845  23528557.569    23528563.584
  21393892.793   -22155581.73649 -17245581.16947  21393892.107    21393898.194
  23799159.386    -5927846.08849  -4285425.95245  23799158.815    23799164.908
  22328119.140   -16073776.06149 -12505646.29647  22328118.575    22328124.199
  22084271.181   -16139343.54649 -12239659.40947  22084270.847    22084276.539
  20223585.416   -29120521.38049 -22677161.84148  20223584.654    20223590.080
  20757415.958   -27204615.36149 -20485933.98148  20757415.450    20757419.557
 03  2 28  2 32  0.0000000  0  8G14G 9G17G31G23G 3G15G18
  21868694.391   -18214133.73649 -13832084.88647  21868693.878    21868699.078
  23520415.029   -13514590.35849  -9972428.03545  23520414.816    23520420.760
  21402685.306   -22109376.71649 -17209577.26147  21402684.630    21402690.677
  23784637.670    -6004157.81449  -4344889.58545  23784637.159    23784643.270
  22339084.574   -16016152.43649 -12460744.75847  22339084.004    22339089.624
  22078144.677   -16171538.50049 -12264746.35847  22078144.319    22078150.034
  20223537.470   -29120773.09049 -22677357.96048  20223536.717    20223542.145
  20762887.083   -27175864.45449 -20463530.65148  20762886.573    20762890.666
 03  2 28  2 32 30.0000000  0  8G14G 9G17G31G23G 3G15G18
  21851848.463   -18302659.47349 -13901065.91347  21851847.950    21851853.118
  23512356.413   -13556938.48849 -10005426.50845  23512356.195    23512362.023
  21411542.585   -22062831.28549 -17173308.08947  21411541.908    21411547.964
  23770192.156    -6080068.97649  -4404041.07845  23770191.629    23770197.791
  22350059.884   -15958476.69249 -12415802.59947  22350059.306    22350064.936
  22072120.856   -16203193.82649 -12289412.82147  22072120.499    22072126.222
  20223559.760   -29120656.03449 -22677266.73048  20223558.991    20223564.411
  20768399.727   -27146895.17149 -20440957.16448  20768399.246    20768403.329
 03  2 28  2 33  0.0000000  0  8G14G 9G17G31G23G 3G15G18
  21835070.381   -18390828.56949 -13969769.04247  21835069.876    21835075.035
  23504382.429   -13598841.72349 -10038078.29845  23504382.216    23504387.926
  21420464.753   -22015944.91749 -17136773.26147  21420464.071    21420470.162
  23755823.397    -6155577.38849  -4462878.73745  23755822.856    23755828.989
  22361044.964   -15900749.58949 -12370820.42547  22361044.381    22361050.048
  22066199.852   -16234308.80549 -12313658.23647  22066199.488    22066205.193
  20223652.340   -29120169.29949 -22676887.43848  20223651.587    20223656.997
  20773953.679   -27117708.86149 -20418214.56148  20773953.182    20773957.275
 03  2 28  2 33 30.0000000  0  8G14G 9G17G31G23G 3G15G18
  21818360.620   -18478638.52649 -14038192.31547  21818360.134    21818365.271
  23496493.643   -13640297.33049 -10070381.29045  23496493.436    23496499.104
  21429451.928   -21968717.00249 -17099972.28847  21429451.280    21429457.372
  23741531.685    -6230680.48949  -4521400.58045  23741531.240    23741537.285
  22372039.722   -15842971.68449 -12325798.66347  22372039.179    22372044.829
  22060381.883   -16264882.42449 -12337481.81347  22060381.516    22060387.206
  20223815.557   -29119311.42349 -22676218.94648  20223814.814    20223820.229
  20779548.757   -27088306.33349 -20395303.48048  20779548.268    20779552.349
 03  2 28  2 34  0.0000000  0  8G14G 9G17G31G23G 3G15G18
  21801719.650   -18566087.11849 -14106334.01247  21801719.164    21801724.319
  23488690.554   -13681302.70349 -10102333.46845  23488690.258    23488695.981
  21438504.177   -21921147.17749 -17062904.90047  21438503.513    21438509.602
  23727317.591    -6305375.96549  -4579604.78445  23727317.160    23727323.150
  22383043.986   -15785143.91749 -12280738.05147  22383043.451    22383049.076
  22054667.106   -16294913.52349 -12360882.65247  22054666.752    22054672.404
  20224049.612   -29118081.41749 -22675260.48248  20224048.862    20224054.254
  20785184.801   -27058688.81149 -20372224.87548  20785184.326    20785188.380
 03  2 28  2 34 30.0000000  0  8G14G 9G17G31G23G 3G15G18
  21785147.907   -18653171.72749 -14174192.08447  21785147.436    21785152.582
  23480973.668   -13721854.73649 -10133932.37745  23480973.391    23480979.124
  21447621.556   -21873235.07049 -17025570.79947  21447620.911    21447626.988
  23713181.612    -6379661.04049  -4637489.20746  23713181.196    23713187.179
  22394057.638   -15727266.81949 -12235638.99347  22394057.107    22394062.677
  22049055.861   -16324400.62049 -12383859.57947  22049055.477    22049061.200
  20224354.801   -29116477.65849 -22674010.78048  20224354.051    20224359.473
  20790861.691   -27028856.61749 -20348978.98848  20790861.186    20790865.213
 03  2 28  2 35  0.0000000  0  8G14G 9G17G31G23G 3G15G18
  21768645.629   -18739891.46149 -14241765.83847  21768645.170    21768650.314
  23473343.246   -13761952.32049 -10165177.17145  23473343.073    23473348.764
  21456803.867   -21824981.74949 -16987970.81447  21456803.194    21456809.276
  23699123.871    -6453534.98949  -4695053.26546  23699123.428    23699129.358
  22405080.221   -15669342.54449 -12190503.17947  22405079.696    22405085.246
  22043548.017   -16353344.42249 -12406413.16747  22043547.620    22043553.326
  20224730.997   -29114500.48449 -22672470.10648  20224730.261    20224735.698
  20796578.881   -26998812.48249 -20325567.95548  20796578.388    20796582.417
 03  2 28  2 35 30.0000000  0  8G14G 9G17G31G23G 3G15G18
  21752213.448   -18826243.14249 -14309052.79647  21752212.966    21752218.098
  23465800.023   -13801591.89349 -10196065.06945  23465799.815    23465805.559
  21466051.425   -21776385.56149 -16950103.65447  21466050.752    21466056.827
  23685144.984    -6526994.33549  -4752294.25545  23685144.506    23685150.512
  22416111.896   -15611370.74649 -12145330.33447  22416111.339    22416116.916
  22038143.954   -16381742.91649 -12428541.84147  22038143.581    22038149.256
  20225178.718   -29112147.51349 -22670636.60448  20225177.971    20225183.407
  20802336.471   -26968556.09949 -20301991.53748  20802335.992    20802339.988
 03  2 28  2 36  0.0000000  0  8G14G 9G17G31G23G 3G15G18
  21735851.714   -18912224.46249 -14376051.16747  21735851.223    21735856.334
  23458344.463   -13840770.76849 -10226593.99445  23458344.236    23458350.013
  21475364.228   -21727446.44449 -16911969.28447  21475363.555    21475369.652
  23671245.462    -6600036.60149  -4809210.25345  23671244.958    23671251.083
  22427152.470   -15553352.04249 -12100120.94147  22427151.896    22427157.506
  22032843.796   -16409595.40349 -12450245.05547  22032843.400    22032849.100
  20225698.203   -29109417.71549 -22668509.46948  20225697.451    20225702.882
  20808134.239   -26938088.68849 -20278250.68248  20808133.759    20808137.718
 03  2 28  2 36 30.0000000  0  8G14G 9G17G31G23G 3G15G18
  21719560.770   -18997833.63649 -14442759.54947  21719560.272    21719565.374
  23450976.888   -13879487.06449 -10256762.45245  23450976.667    23450982.508
  21484742.342   -21678164.36249 -16873567.66947  21484741.683    21484747.760
  23657425.634    -6672660.11249  -4865799.94845  23657425.115    23657431.234
  22438201.786   -15495287.64949 -12054875.94647  22438201.197    22438206.775
  22027647.616   -16436901.28049 -12471522.33847  22027647.217    22027652.928
  20226289.484   -29106310.52449 -22666088.26148  20226288.722    20226294.135
  20813971.876   -26907411.64049 -20254346.47048  20813971.387    20813975.337
 03  2 28  2 37  0.0000000  0  8G14G 9G17G31G23G 3G15G18
  21703341.063   -19083068.41649 -14509176.19947  21703340.570    21703345.659
  23443697.941   -13917738.02149 -10286568.30445  23443697.606    23443703.539
  21494185.816   -21628538.73149 -16834898.35047  21494185.145    21494191.216
  23643685.960    -6744862.39349  -4922061.40145  23643685.447    23643691.437
  22449259.602   -15437178.26649 -12009595.89447  22449259.031    22449264.607
  22022555.629   -16463659.81849 -12492373.12447  22022555.242    22022560.955
  20226952.810   -29102824.49249 -22663371.85648  20226952.053    20226957.464
  20819849.250   -26876525.81249 -20230279.57748  20819848.749    20819852.707
 03  2 28  2 37 30.0000000  0  8G14G 9G17G31G23G 3G15G18
  21687193.085   -19167926.51149 -14575299.33047  21687192.599    21687197.670
  23436507.953   -13955521.21549 -10316009.67045  23436507.654    23436513.562
  21503694.696   -21578569.12049 -16795961.00147  21503694.042    21503700.113
  23630026.950    -6816640.98449  -4977992.72045  23630026.493    23630032.385
  22460325.936   -15379024.40449 -11964281.17847  22460325.331    22460330.879
  22017567.961   -16489870.03449 -12512796.64547  22017567.565    22017573.258
  20227688.491   -29098958.35949 -22660359.26748  20227687.743    20227693.149
  20825766.121   -26845432.29949 -20206050.84948  20825765.623    20825769.582
 03  2 28  2 38  0.0000000  0  8G14G 9G17G31G23G 3G15G18
  21671116.993   -19252406.63249 -14641127.93247  21671116.508    21671121.582
  23429407.251   -13992834.91749 -10345085.20345  23429407.000    23429412.913
  21513268.858   -21528256.39349 -16756756.28047  21513268.204    21513274.262
  23616448.779    -6887994.53549  -5033592.82345  23616448.333    23616454.184
  22471400.421   -15320827.56449 -11918932.97647  22471399.803    22471405.350
  22012684.683   -16515531.71649 -12532792.73747  22012684.306    22012690.015
  20228496.516   -29094712.03749 -22657050.42348  20228495.774    20228501.173
  20831722.205   -26814132.79949 -20181661.61148  20831721.729    20831725.661
 03  2 28  2 38 30.0000000  0  8G14G 9G17G31G23G 3G15G18
  21655113.477   -19336505.44749 -14706659.41847  21655112.977    21655118.037
  23422396.566   -14029675.62449 -10373792.15945  23422396.333    23422402.396
  21522908.573   -21477599.43949 -16717283.33947  21522907.921    21522913.966
  23602952.209    -6958919.58849  -5088859.04145  23602951.677    23602957.527
  22482483.147   -15262587.43449 -11873551.03947  22482482.531    22482488.067
  22007906.118   -16540643.14049 -12552360.05747  22007905.744    22007911.429
  20229377.350   -29090083.14649 -22653443.47548  20229376.594    20229382.004
  20837717.482   -26782627.27449 -20157111.83148  20837716.979    20837720.923
 03  2 28  2 39  0.0000000  0  8G14G 9G17G31G23G 3G15G18
  21639182.748   -19420221.76949 -14771892.85547  21639182.246    21639187.298
  23415476.195   -14066041.85449 -10402129.40745  23415476.023    23415482.084
  21532613.724   -21426598.59249 -16677542.42647  21532613.062    21532619.103
  23589537.283    -7029415.01549  -5143790.47645  23589536.704    23589542.582
  22493573.725   -15204305.75249 -11828136.72347  22493573.133    22493578.705
  22003232.247   -16565204.51749 -12571498.77347  22003231.860    22003237.525
  20230331.030   -29085071.62149 -22649538.37348  20230330.274    20230335.677
  20843751.597   -26750917.64849 -20132403.01448  20843751.101    20843755.027
 03  2 28  2 39 30.0000000  0  8G14G 9G17G31G23G 3G15G18
  21623325.416   -19503552.45349 -14836825.79347  21623324.914    21623329.928
  23408646.849   -14101930.10349 -10430094.21245  23408646.661    23408652.749
  21542384.563   -21375252.63749 -16637532.59747  21542383.888    21542389.934
  23576204.707    -7099477.47449  -5198384.53845  23576204.104    23576210.100
  22504672.287   -15145982.19449 -11782689.77847  22504671.690    22504677.345
  21998663.359   -16589214.15049 -12590207.55347  21998662.973    21998668.611
  20231357.853   -29079675.45049 -22645333.54048  20231357.093    20231362.504
  20849824.644   -26719003.71149 -20107534.99448  20849824.137    20849828.044
 03  2 28  2 40  0.0000000  0  8G14G 9G17G31G23G 3G15G18
  21607541.542   -19586496.85549 -14901457.73647  21607541.051    21607546.033
  23401908.611   -14137339.63749 -10457685.98845  23401908.416    23401914.545
  21552220.877   -21323562.60749 -16597254.66247  21552220.189    21552226.222
  23562954.769    -7169106.16549  -5252640.60745  23562954.216    23562960.115
  22515778.467   -15087618.68249 -11737211.70147  22515777.861    22515783.495
  21994199.265   -16612672.93949 -12608487.11047  21994198.903    21994204.549
  20232457.795   -29073895.15749 -22640829.40948  20232457.051    20232462.450
  20855936.041   -26686887.96549 -20082509.72248  20855935.546    20855939.448
 03  2 28  2 40 30.0000000  0  8G14G 9G17G31G23G 3G15G18
  21591831.780   -19669052.00949 -14965786.36147  21591831.287    21591836.277
  23395262.109   -14172267.13149 -10484902.15545  23395261.937    23395268.001
  21562122.856   -21271527.26549 -16556707.64147  21562122.184    21562128.231
  23549787.935    -7238298.04449  -5306556.31345  23549787.392    23549793.238
  22526892.235   -15029215.11149 -11691702.40946  22526891.697    22526897.319
  21989840.270   -16635579.28149 -12626336.17547  21989839.921    21989845.572
  20233631.193   -29067728.78849 -22636024.42648  20233630.469    20233635.839
  20862085.783   -26654570.71549 -20057327.42848  20862085.309    20862089.196
 03  2 28  2 41  0.0000000  0  8G14G 9G17G31G23G 3G15G18
  21576196.526   -19751215.54449 -15029809.83247  21576196.030    21576201.007
  23388707.821   -14206710.03549 -10511740.73545  23388707.575    23388713.676
  21572090.643   -21219146.26449 -16515891.28847  21572089.983    21572096.043
  23536704.645    -7307050.81849  -5360129.86545  23536704.119    23536709.932
  22538013.624   -14970771.87549 -11646162.21246  22538013.078    22538018.649
  21985586.613   -16657932.22049 -12643754.02747  21985586.265    21985591.900
  20234878.297   -29061175.11949 -22630917.65548  20234877.576    20234882.923
  20868273.727   -26622052.80149 -20031988.77248  20868273.255    20868277.147
 03  2 28  2 41 30.0000000  0  8G14G 9G17G31G23G 3G15G18
  21560635.805   -19832987.27449 -15093528.00447  21560635.333    21560640.294
  23382245.855   -14240667.75149 -10538201.23745  23382245.618    23382251.685
  21582123.786   -21166421.69649 -16474807.22447  21582123.127    21582129.167
  23523705.105    -7375364.01449  -5413360.88845  23523704.588    23523710.320
  22549142.106   -14912291.58549 -11600593.13646  22549141.514    22549147.059
  21981438.055   -16679733.07949 -12660741.69047  21981437.677    21981443.306
  20236198.993   -29054234.80449 -22625509.60548  20236198.251    20236203.596
  20874499.380   -26589336.84449 -20006495.80048  20874498.905    20874502.778
 03  2 28  2 42  0.0000000  0  8G14G 9G17G31G23G 3G15G18
  21545150.365   -19914363.64249 -15156938.10347  21545149.893    21545154.826
  23375876.974   -14274136.51649 -10564280.73345  23375876.618    23375882.632
  21592222.690   -21113351.46649 -16433453.80347  21592222.026    21592228.101
  23510789.873    -7443233.84249  -5466246.42145  23510789.299    23510795.107
  22560277.727   -14853773.38849 -11554994.52846  22560277.115    22560282.662
  21977394.973   -16700979.51049 -12677297.33547  21977394.616    21977400.193
  20237593.798   -29046904.94449 -22619798.00948  20237593.066    20237598.400
  20880762.821   -26556422.13649 -19980847.95348  20880762.329    20880766.223
 03  2 28  2 42 30.0000000  0  8G14G 9G17G31G23G 3G15G18
  21529740.494   -19995343.01049 -15220038.84947  21529740.001    21529744.914
  23369601.416   -14307114.50449 -10589977.80145  23369601.063    23369607.051
  21602387.427   -21059935.61949 -16391831.07847  21602386.719    21602392.806
  23497959.199    -7510658.71349  -5518785.22645  23497958.642    23497964.534
  22571420.389   -14795218.27649 -11509367.14946  22571419.781    22571425.292
  21973457.399   -16721671.63449 -12693421.04347  21973457.042    21973462.628
  20239062.778   -29039185.13949 -22613782.56048  20239062.049    20239067.406
  20887063.748   -26523310.31049 -19955046.51048  20887063.257    20887067.165
 03  2 28  2 43  0.0000000  0  8G14G 9G17G31G23G 3G15G18
  21514406.609   -20075922.94649 -15282828.35047  21514406.136    21514411.015
  23363419.764   -14339598.85749 -10615290.23845  23363419.491    23363425.431
  21612617.903   -21006174.10149 -16349938.99947  21612617.226    21612623.294
  23485213.815    -7577635.92849  -5570975.21445  23485213.245    23485219.212
  22582570.073   -14736626.34449 -11463711.08446  22582569.453    22582574.997
  21969625.509   -16741808.24249 -12709111.88247  21969625.135    21969630.742
  20240606.274   -29031074.06849 -22607462.23348  20240605.540    20240610.882
  20893402.096   -26490001.95549 -19929091.92948  20893401.599    20893405.516
 03  2 28  2 43 30.0000000  0  8G14G 9G17G31G23G 3G15G18
  21499148.976   -20156102.01449 -15345305.48247  21499148.489    21499153.357
  23357332.452   -14371588.06949 -10640216.83946  23357332.155    23357337.979
  21622914.116   -20952067.19349 -16307777.77647  21622913.448    21622919.513
  23472553.879    -7644164.17349  -5622815.35745  23472553.299    23472559.234
  22593726.442   -14677998.82749 -11418027.28646  22593725.879    22593731.380
  21965899.278   -16761389.63749 -12724370.08947  21965898.934    21965904.543
  20242224.301   -29022571.14149 -22600836.55748  20242223.560    20242228.914
  20899777.588   -26456498.42049 -19902985.25348  20899777.115    20899781.019
 03  2 28  2 44  0.0000000  0  8G14G 9G17G31G23G 3G15G18
  21483968.115   -20235877.86949 -15407468.43147  21483967.659    21483972.463
  23351339.777   -14403079.81449 -10664755.79446  23351339.425    23351345.277
  21633276.125   -20897614.50049 -16265347.11647  21633275.455    21633281.532
  23459979.880    -7710240.92249  -5674303.68945  23459979.305    23459985.212
  22604889.628   -14619336.19549 -11372316.13446  22604889.011    22604894.513
  21962278.857   -16780415.03149 -12739195.05647  21962278.511    21962284.108
  20243917.098   -29013675.33749 -22593904.74648  20243916.378    20243921.709
  20906190.040   -26422800.54049 -19876727.14748  20906189.546    20906193.480
 03  2 28  2 44 30.0000000  0  8G14G 9G17G31G23G 3G15G18
  21468864.363   -20315248.46349 -15469315.58647  21468863.885    21468868.673
  23345442.186   -14434071.66349 -10688905.23746  23345441.847    23345447.709
  21643703.932   -20842815.90449 -16222646.91747  21643703.256    21643709.336
  23447492.078    -7775864.19149  -5725438.66545  23447491.540    23447497.458
  22616059.303   -14560639.08549 -11326578.10746  22616058.708    22616064.154
  21958764.285   -16798884.00849 -12753586.44347  21958763.954    21958769.535
  20245684.817   -29004385.81549 -22586666.14048  20245684.095    20245689.410
  20912639.330   -26388909.29149 -19850318.36348  20912638.841    20912642.758
 03  2 28  2 45  0.0000000  0  8G14G 9G17G31G23G 3G15G18
  21453838.042   -20394212.08149 -15530845.61947  21453837.557    21453842.346
  23339639.959   -14464561.63049 -10712663.57945  23339639.674    23339645.621
  21654197.570   -20787671.30449 -16179677.10747  21654196.911    21654202.998
  23435091.085    -7841031.96849  -5776218.70345  23435090.445    23435096.409
  22627235.399   -14501908.07249 -11280813.68046  22627234.851    22627240.311
  21955355.687   -16816796.00649 -12767543.82347  21955355.364    21955360.922
  20247527.675   -28994701.57849 -22579119.96148  20247526.939    20247532.263
  20919125.183   -26354825.70149 -19823759.70448  20919124.701    20919128.624
 03  2 28  2 45 30.0000000  0  8G14G 9G17G31G23G 3G15G18
  21438889.505   -20472766.87349 -15592057.09147  21438889.016    21438893.799
  23333933.602   -14494547.84649 -10736029.40245  23333933.384    23333939.404
  21664757.067   -20732180.94349 -16136437.88247  21664756.391    21664762.491
  23422777.107    -7905742.46849  -5826642.42546  23422776.479    23422782.415
  22638417.829   -14443144.12249 -11235023.57046  22638417.230    22638422.688
  21952053.152   -16834150.86949 -12781067.07447  21952052.850    21952058.391
  20249445.738   -28984621.85149 -22571265.61548  20249445.001    20249450.340
  20925647.445   -26320550.81849 -19797051.98648  20925646.986    20925650.903
 03  2 28  2 46  0.0000000  0  8G14G 9G17G31G23G 3G15G18
  21424018.977   -20550911.86249 -15652949.23347  21424018.491    21424023.269
  23328323.435   -14524029.05149 -10759001.70745  23328323.168    23328329.276
  21675382.229   -20676345.43249 -16092929.70047  21675381.556    21675387.632
  23410550.366    -7969994.34049  -5876708.76946  23410549.704    23410555.659
  22649606.208   -14384348.58949 -11189208.85446  22649605.614    22649611.100
  21948856.584   -16850949.22249 -12794156.67947  21948856.233    21948861.754
  20251439.205   -28974146.07949 -22563102.65948  20251438.471    20251443.830
  20932205.786   -26286086.45249 -19770196.62048  20932205.306    20932209.217
 03  2 28  2 46 30.0000000  0  8G14G 9G17G31G23G 3G15G18
  21409227.202   -20628642.99349 -15713518.88847  21409226.721    21409231.440
  23322810.068   -14553000.90249 -10781577.10045  23322809.924    23322816.013
  21686073.474   -20620162.70049 -16049150.96347  21686072.774    21686078.895
  23398411.578    -8033783.54849  -5926414.60746  23398411.017    23398416.891
  22660800.962   -14325519.96149 -11143368.34946  22660800.344    22660805.832
  21945766.323   -16867188.58449 -12806810.70647  21945765.972    21945771.490
  20253508.535   -28963271.59249 -22554629.01648  20253507.788    20253513.127
  20938800.419   -26251431.44549 -19743192.70347  20938799.950    20938803.849
 03  2 28  2 47  0.0000000  0  8G14G 9G17G31G23G 3G15G18
  21394514.320   -20705959.44149 -15773765.41147  21394513.826    21394518.550
  23317394.072   -14581462.46549 -10803754.86945  23317393.784    23317399.929
  21696830.544   -20563633.88549 -16005102.54947  21696829.867    21696835.979
  23386361.080    -8097109.27849  -5975759.28346  23386360.529    23386366.342
  22672001.637   -14266660.03349 -11097503.45746  22672001.021    22672006.496
  21942782.267   -16882869.76449 -12819029.78647  21942781.888    21942787.452
  20255653.662   -28951998.79549 -22545844.99948  20255652.923    20255658.261
  20945430.882   -26216588.10949 -19716042.03947  20945430.390    20945434.287
 03  2 28  2 47 30.0000000  0  8G14G 9G17G31G23G 3G15G18
  21379880.650   -20782859.44449 -15833687.43647  21379880.177    21379884.917
  23312075.354   -14609411.77749 -10825533.49345  23312075.196    23312081.291
  21707653.522   -20506758.75149 -15960784.27547  21707652.835    21707658.965
  23374399.148    -8159969.56749  -6024741.28746  23374398.630    23374404.358
  22683208.140   -14207769.47049 -11051614.69446  22683207.522    22683212.975
  21939904.482   -16897992.36149 -12830813.61847  21939904.130    21939909.688
  20257874.786   -28940326.65849 -22536749.81648  20257874.046    20257879.381
  20952097.018   -26181557.25849 -19688745.26247  20952096.535    20952100.426
 03  2 28  2 48  0.0000000  0  8G14G 9G17G31G23G 3G15G18
  21365326.615   -20859341.21749 -15893283.56147  21365326.113    21365330.877
  23306854.654   -14636846.80149 -10846911.36546  23306854.461    23306860.535
  21718542.362   -20449537.58649 -15916196.36247  21718541.706    21718547.810
  23362526.175    -8222362.67349  -6073359.25646  23362525.680    23362531.300
  22694420.315   -14148849.01549 -11005702.63446  22694419.680    22694425.175
  21937133.076   -16912556.31249 -12842162.12947  21937132.689    21937138.234
  20260172.083   -28928254.31649 -22527342.77448  20260171.345    20260176.669
  20958798.557   -26146340.16749 -19661303.35447  20958798.076    20958801.977
 03  2 28  2 48 30.0000000  0  8G14G 9G17G31G23G 3G15G18
  21350852.624   -20935402.22349 -15952551.82447  21350852.133    21350856.892
  23301732.074   -14663765.39749 -10867886.83546  23301731.956    23301738.024
  21729497.062   -20391970.25949 -15871338.72747  21729496.412    21729502.517
  23350742.487    -8284286.07449  -6121611.21546  23350742.018    23350747.670
  22705638.150   -14089898.69749 -10959767.31046  22705637.544    22705643.054
  21934468.089   -16926560.77349 -12853074.68147  21934467.724    21934473.264
  20262545.764   -28915780.57749 -22517622.96448  20262545.012    20262550.315
  20965535.533   -26110937.23349 -19633716.64247  20965535.052    20965538.916
 03  2 28  2 49  0.0000000  0  8G14G 9G17G31G23G 3G15G18
  21336459.001   -21011041.15549 -16011491.19747  21336458.497    21336463.249
  23296708.370   -14690165.63449 -10888458.37646  23296708.185    23296714.181
  21740517.727   -20334056.30849 -15826210.98347  21740517.073    21740523.156
  23339048.491    -8345738.05549  -6169495.83246  23339048.014    23339053.644
  22716861.564   -14030919.27349 -10913809.30246  22716860.954    22716866.492
  21931909.520   -16940005.79349 -12863551.30247  21931909.175    21931914.724
  20264995.935   -28902904.80049 -22507589.88248  20264995.186    20265000.472
  20972307.647   -26075349.50949 -19605985.93347  20972307.164    20972311.010
 03  2 28  2 49 30.0000000  0  8G14G 9G17G31G23G 3G15G18
  21322145.822   -21086256.98649 -16070100.87947  21322145.316    21322150.071
  23291783.389   -14716046.42349 -10908625.16546  23291783.124    23291789.169
  21751604.204   -20275796.69249 -15780813.89747  21751603.538    21751609.612
  23327444.489    -8406717.47549  -6217012.21346  23327443.937    23327449.621
  22728090.208   -13971912.16649 -10867829.72646  22728089.601    22728095.169
  21929457.354   -16952891.96349 -12873592.45747  21929457.003    21929462.515
  20267522.658   -28889626.69749 -22497243.29048  20267521.907    20267527.186
  20979114.652   -26039578.54549 -19578112.43647  20979114.171    20979118.010
 03  2 28  2 50  0.0000000  0  8G14G 9G17G31G23G 3G15G18
  21307913.756   -21161046.64349 -16128378.47147  21307913.279    21307918.030
  23286957.862   -14741404.49749 -10928384.64646  23286957.695    23286963.642
  21762756.600   -20217190.74349 -15735146.93947  21762755.907    21762761.943
  23315930.966    -8467221.29149  -6264157.99146  23315930.408    23315936.035
  22739324.208   -13912876.66349 -10821828.01946  22739323.664    22739329.217
  21927111.762   -16965218.00149 -12883197.14647  21927111.417    21927116.929
  20270126.332   -28875944.35749 -22486581.71348  20270125.584    20270130.842
  20985956.504   -26003624.35949 -19550096.17147  20985956.005    20985959.832
 03  2 28  2 50 30.0000000  0  8G14G 9G17G31G23G 3G15G18
  21293763.038   -21235409.02849 -16186323.13147  21293762.545    21293767.248
  23282232.111   -14766238.69249 -10947735.89646  23282231.886    23282237.778
  21773974.711   -20158239.01749 -15689210.54047  21773974.051    21773980.093
  23304508.210    -8527248.30849  -6310932.24946  23304507.635    23304513.241
  22750563.404   -13853814.12949 -10775805.26846  22750562.863    22750568.398
  21924872.629   -16976984.55749 -12892365.86847  21924872.297    21924877.834
  20272806.860   -28861857.95549 -22475605.28048  20272806.118    20272811.405
  20992832.850   -25967488.64649 -19521938.45247  20992832.375    20992836.203
 03  2 28  2 51  0.0000000  0  8G14G 9G17G31G23G 3G15G18
  21279693.904   -21309342.49549 -16243933.56747  21279693.415    21279698.131
  23277606.355   -14790547.23849 -10966677.56346  23277606.159    23277611.977
  21785258.586   -20098941.79249 -15643004.92647  21785257.900    21785263.998
  23293176.434    -8586796.79749  -6357333.62246  23293175.910    23293181.537
  22761807.679   -13794725.07449 -10729761.82746  22761807.139    22761812.650
  21922740.025   -16988191.54249 -12901098.57347  21922739.673    21922745.196
  20275564.515   -28847366.37649 -22464313.12648  20275563.769    20275569.031
  20999743.541   -25931172.50349 -19493640.14047  20999743.080    20999746.883
 03  2 28  2 51 30.0000000  0  8G14G 9G17G31G23G 3G15G18
  21265706.861   -21382844.61649 -16301207.88847  21265706.358    21265711.083
  23273081.116   -14814327.56549 -10985207.62646  23273080.951    23273086.652
  21796608.411   -20039297.96149 -15596529.23047  21796607.723    21796613.911
  23281936.206    -8645864.20849  -6403360.13046  23281935.662    23281941.309
  22773057.007   -13735609.36049 -10683697.62346  22773056.481    22773062.001
  21920714.011   -16998838.29149 -12909394.72047  21920713.656    21920719.172
  20278399.526   -28832468.29149 -22452704.21548  20278398.767    20278404.030
  21006688.620   -25894675.84449 -19465201.16747  21006688.153    21006691.966
 03  2 28  2 52  0.0000000  0  8G14G 9G17G31G23G 3G15G18
  21251802.163   -21455914.05049 -16358145.04947  21251801.664    21251806.398
  23268656.618   -14837578.23949 -11003324.97746  23268656.434    23268662.170
  21808024.091   -19979308.08949 -15549783.87946  21808023.410    21808029.617
  23270787.835    -8704449.05649  -6449010.61846  23270787.240    23270792.865
  22784311.236   -13676467.91449 -10637613.36846  22784310.720    22784316.222
  21918794.592   -17008924.84149 -12917254.35047  21918794.245    21918799.757
  20281311.991   -28817163.14649 -22440778.11548  20281311.260    20281316.484
  21013667.725   -25858000.25849 -19436622.77147  21013667.251    21013671.077
 03  2 28  2 52 30.0000000  0  8G14G 9G17G31G23G 3G15G18
  21237980.084   -21528549.24849 -16414743.84547  21237979.593    21237984.304
  23264333.161   -14860297.72749 -11021028.42446  23264332.967    23264338.761
  21819505.562   -19918972.76249 -15502769.34746  21819504.841    21819511.057
  23259731.544    -8762549.92449  -6494283.97446  23259730.973    23259736.595
  22795570.215   -13617301.54049 -10591509.69046  22795569.695    22795575.152
  21916981.733   -17018451.42649 -12924677.64747  21916981.389    21916986.870
  20284302.008   -28801450.47049 -22428534.46148  20284301.260    20284306.493
  21020680.717   -25821146.61549 -19407905.63147  21020680.246    21020684.095
 03  2 28  2 53  0.0000000  0  8G14G 9G17G31G23G 3G15G18
  21224241.026   -21600748.19149 -16471002.70647  21224240.544    21224245.252
  23260111.323   -14882483.62249 -11038316.07846  23260111.090    23260116.850
  21831052.836   -19858291.39049 -15455485.16946  21831052.137    21831058.369
  23248767.960    -8820164.34249  -6539178.28546  23248767.393    23248772.856
  22806833.972   -13558110.06549 -10545386.44746  22806833.438    22806838.883
  21915275.527   -17027417.52849 -12931664.20547  21915275.161    21915280.619
  20287369.808   -28785328.93049 -22415972.20848  20287369.067    20287374.315
  21027727.453   -25784115.51949 -19379050.21747  21027726.997    21027730.867
 03  2 28  2 53 30.0000000  0  8G14G 9G17G31G23G 3G15G18
  21210585.317   -21672509.04649 -16526920.19747  21210584.838    21210589.500
  23255991.226   -14904134.45349 -11055186.81546  23255991.013    23255996.745
  21842665.892   -19797264.23649 -15407931.55546  21842665.208    21842671.450
  23237897.179    -8877290.69249  -6583692.27846  23237896.619    23237902.074
  22818102.379   -13498894.10849 -10499244.13446  22818101.867    22818107.263
  21913675.945   -17035823.30249 -12938214.14547  21913675.608    21913681.046
  20290515.556   -28768797.89049 -22403090.86748  20290514.799    20290520.053
  21034807.878   -25746907.77649 -19350057.15747  21034807.406    21034811.263
 03  2 28  2 54  0.0000000  0  8G14G 9G17G31G23G 3G15G18
  21197013.203   -21743831.02449 -16582495.71147  21197012.714    21197017.330
  23251973.206   -14925249.15249 -11071639.78146  23251972.934    23251978.736
  21854344.585   -19735892.28049 -15360109.26946  21854343.922    21854350.156
  23227119.427    -8933927.96149  -6627825.17946  23227118.870    23227124.353
  22829375.250   -13439654.97549 -10453083.76146  22829374.732    22829380.110
  21912182.864   -17043669.55849 -12944328.09547  21912182.492    21912187.958
  20293739.223   -28751857.28449 -22389890.38448  20293738.477    20293743.741
  21041921.535   -25709525.13949 -19320927.81847  21041921.041    21041924.915
 03  2 28  2 54 30.0000000  0  8G14G 9G17G31G23G 3G15G18
  21183525.108   -21814711.40749 -16637727.12047  21183524.601    21183529.199
  23248057.644   -14945825.27649 -11087673.06746  23248057.424    23248063.235
  21866089.013   -19674174.88049 -15312017.79946  21866088.372    21866094.622
  23216435.248    -8990073.52549  -6671574.92046  23216434.687    23216440.110
  22840652.562   -13380392.41549 -10406905.12546  22840651.996    22840657.399
  21910796.384   -17050955.47749 -12950005.42147  21910796.002    21910801.498
  20297041.138   -28734505.41649 -22376369.43648  20297040.381    20297045.654
  21049068.497   -25671967.60549 -19291662.18747  21049068.004    21049071.871
 03  2 28  2 55  0.0000000  0  8G14G 9G17G31G23G 3G15G18
  21170121.263   -21885148.70249 -16692613.26847  21170120.771    21170125.344
  23244244.826   -14965860.97449 -11103285.24946  23244244.664    23244250.382
  21877899.161   -19612112.01749 -15263657.12846  21877898.526    21877904.742
  23205845.009    -9045725.68249  -6714940.19446  23205844.408    23205849.821
  22851934.242   -13321106.71849 -10360708.47146  22851933.695    22851939.069
  21909516.533   -17057680.94849 -12955246.02747  21909516.178    21909521.672
  20300421.468   -28716741.68949 -22362527.55948  20300420.711    20300425.984
  21056248.518   -25634236.16049 -19262261.04447  21056248.033    21056251.904
 03  2 28  2 55 30.0000000  0  8G14G 9G17G31G23G 3G15G18
  21156802.055   -21955141.45549 -16747153.02547  21156801.551    21156806.088
  23240535.291   -14985354.69149 -11118475.11246  23240535.122    23240540.832
  21889775.026   -19549704.11649 -15215027.60446  21889774.354    21889780.631
  23195348.901    -9100882.88649  -6757919.78646  23195348.285    23195353.704
  22863220.172   -13261798.59349 -10314494.34146  22863219.623    22863224.971
  21908343.297   -17063846.30349 -12960050.18547  21908342.920    21908348.414
  20303880.236   -28698565.57449 -22348364.34348  20303879.487    20303884.749
  21063461.437   -25596331.73949 -19232725.11747  21063460.969    21063464.836
 03  2 28  2 56  0.0000000  0  8G14G 9G17G31G23G 3G15G18
  21143567.719   -22024688.24849 -16801345.28047  21143567.223    21143571.759
  23236929.145   -15004304.91049 -11133241.47646  23236928.979    23236934.645
  21901716.483   -19486951.29749 -15166129.31546  21901715.798    21901722.063
  23184947.241    -9155543.66249  -6800512.56446  23184946.705    23184952.077
  22874510.328   -13202468.62649 -10268263.18146  22874509.726    22874515.078
  21907276.589   -17069451.83549 -12964418.12147  21907276.228    21907281.709
  20307417.642   -28679976.30449 -22333879.18848  20307416.908    20307422.186
  21070707.128   -25558255.30149 -19203055.15547  21070706.653    21070710.532
 03  2 28  2 56 30.0000000  0  8G14G 9G17G31G23G 3G15G18
  21130418.584   -22093787.33349 -16855188.67047  21130418.066    21130422.590
  23233426.895   -15022709.88749 -11147582.97146  23233426.613    23233432.281
  21913723.438   -19423854.14749 -15116962.71946  21913722.785    21913729.065
  23174640.423    -9209706.14949  -6842717.05846  23174639.910    23174645.268
  22885804.471   -13143117.27849 -10222015.37646  22885803.898    22885809.243
  21906316.334   -17074497.67449 -12968349.93147  21906315.983    21906321.505
  20311033.784   -28660973.28049 -22319071.62148  20311033.025    20311038.312
  21077985.411   -25520007.69649 -19173251.81247  21077984.925    21077988.793
 03  2 28  2 57  0.0000000  0  8G14G 9G17G31G23G 3G15G18
  21117354.952   -22162436.79049 -16908681.69647  21117354.450    21117358.956
  23230028.638   -15040567.74949 -11161498.14846  23230028.336    23230033.933
  21925796.004   -19360412.40449 -15067527.60746  21925795.338    21925801.649
  23164428.765    -9263368.50649  -6884531.84146  23164428.240    23164433.659
  22897102.614   -13083744.69649 -10175751.01646  22897102.096    22897107.490
  21905462.653   -17078983.77749 -12971845.57747  21905462.314    21905467.806
  20314728.822   -28641555.52749 -22303940.89148  20314728.076    20314733.380
  21085296.117   -25481589.60549 -19143315.62047  21085295.634    21085299.481
 03  2 28  2 57 30.0000000  0  8G14G 9G17G31G23G 3G15G18
  21104377.097   -22230635.77649 -16961823.71947  21104376.604    21104381.060
  23226734.662   -15057877.49249 -11174986.21246  23226734.387    23226740.011
  21937934.102   -19296626.43449 -15017824.26246  21937933.434    21937939.731
  23154312.540    -9316529.56249  -6925955.99846  23154311.974    23154317.395
  22908404.705   -13024351.76949 -10129470.81546  22908404.182    22908409.584
  21904715.429   -17082910.75549 -12974905.54947  21904715.051    21904720.534
  20318502.845   -28621722.96749 -22288486.94048  20318502.104    20318507.370
  21092639.046   -25443002.21249 -19113247.50947  21092638.570    21092642.414
 03  2 28  2 58  0.0000000  0  8G14G 9G17G31G23G 3G15G18
  21091485.327   -22298382.35349 -17014613.20647  21091484.809    21091489.264
  23223545.466   -15074637.22049 -11188045.69746  23223545.154    23223550.661
  21950137.802   -19232495.82149 -14967852.36346  21950137.146    21950143.388
  23144292.060    -9369187.32449  -6966987.98746  23144291.520    23144296.884
  22919710.644   -12964938.56549 -10083174.79846  22919710.135    22919715.543
  21904074.524   -17086278.53049 -12977529.77447  21904074.175    21904079.663
  20322356.021   -28601474.34449 -22272708.77948  20322355.276    20322360.516
  21100014.050   -25404246.24949 -19083048.04147  21100013.585    21100017.412
 03  2 28  2 58 30.0000000  0  8G14G 9G17G31G23G 3G15G18
  21078679.851   -22365675.20549 -17067049.14347  21078679.344    21078683.815
  23220460.996   -15090845.71949 -11200675.64946  23220460.760    23220466.246
  21962406.740   -19168022.19049 -14917613.18046  21962406.102    21962412.295
  23134367.552    -9421340.63449  -7007626.88446  23134367.031    23134372.378
  22931020.320   -12905505.82849 -10036863.56846  22931019.795    22931025.228
  21903539.963   -17089087.65449 -12979718.68847  21903539.595    21903545.072
  20326288.419   -28580809.49649 -22256606.28548  20326287.664    20326292.907
  21107420.940   -25365322.76649 -19052718.03347  21107420.467    21107424.295
 03  2 28  2 59  0.0000000  0  8G14G 9G17G31G23G 3G15G18
  21065961.204   -22432511.79749 -17119129.55747  21065960.699    21065965.183
  23217481.892   -15106500.47049 -11212874.10946  23217481.712    23217487.149
  21974741.186   -19103204.19649 -14867105.66546  21974740.534    21974746.749
  23124539.576    -9472986.74149  -7047870.57246  23124539.065    23124544.429
  22942333.770   -12846053.06849  -9990536.73846  22942333.213    22942338.673
  21903111.875   -17091337.27449 -12981471.62847  21903111.501    21903116.961
  20330300.341   -28559726.57649 -22240178.02148  20330299.596    20330304.857
  21114859.721   -25326231.57149 -19022257.34947  21114859.247    21114863.080
 03  2 28  2 59 30.0000000  0  8G14G 9G17G31G23G 3G15G18
  21053329.443   -22498891.84449 -17170854.22347  21053328.954    21053333.435
  23214608.375   -15121601.20349 -11224640.87746  23214608.041    23214613.511
  21987140.877   -19038043.26249 -14816330.92946  21987140.239    21987146.493
  23114808.258    -9524125.28149  -7087718.75046  23114807.761    23114813.064
  22953650.725   -12786581.72749  -9944195.43246  22953650.198    22953655.668
  21902790.010   -17093028.81249 -12982789.71147  21902789.634    21902795.072
  20334391.709   -28538226.20449 -22223424.47348  20334390.954    20334396.231
  21122330.061   -25286974.52849 -18991667.43347  21122329.586    21122333.424
 03  2 28  3  0  0.0000000  0  8G14G 9G17G31G23G 3G15G18
  21040784.980   -22564813.23649 -17222221.49447  21040784.488    21040788.955
  23211840.375   -15136145.88549 -11235974.33946  23211840.228    23211845.695
  21999605.976   -18972539.02049 -14765288.67146  21999605.310    21999611.517
  23105173.873    -9574754.07649  -7127169.71746  23105173.341    23105178.662
  22964971.428   -12727091.58549  -9897839.46646  22964970.821    22964976.334
  21902574.373   -17094162.01849 -12983672.71747  21902573.994    21902579.403
  20338562.732   -28516307.18849 -22206344.70648  20338561.997    20338567.269
  21129831.945   -25247551.82449 -18960948.42347  21129831.472    21129835.300
 03  2 28  3  0 30.0000000  0  8G14G 9G17G31G23G 3G15G18
  21028327.947   -22630275.05949 -17273230.65447  21028327.462    21028331.915
  23209178.676   -15150133.44249 -11246873.68646  23209178.430    23209183.907
  22012136.233   -18906692.22449 -14713979.49346  22012135.555    22012141.759
  23095636.621    -9624872.15849  -7166222.73146  23095636.134    23095641.453
  22976295.438   -12667583.40149  -9851469.44246  22976294.822    22976300.342
  21902464.760   -17094737.72949 -12984121.30947  21902464.390    21902469.825
  20342813.438   -28493969.39949 -22188938.62148  20342812.694    20342817.995
  21137365.074   -25207964.90449 -18930101.45447  21137364.617    21137368.425
 03  2 28  3  1  0.0000000  0  8G14G 9G17G31G23G 3G15G18
  21015958.872   -22695274.85049 -17323879.79447  21015958.385    21015962.827
  23206623.207   -15163561.60749 -11257337.14846  23206623.129    23206628.640
  22024731.723   -18840502.57349 -14662403.15946  22024731.056    22024737.320
  23086197.122    -9674477.02049  -7204875.83746  23086196.629    23086201.907
  22987622.942   -12608056.66149  -9805084.96346  22987622.340    22987627.908
  21902461.388   -17094755.33949 -12984135.02247  21902461.022    21902466.436
  20347144.182   -28471211.12949 -22171204.89048  20347143.456    20347148.735
  21144929.513   -25168213.46749 -18899126.29547  21144929.040    21144932.853
 03  2 28  3  1 30.0000000  0  8G14G 9G17G31G23G 3G15G18
  21003677.815   -22759812.21349 -17374168.60147  21003677.317    21003681.756
  23204174.500   -15176430.08149 -11267364.48946  23204174.324    23204179.773
  22037392.213   -18773971.17249 -14610560.52646  22037391.571    22037397.815
  23076855.352    -9723568.25249  -7243128.70546  23076854.836    23076860.151
  22998953.712   -12548512.81149  -9758687.15146  22998953.206    22998958.718
  21902563.916   -17094216.49049 -12983715.12547  21902563.541    21902568.997
  20351554.885   -28448032.77849 -22153143.82348  20351554.142    20351559.418
  21152524.852   -25128299.60049 -18868024.56647  21152524.382    21152528.183
 03  2 28  3  2  0.0000000  0  8G14G 9G17G31G23G 3G15G18
  20991485.198   -22823884.62849 -17424095.11747  20991484.708    20991489.138
  23201832.877   -15188736.10749 -11276953.55246  23201832.436    23201838.018
  22050117.933   -18707097.36149 -14558451.08746  22050117.252    22050123.496
  23067611.791    -9772143.31349  -7280979.36746  23067611.275    23067616.586
  23010287.960   -12488951.11649  -9712275.43146  23010287.410    23010292.936
  21902772.465   -17093120.37849 -12982861.00747  21902772.126    21902777.561
  20356045.800   -28424432.81749 -22134754.23648  20356045.063    20356050.318
  21160151.163   -25088223.02249 -18836796.05247  21160150.703    21160154.503
 03  2 28  3  2 30.0000000  0  8G14G 9G17G31G23G 3G15G18
  20979380.941   -22887492.50549 -17473659.65047  20979380.457    20979384.891
  23199597.831   -15200480.19449 -11286104.75546  23199597.602    23199603.107
  22062908.473   -18639882.77249 -14506076.10446  22062907.757    22062914.016
  23058466.422    -9820202.35949  -7318427.93246  23058465.867    23058471.255
  23021625.150   -12429373.52549  -9665851.32446  23021624.621    23021630.152
  21903086.683   -17091469.00749 -12981574.21647  21903086.329    21903091.773
  20360616.739   -28400412.27249 -22116036.92148  20360616.009    20360621.280
  21167807.962   -25047986.12549 -18805442.61447  21167807.502    21167811.315
 03  2 28  3  3  0.0000000  0  8G14G 9G17G31G23G 3G15G18
  20967365.770   -22950632.51049 -17522859.60947  20967365.295    20967369.698
  23197470.489   -15211659.23149 -11294815.65746  23197470.286    23197475.691
  22075764.102   -18572326.00349 -14453434.47946  22075763.387    22075769.616
  23049419.807    -9867742.18549  -7355471.92546  23049419.289    23049424.650
  23032965.694   -12369778.64449  -9619413.75246  23032965.190    23032970.667
  21903506.868   -17089260.85249 -12979853.56647  21903506.528    21903511.981
  20365268.169   -28375968.80749 -22096990.05048  20365267.439    20365272.691
  21175495.502   -25007587.85549 -18773963.43147  21175495.020    21175498.828
 03  2 28  3  3 30.0000000  0  8G14G 9G17G31G23G 3G15G18
  20955439.668   -23013304.51749 -17571694.88947  20955439.182    20955443.563
  23195450.671   -15222273.15249 -11303086.19546  23195450.454    23195455.886
  22088684.523   -18504428.73449 -14400527.53646  22088683.812    22088689.991
  23040472.076    -9914762.46149  -7392111.06046  23040471.593    23040476.986
  23044309.244   -12310167.95349  -9572963.84746  23044308.727    23044314.210
  21904032.704   -17086497.58149 -12977700.35347  21904032.364    21904037.793
  20369999.958   -28351103.17649 -22077614.21948  20369999.213    20370004.450
  21183213.415   -24967030.02349 -18742359.91147  21183212.927    21183216.710
 03  2 28  3  4  0.0000000  0  8G14G 9G17G31G23G 3G15G18
  20943602.962   -23075506.72849 -17620164.09847  20943602.476    20943606.836
  23193538.543   -15232320.43449 -11310915.21346  23193538.457    23193543.910
  22101669.798   -18436190.67349 -14347355.03746  22101669.112    22101675.315
  23031623.540    -9961261.40149  -7428343.96446  23031623.069    23031628.479
  23055655.803   -12250541.40349  -9526501.59246  23055655.283    23055660.794
  21904664.172   -17083179.30849 -12975114.68147  21904663.817    21904669.216
  20374812.312   -28325814.13649 -22057908.46748  20374811.571    20374816.775
  21190961.613   -24926313.08849 -18710632.41747  21190961.133    21190964.883
 03  2 28  3  4 30.0000000  0  8G14G 9G17G31G23G 3G15G18
  20931855.973   -23137237.42449 -17668265.89647  20931855.478    20931859.815
  23191734.764   -15241799.37349 -11318301.36246  23191734.656    23191740.116
  22114719.848   -18367612.03349 -14293917.15746  22114719.179    22114725.391
  23022874.665   -10007237.29649  -7464169.30346  23022874.146    23022879.567
  23067005.328   -12190898.94949  -9480026.94646  23067004.825    23067010.356
  21905401.151   -17079306.52049 -12972096.91547  21905400.797    21905406.198
  20379705.350   -28300100.87449 -22037872.14948  20379704.594    20379709.824
  21198740.000   -24885437.32249 -18678781.15947  21198739.508    21198743.265
 03  2 28  3  5  0.0000000  0  8G14G 9G17G31G23G 3G15G18
  20920198.825   -23198496.06449 -17715999.85947  20920198.328    20920202.645
  23190039.270   -15250709.31049 -11325244.13346  23190039.130    23190044.530
  22127834.486   -18298694.20749 -14240214.97846  22127833.810    22127840.048
  23014225.372   -10052689.58549  -7499586.64246  23014224.824    23014230.269
  23078357.702   -12131241.74749  -9433540.81646  23078357.186    23078362.745
  21906243.349   -17074880.58749 -12968648.12047  21906243.013    21906248.407
  20384679.080   -28273963.64449 -22017505.46748  20384678.341    20384683.564
  21206548.239   -24844404.64449 -18646807.62547  21206547.753    21206551.498
 03  2 28  3  5 30.0000000  0  8G14G 9G17G31G23G 3G15G18
  20908631.800   -23259281.08449 -17763364.76447  20908631.306    20908635.611
  23188452.288   -15259048.88149 -11331742.47146  23188452.048    23188457.489
  22141013.695   -18229436.90449 -14186248.26246  22141013.046    22141019.286
  23005676.036   -10097616.54949  -7534594.63446  23005675.482    23005680.899
  23089713.004   -12071569.50449  -9387042.95646  23089712.414    23089718.036
  21907190.857   -17069901.46249 -12964768.26547  21907190.518    21907195.897
  20389733.668   -28247401.58149 -21996807.74148  20389732.932    20389738.154
  21214386.314   -24803215.11649 -18614711.87947  21214385.836    21214389.613
 03  2 28  3  6  0.0000000  0  8G14G 9G17G31G23G 3G15G18
  20897155.138   -23319591.20849 -17810359.61947  20897154.651    20897158.926
  23186974.177   -15266817.13549 -11337795.61846  23186973.862    23186979.163
  22154257.410   -18159840.73749 -14132017.50146  22154256.757    22154263.048
  22997226.825   -10142016.94049  -7569192.31046  22997226.282    22997231.731
  23101071.045   -12011882.75349  -9340533.79646  23101070.502    23101076.045
  21908243.494   -17064369.81149 -12960457.87747  21908243.149    21908248.506
  20394869.114   -28220414.57049 -21975778.89048  20394868.376    20394873.583
  21222254.107   -24761869.50649 -18582494.50747  21222253.630    21222257.431
 03  2 28  3  6 30.0000000  0  8G14G 9G17G31G23G 3G15G18
  20885769.060   -23379425.29149 -17856983.53548  20885768.573    20885772.837
  23185604.802   -15274012.88249 -11343402.63846  23185604.530    23185609.868
  22167565.519   -18089906.25949 -14077523.11846  22167564.884    22167571.151
  22988878.128   -10185889.46449  -7603378.65746  22988877.591    22988883.014
  23112431.833   -11952181.78849  -9294013.55146  23112431.277    23112436.758
  21909401.092   -17058286.57849 -12955717.68747  21909400.748    21909406.078
  20400085.563   -28193002.04549 -21954418.47948  20400084.825    20400090.012
  21230151.445   -24720368.62549 -18550156.13947  21230150.982    21230154.745
 03  2 28  3  7  0.0000000  0  8G14G 9G17G31G23G 3G15G18
  20874473.906   -23438781.57449 -17903235.14448  20874473.423    20874477.662
  23184344.868   -15280634.54349 -11348562.34846  23184344.472    23184349.802
  22180937.997   -18019633.43749 -14022765.09646  22180937.356    22180943.649
  22980630.282   -10229232.43749  -7637152.36646  22980629.681    22980635.118
  23123795.282   -11892466.37649  -9247482.06246  23123794.700    23123800.194
  21910663.655   -17051651.72249 -12950547.65747  21910663.284    21910668.598
  20405383.145   -28165163.04249 -21932725.75048  20405382.378    20405387.596
  21238078.275   -24678712.69949 -18517696.96347  21238077.805    21238081.573
 03  2 28  3  7 30.0000000  0  8G14G 9G17G31G23G 3G15G18
  20863269.843   -23497659.34049 -17949113.87948  20863269.349    20863273.580
  23183194.044   -15286681.44249 -11353274.18046  23183193.769    23183199.071
  22194374.785   -17949022.96449 -13967743.97046  22194374.115    22194380.443
  22972483.197   -10272045.08049  -7670512.82546  22972482.601    22972488.097
  23135161.382   -11832737.25049  -9200939.88646  23135160.771    23135166.281
  21912030.926   -17044466.31249 -12944948.62447  21912030.577    21912035.905
  20410761.880   -28136897.49549 -21910700.64048  20410761.134    20410766.342
  21246034.367   -24636903.14249 -18485118.07247  21246033.877    21246037.651
 03  2 28  3  8  0.0000000  0  8G14G 9G17G31G23G 3G15G18
  20852157.098   -23556056.89849 -17994618.42948  20852156.613    20852160.836
  23182152.888   -15292152.06049 -11357536.98146  23182152.689    23182158.046
  22207875.721   -17878075.14649 -13912459.97946  22207875.068    22207881.373
  22964437.466   -10314325.64749  -7703458.69046  22964436.871    22964442.354
  23146530.081   -11772994.26849  -9154386.90946  23146529.461    23146534.993
  21913502.982   -17036730.70249 -12938920.86347  21913502.618    21913507.942
  20416221.943   -28108204.59949 -21888342.53148  20416221.194    20416226.411
  21254019.657   -24594940.12749 -18452419.60547  21254019.179    21254022.959
 03  2 28  3  8 30.0000000  0  8G14G 9G17G31G23G 3G15G18
  20841135.920   -23613973.24849 -18039748.01948  20841135.462    20841139.663
  23181221.726   -15297045.61849 -11361350.10346  23181221.524    23181226.826
  22221440.775   -17806790.29949 -13856913.36846  22221440.157    22221446.393
  22956493.125   -10356073.13049  -7735989.16846  22956492.541    22956498.054
  23157901.353   -11713237.89549  -9107823.49346  23157900.739    23157906.225
  21915079.534   -17028445.79649 -12932465.08447  21915079.166    21915084.497
  20421763.381   -28079084.01449 -21865651.16748  20421762.648    20421767.891
  21262033.990   -24552824.38449 -18419602.13047  21262033.510    21262037.288
 03  2 28  3  9  0.0000000  0  8G14G 9G17G31G23G 3G15G18
  20830206.560   -23671407.22149 -18084501.72048  20830206.078    20830210.288
  23180400.472   -15301361.24349 -11364712.90146  23180400.223    23180405.515
  22235069.821   -17735169.09149 -13801104.65046  22235069.182    22235075.435
  22948650.432   -10397286.39249  -7768103.36846  22948649.890    22948655.376
  23169275.191   -11653468.39949  -9061249.84346  23169274.545    23169279.946
  21916760.530   -17019611.99049 -12925581.58047  21916760.143    21916765.530
  20427386.267   -28049535.41149 -21842626.27148  20427385.555    20427390.798
  21270077.231   -24510556.79249 -18386666.32347  21270076.742    21270080.526
 03  2 28  3  9 30.0000000  0  8G14G 9G17G31G23G 3G15G18
  20819369.101   -23728358.23549 -18128879.09648  20819368.631    20819372.849
  23179689.115   -15305098.45249 -11367624.99046  23179689.035    23179694.296
  22248762.709   -17663212.47149 -13745034.58246  22248762.093    22248768.375
  22940909.588   -10437964.64749  -7799800.68946  22940909.029    22940914.472
  23180651.242   -11593686.50049  -9014666.54046  23180650.590    23180656.010
  21918545.699   -17010230.91049 -12918271.64147  21918545.297    21918550.658
  20433090.655   -28019558.69349 -21819267.78648  20433089.906    20433095.152
  21278149.142   -24468138.39749 -18353613.02047  21278148.654    21278152.457
 03  2 28  3 10  0.0000000  0  8G14G 9G17G31G23G 3G15G18
  20808623.864   -23784824.75149 -18172878.93548  20808623.420    20808627.608
  23179088.359   -15308255.91949 -11370085.32346  23179088.131    23179093.430
  22262519.464   -17590920.52949 -13688703.22246  22262518.819    22262525.118
  22933270.854   -10478106.47649  -7831080.01246  22933270.337    22933275.707
  23192029.621   -11533892.06949  -8968073.47946  23192029.033    23192034.495
  21920434.854   -17000303.13049 -12910535.69347  21920434.479    21920439.840
  20438876.591   -27989153.36449 -21795575.31348  20438875.841    20438881.073
  21286249.697   -24425569.55849 -18320442.47947  21286249.226    21286252.998
 03  2 28  3 10 30.0000000  0  8G14G 9G17G31G23G 3G15G18
  20797971.025   -23840805.69849 -18216500.40848  20797970.535    20797974.729
  23178598.143   -15310832.34849 -11372092.90346  23178597.841    23178603.069
  22276339.830   -17518293.73149 -13632110.91946  22276339.201    22276345.552
  22925734.477   -10517710.56249  -7861940.30346  22925733.915    22925739.279
  23203410.529   -11474084.99749  -8921470.55046  23203409.953    23203415.362
  21922428.002   -16989829.06449 -12902374.07347  21922427.639    21922432.998
  20444744.192   -27958318.72649 -21771548.31748  20444743.439    20444748.697
  21294378.788   -24382850.95349 -18287155.23847  21294378.309    21294382.087
 03  2 28  3 11  0.0000000  0  8G14G 9G17G31G23G 3G15G18
  20787410.860   -23896299.52449 -18259742.30948  20787410.365    20787414.552
  23178218.497   -15312826.66649 -11373646.88546  23178218.333    23178223.592
  22290223.918   -17445332.33649 -13575257.91046  22290223.280    22290229.636
  22918300.554   -10556775.64549  -7892380.60546  22918300.031    22918305.370
  23214793.825   -11414265.41649  -8874857.87646  23214793.203    23214798.620
  21924524.991   -16978809.30749 -12893787.23447  21924524.627    21924530.009
  20450693.581   -27927054.41349 -21747186.51248  20450692.840    20450698.082
  21302536.296   -24339982.93549 -18253751.57547  21302535.801    21302539.572
 03  2 28  3 11 30.0000000  0  8G14G 9G17G31G23G 3G15G18
  20776943.570   -23951305.34049 -18302603.94448  20776943.072    20776947.252
  23177949.704   -15314238.30249 -11374746.83246  23177949.640    23177954.929
  22304171.599   -17372037.04449 -13518144.70546  22304170.924    22304177.251
  22910969.488   -10595300.73549  -7922400.12046  22910968.996    22910974.251
  23226179.358   -11354433.68349  -8828235.73646  23226178.771    23226184.230
  21926725.591   -16967244.92449 -12884776.01547  21926725.224    21926730.635
  20456724.717   -27895360.39849 -21722489.87248  20456723.985    20456729.225
  21310722.035   -24296966.38549 -18220232.16647  21310721.544    21310725.324
 03  2 28  3 12  0.0000000  0  8G14G 9G17G31G23G 3G15G18
  20766569.238   -24005822.52449 -18345084.83048  20766568.744    20766572.915
  23177792.022   -15315066.81049 -11375392.39746  23177791.879    23177797.186
  22318182.569   -17298408.96849 -13460772.21346  22318181.924    22318188.197
  22903741.232   -10633285.17849  -7951998.36346  22903740.780    22903746.066
  23237567.172   -11294590.47449  -8781604.66146  23237566.568    23237572.021
  21929029.567   -16955137.35749 -12875341.53947  21929029.219    21929034.606
  20462837.741   -27863236.48549 -21697458.24648  20462837.003    20462842.231
  21318935.840   -24253802.36049 -18186597.84847  21318935.358    21318939.130
 03  2 28  3 12 30.0000000  0  8G14G 9G17G31G23G 3G15G18
  20756288.145   -24059849.92549 -18387184.06248  20756287.641    20756291.809
  23177745.541   -15315311.17749 -11375582.77446  23177745.331    23177750.703
  22332256.775   -17224448.60849 -13403140.77846  22332256.111    22332262.422
  22896616.056   -10670727.93349  -7981174.49646  22896615.593    22896620.894
  23248957.084   -11234735.84149  -8734964.68046  23248956.522    23248961.954
  21931436.776   -16942487.31249 -12865484.35047  21931436.452    21931441.796
  20469032.604   -27830682.17349 -21672091.24648  20469031.884    20469037.107
  21327177.657   -24210491.23249 -18152848.90547  21327177.192    21327180.953
 03  2 28  3 13  0.0000000  0  8G14G 9G17G31G23G 3G15G18
  20746100.513   -24113385.93049 -18428900.39148  20746100.014    20746104.200
  23177810.501   -15314970.09749 -11375316.97246  23177810.236    23177815.573
  22346394.290   -17150155.45649 -13345250.02446  22346393.634    22346399.985
  22889594.381   -10707627.20249  -8009927.14546  22889593.894    22889599.174
  23260349.336   -11174869.25449  -8688315.39146  23260348.765    23260354.157
  21933947.208   -16929294.93049 -12855204.56147  21933946.865    21933952.257
  20475309.574   -27797696.45549 -21646388.08848  20475308.839    20475314.074
  21335447.407   -24167033.28349 -18118985.56047  21335446.947    21335450.721
 03  2 28  3 13 30.0000000  0  8G14G 9G17G31G23G 3G15G18
  20736006.376   -24166430.68749 -18470233.92948  20736005.892    20736010.067
  23177986.812   -15314043.91749 -11374595.24246  23177986.424    23177991.790
  22360594.831   -17075531.26549 -13287101.33446  22360594.203    22360600.526
  22882676.110   -10743983.08049  -8038256.37146  22882675.603    22882680.824
  23271743.563   -11114992.02049  -8641657.79846  23271743.017    23271748.405
  21936560.413   -16915562.22649 -12844503.74247  21936560.066    21936565.478
  20481668.513   -27764280.05049 -21620349.32248  20481667.796    20481672.993
  21343744.814   -24123430.14849 -18085009.07647  21343744.373    21343748.141
 03  2 28  3 14  0.0000000  0  8G14G 9G17G31G23G 3G15G18
  20726006.154   -24218982.20149 -18511183.12248  20726005.645    20726009.826
  23178274.562   -15312531.07549 -11373416.37046  23178274.275    23178279.619
  22374858.332   -17000576.24949 -13228694.85146  22374857.678    22374864.026
  22875861.592   -10779793.80849  -8066160.80946  22875861.031    22875866.254
  23283139.977   -11055103.52149  -8594991.42946  23283139.378    23283144.778
  21939276.419   -16901289.56349 -12833382.17247  21939276.065    21939281.477
  20488109.515   -27730432.22749 -21593974.39648  20488108.777    20488113.996
  21352069.919   -24079681.48449 -18050919.20147  21352069.460    21352073.210
 03  2 28  3 14 30.0000000  0  8G14G 9G17G31G23G 3G15G18
  20716099.865   -24271039.91449 -18551747.54348  20716099.363    20716103.528
  23178674.075   -15310431.23649 -11371780.09246  23178673.828    23178679.219
  22389184.724   -16925290.94849 -13170031.00146  22389184.050    22389190.367
  22869150.852   -10815058.76949  -8093639.96646  22869150.297    22869155.561
  23294538.453   -10995204.22549  -8548316.64946  23294537.827    23294543.264
  21942094.889   -16886478.19249 -12821840.84047  21942094.544    21942099.937
  20494632.671   -27696152.94749 -21567263.26548  20494631.932    20494637.123
  21360422.535   -24035788.33949 -18016716.74347  21360422.048    21360425.808
 03  2 28  3 15  0.0000000  0  8G14G 9G17G31G23G 3G15G18
  20706287.754   -24322602.81949 -18591926.39548  20706287.256    20706291.398
  23179185.626   -15307743.33849 -11369685.59146  23179185.334    23179190.672
  22403573.769   -16849676.11049 -13111110.36346  22403573.099    22403579.454
  22862544.234   -10849776.79949  -8120692.94746  22862543.660    22862548.910
  23305938.920   -10935294.08749  -8501633.42346  23305938.335    23305943.744
  21945015.801   -16871128.73549 -12809880.21847  21945015.452    21945020.820
  20501237.992   -27661441.63749 -21540215.47448  20501237.249    20501242.459
  21368802.512   -23991751.20249 -17982402.07947  21368802.036    21368805.757
 03  2 28  3 15 30.0000000  0  8G14G 9G17G31G23G 3G15G18
  20696570.032   -24373669.80149 -18631718.81348  20696569.533    20696573.656
  23179809.142   -15304466.85049 -11367132.44946  23179808.852    23179814.187
  22418025.378   -16773732.28549 -13051933.37446  22418024.745    22418031.129
  22856041.915   -10883946.97149  -8147319.03746  22856041.382    22856046.507
  23317341.518   -10875373.04449  -8454941.69646  23317340.911    23317346.344
  21948038.906   -16855242.32349 -12797501.19147  21948038.529    21948043.890
  20507925.630   -27626297.85949 -21512830.70648  20507924.899    20507930.104
  21377209.809   -23947570.67649 -17947975.68347  21377209.326    21377213.029
 03  2 28  3 16  0.0000000  0  8G14G 9G17G31G23G 3G15G18
  20686946.708   -24424240.38949 -18671124.43048  20686946.215    20686950.341
  23180544.678   -15300601.30549 -11364120.30346  23180544.393    23180549.750
  22432539.479   -16697460.09449 -12992500.51946  22432538.847    22432545.248
  22849643.989   -10917568.57149  -8173517.65346  22849643.391    22849648.502
  23328746.100   -10815441.64449  -8408241.88746  23328745.515    23328750.876
  21951163.898   -16838820.23749 -12784704.75447  21951163.536    21951168.890
  20514695.544   -27590721.84949 -21485109.14248  20514694.782    20514699.994
  21385644.200   -23903247.51649 -17913438.14647  21385643.707    21385647.416
